<?xml version="1.0" encoding="UTF-8" standalone="no" ?>
<gpx xmlns="http://www.topografix.com/GPX/1/1" xmlns:xsi="http://www.w3.org/2001/XMLSchema-instance" xsi:schemaLocation="http://www.topografix.com/GPX/1/1 http://www.topografix.com/GPX/1/1/gpx.xsd" version="1.1" creator="VisuGPX - https://www.visugpx.com">
  <metadata>
    <name>la pouncho par massebiau</name>
    <desc><![CDATA[sortie trail fin des templiers raccourci]]></desc>
  </metadata>
  <trk>
    <name><![CDATA[La Poncho Par Massebiau]]></name>
    <desc><![CDATA[]]></desc>
    <trkseg>
      <trkpt lat="44.10302" lon="3.08857">
        <ele>375</ele>
        <time>2014-09-06T07:53:29.706Z</time>
      </trkpt>
      <trkpt lat="44.1031" lon="3.08854">
        <ele>380</ele>
        <time>2014-09-06T07:54:26.738Z</time>
      </trkpt>
      <trkpt lat="44.10311" lon="3.08852">
        <ele>387</ele>
        <time>2014-09-06T07:54:27.790Z</time>
      </trkpt>
      <trkpt lat="44.10312" lon="3.08863">
        <ele>401</ele>
        <time>2014-09-06T07:56:30.457Z</time>
      </trkpt>
      <trkpt lat="44.10314" lon="3.08867">
        <ele>404</ele>
        <time>2014-09-06T07:56:31.488Z</time>
      </trkpt>
      <trkpt lat="44.10313" lon="3.08878">
        <ele>403</ele>
        <time>2014-09-06T07:56:35.456Z</time>
      </trkpt>
      <trkpt lat="44.10312" lon="3.0888">
        <ele>401</ele>
        <time>2014-09-06T07:56:36.460Z</time>
      </trkpt>
      <trkpt lat="44.10308" lon="3.08891">
        <ele>399</ele>
        <time>2014-09-06T07:56:43.445Z</time>
      </trkpt>
      <trkpt lat="44.10308" lon="3.08892">
        <ele>400</ele>
        <time>2014-09-06T07:56:44.438Z</time>
      </trkpt>
      <trkpt lat="44.10308" lon="3.08903">
        <ele>399</ele>
        <time>2014-09-06T07:56:52.477Z</time>
      </trkpt>
      <trkpt lat="44.10307" lon="3.08905">
        <ele>395</ele>
        <time>2014-09-06T07:56:53.515Z</time>
      </trkpt>
      <trkpt lat="44.10305" lon="3.08916">
        <ele>400</ele>
        <time>2014-09-06T07:56:57.474Z</time>
      </trkpt>
      <trkpt lat="44.10305" lon="3.08918">
        <ele>402</ele>
        <time>2014-09-06T07:56:58.491Z</time>
      </trkpt>
      <trkpt lat="44.10311" lon="3.08927">
        <ele>404</ele>
        <time>2014-09-06T07:57:05.473Z</time>
      </trkpt>
      <trkpt lat="44.10312" lon="3.0893">
        <ele>406</ele>
        <time>2014-09-06T07:57:06.497Z</time>
      </trkpt>
      <trkpt lat="44.10314" lon="3.08941">
        <ele>408</ele>
        <time>2014-09-06T07:57:11.437Z</time>
      </trkpt>
      <trkpt lat="44.10315" lon="3.08943">
        <ele>411</ele>
        <time>2014-09-06T07:57:12.492Z</time>
      </trkpt>
      <trkpt lat="44.10316" lon="3.08953">
        <ele>406</ele>
        <time>2014-09-06T07:57:15.480Z</time>
      </trkpt>
      <trkpt lat="44.10316" lon="3.08956">
        <ele>405</ele>
        <time>2014-09-06T07:57:16.452Z</time>
      </trkpt>
      <trkpt lat="44.10318" lon="3.08966">
        <ele>409</ele>
        <time>2014-09-06T07:57:19.479Z</time>
      </trkpt>
      <trkpt lat="44.10318" lon="3.08969">
        <ele>409</ele>
        <time>2014-09-06T07:57:20.454Z</time>
      </trkpt>
      <trkpt lat="44.10319" lon="3.08981">
        <ele>406</ele>
        <time>2014-09-06T07:57:25.522Z</time>
      </trkpt>
      <trkpt lat="44.1032" lon="3.08983">
        <ele>406</ele>
        <time>2014-09-06T07:57:26.530Z</time>
      </trkpt>
      <trkpt lat="44.1032" lon="3.08993">
        <ele>402</ele>
        <time>2014-09-06T07:57:29.473Z</time>
      </trkpt>
      <trkpt lat="44.1032" lon="3.08997">
        <ele>402</ele>
        <time>2014-09-06T07:57:30.473Z</time>
      </trkpt>
      <trkpt lat="44.10319" lon="3.09007">
        <ele>403</ele>
        <time>2014-09-06T07:57:32.458Z</time>
      </trkpt>
      <trkpt lat="44.10319" lon="3.09012">
        <ele>402</ele>
        <time>2014-09-06T07:57:33.483Z</time>
      </trkpt>
      <trkpt lat="44.10318" lon="3.09021">
        <ele>400</ele>
        <time>2014-09-06T07:57:35.465Z</time>
      </trkpt>
      <trkpt lat="44.10317" lon="3.09025">
        <ele>401</ele>
        <time>2014-09-06T07:57:36.480Z</time>
      </trkpt>
      <trkpt lat="44.10315" lon="3.09035">
        <ele>399</ele>
        <time>2014-09-06T07:57:39.469Z</time>
      </trkpt>
      <trkpt lat="44.10314" lon="3.09038">
        <ele>400</ele>
        <time>2014-09-06T07:57:40.451Z</time>
      </trkpt>
      <trkpt lat="44.10312" lon="3.09047">
        <ele>396</ele>
        <time>2014-09-06T07:57:43.220Z</time>
      </trkpt>
      <trkpt lat="44.10311" lon="3.0905">
        <ele>398</ele>
        <time>2014-09-06T07:57:44.239Z</time>
      </trkpt>
      <trkpt lat="44.10307" lon="3.0906">
        <ele>404</ele>
        <time>2014-09-06T07:57:49.229Z</time>
      </trkpt>
      <trkpt lat="44.10306" lon="3.09062">
        <ele>404</ele>
        <time>2014-09-06T07:57:50.451Z</time>
      </trkpt>
      <trkpt lat="44.103" lon="3.0907">
        <ele>404</ele>
        <time>2014-09-06T07:57:54.250Z</time>
      </trkpt>
      <trkpt lat="44.10299" lon="3.09073">
        <ele>404</ele>
        <time>2014-09-06T07:57:55.380Z</time>
      </trkpt>
      <trkpt lat="44.10294" lon="3.0908">
        <ele>403</ele>
        <time>2014-09-06T07:57:58.215Z</time>
      </trkpt>
      <trkpt lat="44.10292" lon="3.09083">
        <ele>401</ele>
        <time>2014-09-06T07:57:59.214Z</time>
      </trkpt>
      <trkpt lat="44.10289" lon="3.09089">
        <ele>401</ele>
        <time>2014-09-06T07:58:01.248Z</time>
      </trkpt>
      <trkpt lat="44.10287" lon="3.09093">
        <ele>403</ele>
        <time>2014-09-06T07:58:02.251Z</time>
      </trkpt>
      <trkpt lat="44.10283" lon="3.09103">
        <ele>402</ele>
        <time>2014-09-06T07:58:04.257Z</time>
      </trkpt>
      <trkpt lat="44.10281" lon="3.09108">
        <ele>402</ele>
        <time>2014-09-06T07:58:05.241Z</time>
      </trkpt>
      <trkpt lat="44.10276" lon="3.09116">
        <ele>402</ele>
        <time>2014-09-06T07:58:09.253Z</time>
      </trkpt>
      <trkpt lat="44.10276" lon="3.09118">
        <ele>401</ele>
        <time>2014-09-06T07:58:10.310Z</time>
      </trkpt>
      <trkpt lat="44.10273" lon="3.0913">
        <ele>400</ele>
        <time>2014-09-06T07:58:15.256Z</time>
      </trkpt>
      <trkpt lat="44.10272" lon="3.09133">
        <ele>403</ele>
        <time>2014-09-06T07:58:16.255Z</time>
      </trkpt>
      <trkpt lat="44.10268" lon="3.09144">
        <ele>405</ele>
        <time>2014-09-06T07:58:20.250Z</time>
      </trkpt>
      <trkpt lat="44.10266" lon="3.09147">
        <ele>406</ele>
        <time>2014-09-06T07:58:21.256Z</time>
      </trkpt>
      <trkpt lat="44.10262" lon="3.09156">
        <ele>404</ele>
        <time>2014-09-06T07:58:24.254Z</time>
      </trkpt>
      <trkpt lat="44.10261" lon="3.0916">
        <ele>401</ele>
        <time>2014-09-06T07:58:25.253Z</time>
      </trkpt>
      <trkpt lat="44.10258" lon="3.0917">
        <ele>405</ele>
        <time>2014-09-06T07:58:28.250Z</time>
      </trkpt>
      <trkpt lat="44.10258" lon="3.09174">
        <ele>405</ele>
        <time>2014-09-06T07:58:29.256Z</time>
      </trkpt>
      <trkpt lat="44.10255" lon="3.09185">
        <ele>408</ele>
        <time>2014-09-06T07:58:34.227Z</time>
      </trkpt>
      <trkpt lat="44.10253" lon="3.09188">
        <ele>408</ele>
        <time>2014-09-06T07:58:35.250Z</time>
      </trkpt>
      <trkpt lat="44.10248" lon="3.09194">
        <ele>408</ele>
        <time>2014-09-06T07:58:38.259Z</time>
      </trkpt>
      <trkpt lat="44.10245" lon="3.09196">
        <ele>406</ele>
        <time>2014-09-06T07:58:39.257Z</time>
      </trkpt>
      <trkpt lat="44.10238" lon="3.09202">
        <ele>406</ele>
        <time>2014-09-06T07:58:42.231Z</time>
      </trkpt>
      <trkpt lat="44.10236" lon="3.09204">
        <ele>406</ele>
        <time>2014-09-06T07:58:43.256Z</time>
      </trkpt>
      <trkpt lat="44.10229" lon="3.0921">
        <ele>407</ele>
        <time>2014-09-06T07:58:47.259Z</time>
      </trkpt>
      <trkpt lat="44.10227" lon="3.09212">
        <ele>408</ele>
        <time>2014-09-06T07:58:48.250Z</time>
      </trkpt>
      <trkpt lat="44.10221" lon="3.09222">
        <ele>410</ele>
        <time>2014-09-06T07:58:52.651Z</time>
      </trkpt>
      <trkpt lat="44.1022" lon="3.09225">
        <ele>411</ele>
        <time>2014-09-06T07:58:53.337Z</time>
      </trkpt>
      <trkpt lat="44.10215" lon="3.09233">
        <ele>413</ele>
        <time>2014-09-06T07:58:56.327Z</time>
      </trkpt>
      <trkpt lat="44.10214" lon="3.09235">
        <ele>414</ele>
        <time>2014-09-06T07:58:57.288Z</time>
      </trkpt>
      <trkpt lat="44.10208" lon="3.09245">
        <ele>418</ele>
        <time>2014-09-06T07:59:03.241Z</time>
      </trkpt>
      <trkpt lat="44.10207" lon="3.09246">
        <ele>418</ele>
        <time>2014-09-06T07:59:04.266Z</time>
      </trkpt>
      <trkpt lat="44.10206" lon="3.09257">
        <ele>420</ele>
        <time>2014-09-06T07:59:08.249Z</time>
      </trkpt>
      <trkpt lat="44.10206" lon="3.0926">
        <ele>420</ele>
        <time>2014-09-06T07:59:09.278Z</time>
      </trkpt>
      <trkpt lat="44.10205" lon="3.0927">
        <ele>425</ele>
        <time>2014-09-06T07:59:13.255Z</time>
      </trkpt>
      <trkpt lat="44.10204" lon="3.09274">
        <ele>425</ele>
        <time>2014-09-06T07:59:14.249Z</time>
      </trkpt>
      <trkpt lat="44.102" lon="3.09284">
        <ele>421</ele>
        <time>2014-09-06T07:59:17.251Z</time>
      </trkpt>
      <trkpt lat="44.10199" lon="3.09288">
        <ele>420</ele>
        <time>2014-09-06T07:59:18.244Z</time>
      </trkpt>
      <trkpt lat="44.10196" lon="3.09296">
        <ele>418</ele>
        <time>2014-09-06T07:59:20.252Z</time>
      </trkpt>
      <trkpt lat="44.10194" lon="3.093">
        <ele>417</ele>
        <time>2014-09-06T07:59:21.256Z</time>
      </trkpt>
      <trkpt lat="44.10191" lon="3.09307">
        <ele>418</ele>
        <time>2014-09-06T07:59:23.251Z</time>
      </trkpt>
      <trkpt lat="44.10189" lon="3.0931">
        <ele>418</ele>
        <time>2014-09-06T07:59:24.251Z</time>
      </trkpt>
      <trkpt lat="44.10184" lon="3.09317">
        <ele>419</ele>
        <time>2014-09-06T07:59:27.256Z</time>
      </trkpt>
      <trkpt lat="44.10183" lon="3.0932">
        <ele>419</ele>
        <time>2014-09-06T07:59:28.255Z</time>
      </trkpt>
      <trkpt lat="44.10179" lon="3.09329">
        <ele>421</ele>
        <time>2014-09-06T07:59:32.446Z</time>
      </trkpt>
      <trkpt lat="44.10179" lon="3.09331">
        <ele>423</ele>
        <time>2014-09-06T07:59:33.246Z</time>
      </trkpt>
      <trkpt lat="44.10171" lon="3.09336">
        <ele>420</ele>
        <time>2014-09-06T07:59:36.652Z</time>
      </trkpt>
      <trkpt lat="44.10169" lon="3.09338">
        <ele>422</ele>
        <time>2014-09-06T07:59:37.253Z</time>
      </trkpt>
      <trkpt lat="44.10162" lon="3.09346">
        <ele>424</ele>
        <time>2014-09-06T07:59:41.377Z</time>
      </trkpt>
      <trkpt lat="44.10161" lon="3.09348">
        <ele>424</ele>
        <time>2014-09-06T07:59:42.250Z</time>
      </trkpt>
      <trkpt lat="44.10157" lon="3.09357">
        <ele>425</ele>
        <time>2014-09-06T07:59:47.408Z</time>
      </trkpt>
      <trkpt lat="44.10156" lon="3.09359">
        <ele>424</ele>
        <time>2014-09-06T07:59:48.252Z</time>
      </trkpt>
      <trkpt lat="44.10154" lon="3.09369">
        <ele>421</ele>
        <time>2014-09-06T07:59:51.251Z</time>
      </trkpt>
      <trkpt lat="44.10154" lon="3.09372">
        <ele>421</ele>
        <time>2014-09-06T07:59:52.257Z</time>
      </trkpt>
      <trkpt lat="44.10153" lon="3.09382">
        <ele>424</ele>
        <time>2014-09-06T07:59:55.257Z</time>
      </trkpt>
      <trkpt lat="44.10152" lon="3.09386">
        <ele>426</ele>
        <time>2014-09-06T07:59:56.244Z</time>
      </trkpt>
      <trkpt lat="44.10149" lon="3.09394">
        <ele>424</ele>
        <time>2014-09-06T07:59:58.244Z</time>
      </trkpt>
      <trkpt lat="44.10148" lon="3.09398">
        <ele>423</ele>
        <time>2014-09-06T07:59:59.252Z</time>
      </trkpt>
      <trkpt lat="44.10144" lon="3.09408">
        <ele>423</ele>
        <time>2014-09-06T08:00:02.232Z</time>
      </trkpt>
      <trkpt lat="44.10144" lon="3.0941">
        <ele>423</ele>
        <time>2014-09-06T08:00:03.236Z</time>
      </trkpt>
      <trkpt lat="44.10141" lon="3.0942">
        <ele>425</ele>
        <time>2014-09-06T08:00:07.247Z</time>
      </trkpt>
      <trkpt lat="44.10141" lon="3.09423">
        <ele>424</ele>
        <time>2014-09-06T08:00:08.261Z</time>
      </trkpt>
      <trkpt lat="44.10139" lon="3.09434">
        <ele>421</ele>
        <time>2014-09-06T08:00:11.250Z</time>
      </trkpt>
      <trkpt lat="44.10139" lon="3.09439">
        <ele>418</ele>
        <time>2014-09-06T08:00:12.251Z</time>
      </trkpt>
      <trkpt lat="44.10138" lon="3.09446">
        <ele>416</ele>
        <time>2014-09-06T08:00:13.359Z</time>
      </trkpt>
      <trkpt lat="44.10137" lon="3.09453">
        <ele>416</ele>
        <time>2014-09-06T08:00:14.249Z</time>
      </trkpt>
      <trkpt lat="44.10135" lon="3.0946">
        <ele>414</ele>
        <time>2014-09-06T08:00:15.257Z</time>
      </trkpt>
      <trkpt lat="44.10132" lon="3.09465">
        <ele>414</ele>
        <time>2014-09-06T08:00:16.255Z</time>
      </trkpt>
      <trkpt lat="44.10127" lon="3.09475">
        <ele>417</ele>
        <time>2014-09-06T08:00:20.256Z</time>
      </trkpt>
      <trkpt lat="44.10126" lon="3.09477">
        <ele>419</ele>
        <time>2014-09-06T08:00:21.250Z</time>
      </trkpt>
      <trkpt lat="44.10122" lon="3.09484">
        <ele>417</ele>
        <time>2014-09-06T08:00:23.256Z</time>
      </trkpt>
      <trkpt lat="44.1012" lon="3.09487">
        <ele>417</ele>
        <time>2014-09-06T08:00:24.297Z</time>
      </trkpt>
      <trkpt lat="44.10116" lon="3.09497">
        <ele>417</ele>
        <time>2014-09-06T08:00:28.257Z</time>
      </trkpt>
      <trkpt lat="44.10115" lon="3.095">
        <ele>414</ele>
        <time>2014-09-06T08:00:29.251Z</time>
      </trkpt>
      <trkpt lat="44.10112" lon="3.0951">
        <ele>414</ele>
        <time>2014-09-06T08:00:32.248Z</time>
      </trkpt>
      <trkpt lat="44.10111" lon="3.09513">
        <ele>414</ele>
        <time>2014-09-06T08:00:33.248Z</time>
      </trkpt>
      <trkpt lat="44.10107" lon="3.09521">
        <ele>419</ele>
        <time>2014-09-06T08:00:36.239Z</time>
      </trkpt>
      <trkpt lat="44.10106" lon="3.09524">
        <ele>418</ele>
        <time>2014-09-06T08:00:37.243Z</time>
      </trkpt>
      <trkpt lat="44.10102" lon="3.09532">
        <ele>417</ele>
        <time>2014-09-06T08:00:40.252Z</time>
      </trkpt>
      <trkpt lat="44.101" lon="3.09536">
        <ele>415</ele>
        <time>2014-09-06T08:00:41.253Z</time>
      </trkpt>
      <trkpt lat="44.10096" lon="3.09546">
        <ele>415</ele>
        <time>2014-09-06T08:00:44.255Z</time>
      </trkpt>
      <trkpt lat="44.10094" lon="3.0955">
        <ele>414</ele>
        <time>2014-09-06T08:00:45.256Z</time>
      </trkpt>
      <trkpt lat="44.10092" lon="3.0956">
        <ele>418</ele>
        <time>2014-09-06T08:00:48.257Z</time>
      </trkpt>
      <trkpt lat="44.10091" lon="3.09563">
        <ele>417</ele>
        <time>2014-09-06T08:00:49.254Z</time>
      </trkpt>
      <trkpt lat="44.10089" lon="3.09572">
        <ele>419</ele>
        <time>2014-09-06T08:00:52.259Z</time>
      </trkpt>
      <trkpt lat="44.10089" lon="3.09576">
        <ele>418</ele>
        <time>2014-09-06T08:00:53.253Z</time>
      </trkpt>
      <trkpt lat="44.10086" lon="3.09586">
        <ele>418</ele>
        <time>2014-09-06T08:00:56.248Z</time>
      </trkpt>
      <trkpt lat="44.10085" lon="3.09588">
        <ele>420</ele>
        <time>2014-09-06T08:00:57.259Z</time>
      </trkpt>
      <trkpt lat="44.10081" lon="3.09598">
        <ele>422</ele>
        <time>2014-09-06T08:01:01.256Z</time>
      </trkpt>
      <trkpt lat="44.1008" lon="3.096">
        <ele>421</ele>
        <time>2014-09-06T08:01:02.229Z</time>
      </trkpt>
      <trkpt lat="44.10077" lon="3.09609">
        <ele>420</ele>
        <time>2014-09-06T08:01:05.290Z</time>
      </trkpt>
      <trkpt lat="44.10075" lon="3.09612">
        <ele>418</ele>
        <time>2014-09-06T08:01:06.232Z</time>
      </trkpt>
      <trkpt lat="44.10071" lon="3.09623">
        <ele>418</ele>
        <time>2014-09-06T08:01:09.244Z</time>
      </trkpt>
      <trkpt lat="44.1007" lon="3.09626">
        <ele>418</ele>
        <time>2014-09-06T08:01:10.252Z</time>
      </trkpt>
      <trkpt lat="44.10068" lon="3.09634">
        <ele>417</ele>
        <time>2014-09-06T08:01:12.281Z</time>
      </trkpt>
      <trkpt lat="44.10066" lon="3.09638">
        <ele>417</ele>
        <time>2014-09-06T08:01:13.286Z</time>
      </trkpt>
      <trkpt lat="44.10064" lon="3.09647">
        <ele>417</ele>
        <time>2014-09-06T08:01:15.254Z</time>
      </trkpt>
      <trkpt lat="44.10062" lon="3.09651">
        <ele>416</ele>
        <time>2014-09-06T08:01:16.256Z</time>
      </trkpt>
      <trkpt lat="44.10056" lon="3.09657">
        <ele>413</ele>
        <time>2014-09-06T08:01:18.230Z</time>
      </trkpt>
      <trkpt lat="44.10053" lon="3.09661">
        <ele>413</ele>
        <time>2014-09-06T08:01:19.240Z</time>
      </trkpt>
      <trkpt lat="44.10048" lon="3.09667">
        <ele>411</ele>
        <time>2014-09-06T08:01:21.279Z</time>
      </trkpt>
      <trkpt lat="44.10047" lon="3.09671">
        <ele>411</ele>
        <time>2014-09-06T08:01:22.239Z</time>
      </trkpt>
      <trkpt lat="44.10045" lon="3.09682">
        <ele>413</ele>
        <time>2014-09-06T08:01:25.282Z</time>
      </trkpt>
      <trkpt lat="44.10045" lon="3.09685">
        <ele>414</ele>
        <time>2014-09-06T08:01:26.230Z</time>
      </trkpt>
      <trkpt lat="44.10043" lon="3.09696">
        <ele>414</ele>
        <time>2014-09-06T08:01:29.236Z</time>
      </trkpt>
      <trkpt lat="44.10042" lon="3.097">
        <ele>415</ele>
        <time>2014-09-06T08:01:30.250Z</time>
      </trkpt>
      <trkpt lat="44.10038" lon="3.0971">
        <ele>416</ele>
        <time>2014-09-06T08:01:33.286Z</time>
      </trkpt>
      <trkpt lat="44.10036" lon="3.09713">
        <ele>416</ele>
        <time>2014-09-06T08:01:34.255Z</time>
      </trkpt>
      <trkpt lat="44.10033" lon="3.09723">
        <ele>416</ele>
        <time>2014-09-06T08:01:37.357Z</time>
      </trkpt>
      <trkpt lat="44.10033" lon="3.09727">
        <ele>417</ele>
        <time>2014-09-06T08:01:38.252Z</time>
      </trkpt>
      <trkpt lat="44.10031" lon="3.09738">
        <ele>415</ele>
        <time>2014-09-06T08:01:41.286Z</time>
      </trkpt>
      <trkpt lat="44.10031" lon="3.09742">
        <ele>416</ele>
        <time>2014-09-06T08:01:42.231Z</time>
      </trkpt>
      <trkpt lat="44.10029" lon="3.09752">
        <ele>418</ele>
        <time>2014-09-06T08:01:45.252Z</time>
      </trkpt>
      <trkpt lat="44.10029" lon="3.09755">
        <ele>418</ele>
        <time>2014-09-06T08:01:46.258Z</time>
      </trkpt>
      <trkpt lat="44.10024" lon="3.09765">
        <ele>421</ele>
        <time>2014-09-06T08:01:50.229Z</time>
      </trkpt>
      <trkpt lat="44.10024" lon="3.09766">
        <ele>422</ele>
        <time>2014-09-06T08:01:51.241Z</time>
      </trkpt>
      <trkpt lat="44.10021" lon="3.09775">
        <ele>423</ele>
        <time>2014-09-06T08:01:55.256Z</time>
      </trkpt>
      <trkpt lat="44.1002" lon="3.09778">
        <ele>423</ele>
        <time>2014-09-06T08:01:56.254Z</time>
      </trkpt>
      <trkpt lat="44.10016" lon="3.09789">
        <ele>425</ele>
        <time>2014-09-06T08:02:01.251Z</time>
      </trkpt>
      <trkpt lat="44.10016" lon="3.09791">
        <ele>426</ele>
        <time>2014-09-06T08:02:02.228Z</time>
      </trkpt>
      <trkpt lat="44.1001" lon="3.09798">
        <ele>427</ele>
        <time>2014-09-06T08:02:06.224Z</time>
      </trkpt>
      <trkpt lat="44.10008" lon="3.098">
        <ele>426</ele>
        <time>2014-09-06T08:02:07.236Z</time>
      </trkpt>
      <trkpt lat="44.10003" lon="3.09809">
        <ele>423</ele>
        <time>2014-09-06T08:02:11.254Z</time>
      </trkpt>
      <trkpt lat="44.10001" lon="3.09812">
        <ele>425</ele>
        <time>2014-09-06T08:02:12.251Z</time>
      </trkpt>
      <trkpt lat="44.09996" lon="3.09822">
        <ele>421</ele>
        <time>2014-09-06T08:02:15.277Z</time>
      </trkpt>
      <trkpt lat="44.09995" lon="3.09826">
        <ele>420</ele>
        <time>2014-09-06T08:02:16.248Z</time>
      </trkpt>
      <trkpt lat="44.09994" lon="3.09836">
        <ele>424</ele>
        <time>2014-09-06T08:02:19.255Z</time>
      </trkpt>
      <trkpt lat="44.09994" lon="3.0984">
        <ele>426</ele>
        <time>2014-09-06T08:02:20.257Z</time>
      </trkpt>
      <trkpt lat="44.09994" lon="3.0985">
        <ele>427</ele>
        <time>2014-09-06T08:02:23.252Z</time>
      </trkpt>
      <trkpt lat="44.09994" lon="3.09854">
        <ele>429</ele>
        <time>2014-09-06T08:02:24.254Z</time>
      </trkpt>
      <trkpt lat="44.09996" lon="3.09865">
        <ele>431</ele>
        <time>2014-09-06T08:02:28.241Z</time>
      </trkpt>
      <trkpt lat="44.09995" lon="3.09868">
        <ele>431</ele>
        <time>2014-09-06T08:02:29.469Z</time>
      </trkpt>
      <trkpt lat="44.09995" lon="3.09879">
        <ele>434</ele>
        <time>2014-09-06T08:02:33.408Z</time>
      </trkpt>
      <trkpt lat="44.09994" lon="3.09882">
        <ele>436</ele>
        <time>2014-09-06T08:02:34.222Z</time>
      </trkpt>
      <trkpt lat="44.09992" lon="3.09894">
        <ele>435</ele>
        <time>2014-09-06T08:02:37.247Z</time>
      </trkpt>
      <trkpt lat="44.09992" lon="3.09899">
        <ele>435</ele>
        <time>2014-09-06T08:02:38.260Z</time>
      </trkpt>
      <trkpt lat="44.0999" lon="3.09908">
        <ele>436</ele>
        <time>2014-09-06T08:02:40.243Z</time>
      </trkpt>
      <trkpt lat="44.0999" lon="3.09911">
        <ele>437</ele>
        <time>2014-09-06T08:02:41.367Z</time>
      </trkpt>
      <trkpt lat="44.0999" lon="3.09923">
        <ele>438</ele>
        <time>2014-09-06T08:02:44.252Z</time>
      </trkpt>
      <trkpt lat="44.0999" lon="3.09926">
        <ele>437</ele>
        <time>2014-09-06T08:02:45.251Z</time>
      </trkpt>
      <trkpt lat="44.09988" lon="3.09937">
        <ele>436</ele>
        <time>2014-09-06T08:02:48.243Z</time>
      </trkpt>
      <trkpt lat="44.09988" lon="3.09941">
        <ele>436</ele>
        <time>2014-09-06T08:02:49.263Z</time>
      </trkpt>
      <trkpt lat="44.09987" lon="3.09949">
        <ele>436</ele>
        <time>2014-09-06T08:02:51.252Z</time>
      </trkpt>
      <trkpt lat="44.09986" lon="3.09955">
        <ele>434</ele>
        <time>2014-09-06T08:02:52.254Z</time>
      </trkpt>
      <trkpt lat="44.09985" lon="3.09964">
        <ele>433</ele>
        <time>2014-09-06T08:02:54.242Z</time>
      </trkpt>
      <trkpt lat="44.09985" lon="3.09969">
        <ele>430</ele>
        <time>2014-09-06T08:02:55.262Z</time>
      </trkpt>
      <trkpt lat="44.09984" lon="3.09979">
        <ele>431</ele>
        <time>2014-09-06T08:02:57.229Z</time>
      </trkpt>
      <trkpt lat="44.09984" lon="3.09984">
        <ele>432</ele>
        <time>2014-09-06T08:02:58.255Z</time>
      </trkpt>
      <trkpt lat="44.09983" lon="3.09992">
        <ele>430</ele>
        <time>2014-09-06T08:03:00.295Z</time>
      </trkpt>
      <trkpt lat="44.09983" lon="3.09996">
        <ele>429</ele>
        <time>2014-09-06T08:03:01.242Z</time>
      </trkpt>
      <trkpt lat="44.09983" lon="3.10005">
        <ele>429</ele>
        <time>2014-09-06T08:03:03.251Z</time>
      </trkpt>
      <trkpt lat="44.09983" lon="3.1001">
        <ele>430</ele>
        <time>2014-09-06T08:03:04.315Z</time>
      </trkpt>
      <trkpt lat="44.09984" lon="3.1002">
        <ele>430</ele>
        <time>2014-09-06T08:03:07.230Z</time>
      </trkpt>
      <trkpt lat="44.09984" lon="3.10023">
        <ele>430</ele>
        <time>2014-09-06T08:03:08.464Z</time>
      </trkpt>
      <trkpt lat="44.09982" lon="3.10033">
        <ele>429</ele>
        <time>2014-09-06T08:03:11.253Z</time>
      </trkpt>
      <trkpt lat="44.09982" lon="3.10037">
        <ele>428</ele>
        <time>2014-09-06T08:03:12.254Z</time>
      </trkpt>
      <trkpt lat="44.09981" lon="3.10047">
        <ele>428</ele>
        <time>2014-09-06T08:03:15.279Z</time>
      </trkpt>
      <trkpt lat="44.09982" lon="3.1005">
        <ele>430</ele>
        <time>2014-09-06T08:03:16.246Z</time>
      </trkpt>
      <trkpt lat="44.09983" lon="3.10061">
        <ele>429</ele>
        <time>2014-09-06T08:03:19.257Z</time>
      </trkpt>
      <trkpt lat="44.09983" lon="3.10064">
        <ele>429</ele>
        <time>2014-09-06T08:03:20.244Z</time>
      </trkpt>
      <trkpt lat="44.09984" lon="3.10075">
        <ele>424</ele>
        <time>2014-09-06T08:03:23.244Z</time>
      </trkpt>
      <trkpt lat="44.09984" lon="3.10078">
        <ele>426</ele>
        <time>2014-09-06T08:03:24.254Z</time>
      </trkpt>
      <trkpt lat="44.09986" lon="3.10088">
        <ele>427</ele>
        <time>2014-09-06T08:03:27.255Z</time>
      </trkpt>
      <trkpt lat="44.09987" lon="3.10091">
        <ele>425</ele>
        <time>2014-09-06T08:03:28.257Z</time>
      </trkpt>
      <trkpt lat="44.09989" lon="3.10101">
        <ele>427</ele>
        <time>2014-09-06T08:03:32.254Z</time>
      </trkpt>
      <trkpt lat="44.09989" lon="3.10106">
        <ele>427</ele>
        <time>2014-09-06T08:03:33.230Z</time>
      </trkpt>
      <trkpt lat="44.0999" lon="3.10118">
        <ele>427</ele>
        <time>2014-09-06T08:03:36.251Z</time>
      </trkpt>
      <trkpt lat="44.09991" lon="3.10122">
        <ele>427</ele>
        <time>2014-09-06T08:03:37.253Z</time>
      </trkpt>
      <trkpt lat="44.09992" lon="3.10133">
        <ele>426</ele>
        <time>2014-09-06T08:03:40.257Z</time>
      </trkpt>
      <trkpt lat="44.09993" lon="3.10136">
        <ele>426</ele>
        <time>2014-09-06T08:03:41.256Z</time>
      </trkpt>
      <trkpt lat="44.09995" lon="3.10146">
        <ele>429</ele>
        <time>2014-09-06T08:03:44.256Z</time>
      </trkpt>
      <trkpt lat="44.09996" lon="3.10149">
        <ele>429</ele>
        <time>2014-09-06T08:03:45.251Z</time>
      </trkpt>
      <trkpt lat="44.09998" lon="3.10161">
        <ele>427</ele>
        <time>2014-09-06T08:03:48.257Z</time>
      </trkpt>
      <trkpt lat="44.09999" lon="3.10166">
        <ele>429</ele>
        <time>2014-09-06T08:03:49.234Z</time>
      </trkpt>
      <trkpt lat="44.1" lon="3.10175">
        <ele>428</ele>
        <time>2014-09-06T08:03:51.236Z</time>
      </trkpt>
      <trkpt lat="44.10001" lon="3.1018">
        <ele>428</ele>
        <time>2014-09-06T08:03:52.255Z</time>
      </trkpt>
      <trkpt lat="44.10003" lon="3.1019">
        <ele>428</ele>
        <time>2014-09-06T08:03:55.258Z</time>
      </trkpt>
      <trkpt lat="44.10004" lon="3.10193">
        <ele>428</ele>
        <time>2014-09-06T08:03:56.249Z</time>
      </trkpt>
      <trkpt lat="44.10005" lon="3.10204">
        <ele>425</ele>
        <time>2014-09-06T08:03:59.244Z</time>
      </trkpt>
      <trkpt lat="44.10006" lon="3.10209">
        <ele>425</ele>
        <time>2014-09-06T08:04:00.256Z</time>
      </trkpt>
      <trkpt lat="44.10007" lon="3.1022">
        <ele>427</ele>
        <time>2014-09-06T08:04:02.298Z</time>
      </trkpt>
      <trkpt lat="44.10008" lon="3.10225">
        <ele>427</ele>
        <time>2014-09-06T08:04:03.226Z</time>
      </trkpt>
      <trkpt lat="44.1001" lon="3.10235">
        <ele>426</ele>
        <time>2014-09-06T08:04:06.255Z</time>
      </trkpt>
      <trkpt lat="44.10009" lon="3.1024">
        <ele>424</ele>
        <time>2014-09-06T08:04:07.250Z</time>
      </trkpt>
      <trkpt lat="44.10012" lon="3.10251">
        <ele>422</ele>
        <time>2014-09-06T08:04:09.256Z</time>
      </trkpt>
      <trkpt lat="44.10013" lon="3.10255">
        <ele>422</ele>
        <time>2014-09-06T08:04:10.252Z</time>
      </trkpt>
      <trkpt lat="44.10016" lon="3.10267">
        <ele>421</ele>
        <time>2014-09-06T08:04:13.227Z</time>
      </trkpt>
      <trkpt lat="44.10017" lon="3.10268">
        <ele>422</ele>
        <time>2014-09-06T08:04:14.259Z</time>
      </trkpt>
      <trkpt lat="44.10017" lon="3.1028">
        <ele>421</ele>
        <time>2014-09-06T08:04:19.248Z</time>
      </trkpt>
      <trkpt lat="44.10018" lon="3.10282">
        <ele>421</ele>
        <time>2014-09-06T08:04:20.249Z</time>
      </trkpt>
      <trkpt lat="44.10021" lon="3.10292">
        <ele>423</ele>
        <time>2014-09-06T08:04:24.255Z</time>
      </trkpt>
      <trkpt lat="44.10023" lon="3.10294">
        <ele>423</ele>
        <time>2014-09-06T08:04:25.253Z</time>
      </trkpt>
      <trkpt lat="44.10027" lon="3.10301">
        <ele>419</ele>
        <time>2014-09-06T08:04:30.232Z</time>
      </trkpt>
      <trkpt lat="44.10028" lon="3.10304">
        <ele>420</ele>
        <time>2014-09-06T08:04:31.307Z</time>
      </trkpt>
      <trkpt lat="44.10029" lon="3.10315">
        <ele>418</ele>
        <time>2014-09-06T08:04:34.251Z</time>
      </trkpt>
      <trkpt lat="44.1003" lon="3.10319">
        <ele>418</ele>
        <time>2014-09-06T08:04:35.247Z</time>
      </trkpt>
      <trkpt lat="44.10033" lon="3.10327">
        <ele>422</ele>
        <time>2014-09-06T08:04:38.257Z</time>
      </trkpt>
      <trkpt lat="44.10034" lon="3.10331">
        <ele>420</ele>
        <time>2014-09-06T08:04:39.247Z</time>
      </trkpt>
      <trkpt lat="44.10038" lon="3.10339">
        <ele>420</ele>
        <time>2014-09-06T08:04:42.252Z</time>
      </trkpt>
      <trkpt lat="44.1004" lon="3.10343">
        <ele>424</ele>
        <time>2014-09-06T08:04:43.242Z</time>
      </trkpt>
      <trkpt lat="44.10041" lon="3.10348">
        <ele>425</ele>
        <time>2014-09-06T08:04:44.539Z</time>
      </trkpt>
      <trkpt lat="44.10043" lon="3.10357">
        <ele>423</ele>
        <time>2014-09-06T08:04:45.249Z</time>
      </trkpt>
      <trkpt lat="44.10045" lon="3.10364">
        <ele>424</ele>
        <time>2014-09-06T08:04:46.234Z</time>
      </trkpt>
      <trkpt lat="44.10046" lon="3.10371">
        <ele>426</ele>
        <time>2014-09-06T08:04:47.252Z</time>
      </trkpt>
      <trkpt lat="44.10048" lon="3.10379">
        <ele>427</ele>
        <time>2014-09-06T08:04:49.255Z</time>
      </trkpt>
      <trkpt lat="44.10049" lon="3.10384">
        <ele>429</ele>
        <time>2014-09-06T08:04:50.254Z</time>
      </trkpt>
      <trkpt lat="44.1005" lon="3.10397">
        <ele>432</ele>
        <time>2014-09-06T08:04:52.308Z</time>
      </trkpt>
      <trkpt lat="44.1005" lon="3.10404">
        <ele>431</ele>
        <time>2014-09-06T08:04:53.253Z</time>
      </trkpt>
      <trkpt lat="44.10051" lon="3.10413">
        <ele>428</ele>
        <time>2014-09-06T08:04:55.256Z</time>
      </trkpt>
      <trkpt lat="44.10052" lon="3.10417">
        <ele>427</ele>
        <time>2014-09-06T08:04:56.250Z</time>
      </trkpt>
      <trkpt lat="44.10054" lon="3.10428">
        <ele>424</ele>
        <time>2014-09-06T08:05:02.246Z</time>
      </trkpt>
      <trkpt lat="44.10054" lon="3.1043">
        <ele>422</ele>
        <time>2014-09-06T08:05:03.252Z</time>
      </trkpt>
      <trkpt lat="44.1006" lon="3.10438">
        <ele>420</ele>
        <time>2014-09-06T08:05:13.254Z</time>
      </trkpt>
      <trkpt lat="44.10063" lon="3.1044">
        <ele>421</ele>
        <time>2014-09-06T08:05:14.228Z</time>
      </trkpt>
      <trkpt lat="44.10069" lon="3.10445">
        <ele>421</ele>
        <time>2014-09-06T08:05:16.246Z</time>
      </trkpt>
      <trkpt lat="44.10071" lon="3.10448">
        <ele>418</ele>
        <time>2014-09-06T08:05:17.272Z</time>
      </trkpt>
      <trkpt lat="44.10075" lon="3.10456">
        <ele>417</ele>
        <time>2014-09-06T08:05:19.255Z</time>
      </trkpt>
      <trkpt lat="44.10076" lon="3.10459">
        <ele>417</ele>
        <time>2014-09-06T08:05:20.254Z</time>
      </trkpt>
      <trkpt lat="44.10077" lon="3.1047">
        <ele>419</ele>
        <time>2014-09-06T08:05:24.248Z</time>
      </trkpt>
      <trkpt lat="44.10077" lon="3.10474">
        <ele>416</ele>
        <time>2014-09-06T08:05:25.230Z</time>
      </trkpt>
      <trkpt lat="44.10079" lon="3.10485">
        <ele>418</ele>
        <time>2014-09-06T08:05:28.257Z</time>
      </trkpt>
      <trkpt lat="44.1008" lon="3.10489">
        <ele>418</ele>
        <time>2014-09-06T08:05:29.254Z</time>
      </trkpt>
      <trkpt lat="44.10083" lon="3.105">
        <ele>419</ele>
        <time>2014-09-06T08:05:33.231Z</time>
      </trkpt>
      <trkpt lat="44.10084" lon="3.10502">
        <ele>421</ele>
        <time>2014-09-06T08:05:34.247Z</time>
      </trkpt>
      <trkpt lat="44.10087" lon="3.10514">
        <ele>423</ele>
        <time>2014-09-06T08:05:38.252Z</time>
      </trkpt>
      <trkpt lat="44.10088" lon="3.10517">
        <ele>423</ele>
        <time>2014-09-06T08:05:39.256Z</time>
      </trkpt>
      <trkpt lat="44.10089" lon="3.10527">
        <ele>426</ele>
        <time>2014-09-06T08:05:42.263Z</time>
      </trkpt>
      <trkpt lat="44.10089" lon="3.10531">
        <ele>426</ele>
        <time>2014-09-06T08:05:43.234Z</time>
      </trkpt>
      <trkpt lat="44.10091" lon="3.10543">
        <ele>425</ele>
        <time>2014-09-06T08:05:47.250Z</time>
      </trkpt>
      <trkpt lat="44.10091" lon="3.10546">
        <ele>425</ele>
        <time>2014-09-06T08:05:48.357Z</time>
      </trkpt>
      <trkpt lat="44.10093" lon="3.10556">
        <ele>426</ele>
        <time>2014-09-06T08:05:51.235Z</time>
      </trkpt>
      <trkpt lat="44.10094" lon="3.10559">
        <ele>428</ele>
        <time>2014-09-06T08:05:52.280Z</time>
      </trkpt>
      <trkpt lat="44.10094" lon="3.1057">
        <ele>424</ele>
        <time>2014-09-06T08:05:57.247Z</time>
      </trkpt>
      <trkpt lat="44.10094" lon="3.10572">
        <ele>425</ele>
        <time>2014-09-06T08:05:58.231Z</time>
      </trkpt>
      <trkpt lat="44.10096" lon="3.10584">
        <ele>426</ele>
        <time>2014-09-06T08:06:02.247Z</time>
      </trkpt>
      <trkpt lat="44.10096" lon="3.10588">
        <ele>425</ele>
        <time>2014-09-06T08:06:03.268Z</time>
      </trkpt>
      <trkpt lat="44.10096" lon="3.10599">
        <ele>425</ele>
        <time>2014-09-06T08:06:06.256Z</time>
      </trkpt>
      <trkpt lat="44.10097" lon="3.10601">
        <ele>429</ele>
        <time>2014-09-06T08:06:07.257Z</time>
      </trkpt>
      <trkpt lat="44.10098" lon="3.10612">
        <ele>428</ele>
        <time>2014-09-06T08:06:12.250Z</time>
      </trkpt>
      <trkpt lat="44.10099" lon="3.10615">
        <ele>425</ele>
        <time>2014-09-06T08:06:13.255Z</time>
      </trkpt>
      <trkpt lat="44.101" lon="3.10625">
        <ele>425</ele>
        <time>2014-09-06T08:06:16.247Z</time>
      </trkpt>
      <trkpt lat="44.101" lon="3.10629">
        <ele>425</ele>
        <time>2014-09-06T08:06:17.250Z</time>
      </trkpt>
      <trkpt lat="44.10102" lon="3.10639">
        <ele>424</ele>
        <time>2014-09-06T08:06:20.228Z</time>
      </trkpt>
      <trkpt lat="44.10103" lon="3.10642">
        <ele>426</ele>
        <time>2014-09-06T08:06:21.236Z</time>
      </trkpt>
      <trkpt lat="44.10104" lon="3.10653">
        <ele>433</ele>
        <time>2014-09-06T08:06:26.250Z</time>
      </trkpt>
      <trkpt lat="44.10105" lon="3.10655">
        <ele>434</ele>
        <time>2014-09-06T08:06:27.254Z</time>
      </trkpt>
      <trkpt lat="44.10108" lon="3.10664">
        <ele>433</ele>
        <time>2014-09-06T08:06:30.291Z</time>
      </trkpt>
      <trkpt lat="44.10109" lon="3.10667">
        <ele>433</ele>
        <time>2014-09-06T08:06:31.242Z</time>
      </trkpt>
      <trkpt lat="44.10112" lon="3.10676">
        <ele>434</ele>
        <time>2014-09-06T08:06:34.257Z</time>
      </trkpt>
      <trkpt lat="44.10113" lon="3.10679">
        <ele>436</ele>
        <time>2014-09-06T08:06:35.252Z</time>
      </trkpt>
      <trkpt lat="44.10116" lon="3.10687">
        <ele>440</ele>
        <time>2014-09-06T08:06:38.256Z</time>
      </trkpt>
      <trkpt lat="44.10117" lon="3.1069">
        <ele>442</ele>
        <time>2014-09-06T08:06:39.248Z</time>
      </trkpt>
      <trkpt lat="44.10121" lon="3.107">
        <ele>446</ele>
        <time>2014-09-06T08:06:42.251Z</time>
      </trkpt>
      <trkpt lat="44.10122" lon="3.10702">
        <ele>444</ele>
        <time>2014-09-06T08:06:43.254Z</time>
      </trkpt>
      <trkpt lat="44.10126" lon="3.1071">
        <ele>442</ele>
        <time>2014-09-06T08:06:46.252Z</time>
      </trkpt>
      <trkpt lat="44.10127" lon="3.10713">
        <ele>442</ele>
        <time>2014-09-06T08:06:47.257Z</time>
      </trkpt>
      <trkpt lat="44.10133" lon="3.10722">
        <ele>440</ele>
        <time>2014-09-06T08:06:51.254Z</time>
      </trkpt>
      <trkpt lat="44.10134" lon="3.10724">
        <ele>442</ele>
        <time>2014-09-06T08:06:52.456Z</time>
      </trkpt>
      <trkpt lat="44.10136" lon="3.10734">
        <ele>438</ele>
        <time>2014-09-06T08:06:55.246Z</time>
      </trkpt>
      <trkpt lat="44.10137" lon="3.10737">
        <ele>438</ele>
        <time>2014-09-06T08:06:56.333Z</time>
      </trkpt>
      <trkpt lat="44.1014" lon="3.10748">
        <ele>434</ele>
        <time>2014-09-06T08:06:59.258Z</time>
      </trkpt>
      <trkpt lat="44.10141" lon="3.10751">
        <ele>438</ele>
        <time>2014-09-06T08:07:00.244Z</time>
      </trkpt>
      <trkpt lat="44.10143" lon="3.10762">
        <ele>435</ele>
        <time>2014-09-06T08:07:04.263Z</time>
      </trkpt>
      <trkpt lat="44.10143" lon="3.10764">
        <ele>434</ele>
        <time>2014-09-06T08:07:05.257Z</time>
      </trkpt>
      <trkpt lat="44.10142" lon="3.10775">
        <ele>433</ele>
        <time>2014-09-06T08:07:10.256Z</time>
      </trkpt>
      <trkpt lat="44.10142" lon="3.10778">
        <ele>437</ele>
        <time>2014-09-06T08:07:12.017Z</time>
      </trkpt>
      <trkpt lat="44.10142" lon="3.1079">
        <ele>436</ele>
        <time>2014-09-06T08:07:14.256Z</time>
      </trkpt>
      <trkpt lat="44.10142" lon="3.10794">
        <ele>437</ele>
        <time>2014-09-06T08:07:15.237Z</time>
      </trkpt>
      <trkpt lat="44.10141" lon="3.10805">
        <ele>437</ele>
        <time>2014-09-06T08:07:18.251Z</time>
      </trkpt>
      <trkpt lat="44.10141" lon="3.10808">
        <ele>437</ele>
        <time>2014-09-06T08:07:19.247Z</time>
      </trkpt>
      <trkpt lat="44.10141" lon="3.10818">
        <ele>439</ele>
        <time>2014-09-06T08:07:23.251Z</time>
      </trkpt>
      <trkpt lat="44.10141" lon="3.10821">
        <ele>437</ele>
        <time>2014-09-06T08:07:24.238Z</time>
      </trkpt>
      <trkpt lat="44.10139" lon="3.10831">
        <ele>435</ele>
        <time>2014-09-06T08:07:27.256Z</time>
      </trkpt>
      <trkpt lat="44.10137" lon="3.10835">
        <ele>434</ele>
        <time>2014-09-06T08:07:28.252Z</time>
      </trkpt>
      <trkpt lat="44.10132" lon="3.10843">
        <ele>437</ele>
        <time>2014-09-06T08:07:31.264Z</time>
      </trkpt>
      <trkpt lat="44.10131" lon="3.10846">
        <ele>439</ele>
        <time>2014-09-06T08:07:32.259Z</time>
      </trkpt>
      <trkpt lat="44.10131" lon="3.10857">
        <ele>439</ele>
        <time>2014-09-06T08:07:35.255Z</time>
      </trkpt>
      <trkpt lat="44.10132" lon="3.10861">
        <ele>440</ele>
        <time>2014-09-06T08:07:36.230Z</time>
      </trkpt>
      <trkpt lat="44.10134" lon="3.1087">
        <ele>441</ele>
        <time>2014-09-06T08:07:39.266Z</time>
      </trkpt>
      <trkpt lat="44.10134" lon="3.10874">
        <ele>435</ele>
        <time>2014-09-06T08:07:40.232Z</time>
      </trkpt>
      <trkpt lat="44.10135" lon="3.10885">
        <ele>439</ele>
        <time>2014-09-06T08:07:45.251Z</time>
      </trkpt>
      <trkpt lat="44.10136" lon="3.10889">
        <ele>438</ele>
        <time>2014-09-06T08:07:46.262Z</time>
      </trkpt>
      <trkpt lat="44.10138" lon="3.10897">
        <ele>442</ele>
        <time>2014-09-06T08:07:48.228Z</time>
      </trkpt>
      <trkpt lat="44.10139" lon="3.10902">
        <ele>442</ele>
        <time>2014-09-06T08:07:49.244Z</time>
      </trkpt>
      <trkpt lat="44.10142" lon="3.10913">
        <ele>443</ele>
        <time>2014-09-06T08:07:52.230Z</time>
      </trkpt>
      <trkpt lat="44.10142" lon="3.10916">
        <ele>441</ele>
        <time>2014-09-06T08:07:53.257Z</time>
      </trkpt>
      <trkpt lat="44.10145" lon="3.10926">
        <ele>441</ele>
        <time>2014-09-06T08:07:56.255Z</time>
      </trkpt>
      <trkpt lat="44.10146" lon="3.10929">
        <ele>442</ele>
        <time>2014-09-06T08:07:57.258Z</time>
      </trkpt>
      <trkpt lat="44.10148" lon="3.1094">
        <ele>449</ele>
        <time>2014-09-06T08:08:01.259Z</time>
      </trkpt>
      <trkpt lat="44.10148" lon="3.10945">
        <ele>449</ele>
        <time>2014-09-06T08:08:02.253Z</time>
      </trkpt>
      <trkpt lat="44.10148" lon="3.10954">
        <ele>448</ele>
        <time>2014-09-06T08:08:04.251Z</time>
      </trkpt>
      <trkpt lat="44.10148" lon="3.10959">
        <ele>449</ele>
        <time>2014-09-06T08:08:05.245Z</time>
      </trkpt>
      <trkpt lat="44.10146" lon="3.10967">
        <ele>447</ele>
        <time>2014-09-06T08:08:07.258Z</time>
      </trkpt>
      <trkpt lat="44.10145" lon="3.10971">
        <ele>446</ele>
        <time>2014-09-06T08:08:08.227Z</time>
      </trkpt>
      <trkpt lat="44.10141" lon="3.10981">
        <ele>448</ele>
        <time>2014-09-06T08:08:12.257Z</time>
      </trkpt>
      <trkpt lat="44.1014" lon="3.10983">
        <ele>449</ele>
        <time>2014-09-06T08:08:13.255Z</time>
      </trkpt>
      <trkpt lat="44.10137" lon="3.10995">
        <ele>448</ele>
        <time>2014-09-06T08:08:17.252Z</time>
      </trkpt>
      <trkpt lat="44.10136" lon="3.10999">
        <ele>447</ele>
        <time>2014-09-06T08:08:18.279Z</time>
      </trkpt>
      <trkpt lat="44.10135" lon="3.1101">
        <ele>448</ele>
        <time>2014-09-06T08:08:21.381Z</time>
      </trkpt>
      <trkpt lat="44.10134" lon="3.11013">
        <ele>448</ele>
        <time>2014-09-06T08:08:22.265Z</time>
      </trkpt>
      <trkpt lat="44.10133" lon="3.11023">
        <ele>448</ele>
        <time>2014-09-06T08:08:25.229Z</time>
      </trkpt>
      <trkpt lat="44.10133" lon="3.11027">
        <ele>447</ele>
        <time>2014-09-06T08:08:26.281Z</time>
      </trkpt>
      <trkpt lat="44.1013" lon="3.11036">
        <ele>447</ele>
        <time>2014-09-06T08:08:29.246Z</time>
      </trkpt>
      <trkpt lat="44.10129" lon="3.11039">
        <ele>447</ele>
        <time>2014-09-06T08:08:30.248Z</time>
      </trkpt>
      <trkpt lat="44.10125" lon="3.11048">
        <ele>448</ele>
        <time>2014-09-06T08:08:33.256Z</time>
      </trkpt>
      <trkpt lat="44.10124" lon="3.11052">
        <ele>446</ele>
        <time>2014-09-06T08:08:34.251Z</time>
      </trkpt>
      <trkpt lat="44.10123" lon="3.11063">
        <ele>442</ele>
        <time>2014-09-06T08:08:37.248Z</time>
      </trkpt>
      <trkpt lat="44.10123" lon="3.11066">
        <ele>442</ele>
        <time>2014-09-06T08:08:38.267Z</time>
      </trkpt>
      <trkpt lat="44.1012" lon="3.11076">
        <ele>442</ele>
        <time>2014-09-06T08:08:41.257Z</time>
      </trkpt>
      <trkpt lat="44.10118" lon="3.11079">
        <ele>442</ele>
        <time>2014-09-06T08:08:42.254Z</time>
      </trkpt>
      <trkpt lat="44.10114" lon="3.1109">
        <ele>444</ele>
        <time>2014-09-06T08:08:46.252Z</time>
      </trkpt>
      <trkpt lat="44.10113" lon="3.11093">
        <ele>445</ele>
        <time>2014-09-06T08:08:47.256Z</time>
      </trkpt>
      <trkpt lat="44.10112" lon="3.11104">
        <ele>452</ele>
        <time>2014-09-06T08:08:54.256Z</time>
      </trkpt>
      <trkpt lat="44.10112" lon="3.11106">
        <ele>453</ele>
        <time>2014-09-06T08:08:55.247Z</time>
      </trkpt>
      <trkpt lat="44.10112" lon="3.11117">
        <ele>455</ele>
        <time>2014-09-06T08:09:01.250Z</time>
      </trkpt>
      <trkpt lat="44.10112" lon="3.11119">
        <ele>454</ele>
        <time>2014-09-06T08:09:02.403Z</time>
      </trkpt>
      <trkpt lat="44.10112" lon="3.1113">
        <ele>454</ele>
        <time>2014-09-06T08:09:07.262Z</time>
      </trkpt>
      <trkpt lat="44.10112" lon="3.11132">
        <ele>454</ele>
        <time>2014-09-06T08:09:08.240Z</time>
      </trkpt>
      <trkpt lat="44.10113" lon="3.11143">
        <ele>454</ele>
        <time>2014-09-06T08:09:13.251Z</time>
      </trkpt>
      <trkpt lat="44.10113" lon="3.11146">
        <ele>455</ele>
        <time>2014-09-06T08:09:14.708Z</time>
      </trkpt>
      <trkpt lat="44.10114" lon="3.11157">
        <ele>452</ele>
        <time>2014-09-06T08:09:18.257Z</time>
      </trkpt>
      <trkpt lat="44.10114" lon="3.1116">
        <ele>452</ele>
        <time>2014-09-06T08:09:19.231Z</time>
      </trkpt>
      <trkpt lat="44.10116" lon="3.11172">
        <ele>456</ele>
        <time>2014-09-06T08:09:24.241Z</time>
      </trkpt>
      <trkpt lat="44.10117" lon="3.11173">
        <ele>459</ele>
        <time>2014-09-06T08:09:25.252Z</time>
      </trkpt>
      <trkpt lat="44.10121" lon="3.1118">
        <ele>458</ele>
        <time>2014-09-06T08:09:31.232Z</time>
      </trkpt>
      <trkpt lat="44.10121" lon="3.11184">
        <ele>460</ele>
        <time>2014-09-06T08:09:32.248Z</time>
      </trkpt>
      <trkpt lat="44.10121" lon="3.11196">
        <ele>462</ele>
        <time>2014-09-06T08:09:36.253Z</time>
      </trkpt>
      <trkpt lat="44.10121" lon="3.11199">
        <ele>460</ele>
        <time>2014-09-06T08:09:37.257Z</time>
      </trkpt>
      <trkpt lat="44.10121" lon="3.11208">
        <ele>457</ele>
        <time>2014-09-06T08:09:40.253Z</time>
      </trkpt>
      <trkpt lat="44.10122" lon="3.11212">
        <ele>459</ele>
        <time>2014-09-06T08:09:41.257Z</time>
      </trkpt>
      <trkpt lat="44.10121" lon="3.11223">
        <ele>459</ele>
        <time>2014-09-06T08:09:45.257Z</time>
      </trkpt>
      <trkpt lat="44.10122" lon="3.11226">
        <ele>460</ele>
        <time>2014-09-06T08:09:46.257Z</time>
      </trkpt>
      <trkpt lat="44.10127" lon="3.11235">
        <ele>461</ele>
        <time>2014-09-06T08:09:49.252Z</time>
      </trkpt>
      <trkpt lat="44.10128" lon="3.11237">
        <ele>461</ele>
        <time>2014-09-06T08:09:50.252Z</time>
      </trkpt>
      <trkpt lat="44.10133" lon="3.11247">
        <ele>461</ele>
        <time>2014-09-06T08:09:54.231Z</time>
      </trkpt>
      <trkpt lat="44.10134" lon="3.1125">
        <ele>461</ele>
        <time>2014-09-06T08:09:55.249Z</time>
      </trkpt>
      <trkpt lat="44.10137" lon="3.1126">
        <ele>467</ele>
        <time>2014-09-06T08:10:01.243Z</time>
      </trkpt>
      <trkpt lat="44.10138" lon="3.11262">
        <ele>469</ele>
        <time>2014-09-06T08:10:02.247Z</time>
      </trkpt>
      <trkpt lat="44.10142" lon="3.11272">
        <ele>472</ele>
        <time>2014-09-06T08:10:07.238Z</time>
      </trkpt>
      <trkpt lat="44.10142" lon="3.11274">
        <ele>471</ele>
        <time>2014-09-06T08:10:08.250Z</time>
      </trkpt>
      <trkpt lat="44.10144" lon="3.11284">
        <ele>469</ele>
        <time>2014-09-06T08:10:12.337Z</time>
      </trkpt>
      <trkpt lat="44.10144" lon="3.11286">
        <ele>469</ele>
        <time>2014-09-06T08:10:13.255Z</time>
      </trkpt>
      <trkpt lat="44.10146" lon="3.11297">
        <ele>472</ele>
        <time>2014-09-06T08:10:17.254Z</time>
      </trkpt>
      <trkpt lat="44.10146" lon="3.11299">
        <ele>474</ele>
        <time>2014-09-06T08:10:18.246Z</time>
      </trkpt>
      <trkpt lat="44.10146" lon="3.1131">
        <ele>478</ele>
        <time>2014-09-06T08:10:23.257Z</time>
      </trkpt>
      <trkpt lat="44.10146" lon="3.11313">
        <ele>476</ele>
        <time>2014-09-06T08:10:24.251Z</time>
      </trkpt>
      <trkpt lat="44.10146" lon="3.11323">
        <ele>476</ele>
        <time>2014-09-06T08:10:28.257Z</time>
      </trkpt>
      <trkpt lat="44.10146" lon="3.11326">
        <ele>475</ele>
        <time>2014-09-06T08:10:29.250Z</time>
      </trkpt>
      <trkpt lat="44.10146" lon="3.11336">
        <ele>474</ele>
        <time>2014-09-06T08:10:32.250Z</time>
      </trkpt>
      <trkpt lat="44.10147" lon="3.11339">
        <ele>476</ele>
        <time>2014-09-06T08:10:33.251Z</time>
      </trkpt>
      <trkpt lat="44.10151" lon="3.11349">
        <ele>475</ele>
        <time>2014-09-06T08:10:37.256Z</time>
      </trkpt>
      <trkpt lat="44.10152" lon="3.11352">
        <ele>476</ele>
        <time>2014-09-06T08:10:38.246Z</time>
      </trkpt>
      <trkpt lat="44.10156" lon="3.11361">
        <ele>472</ele>
        <time>2014-09-06T08:10:41.257Z</time>
      </trkpt>
      <trkpt lat="44.10158" lon="3.11363">
        <ele>473</ele>
        <time>2014-09-06T08:10:42.248Z</time>
      </trkpt>
      <trkpt lat="44.10164" lon="3.11371">
        <ele>478</ele>
        <time>2014-09-06T08:10:45.286Z</time>
      </trkpt>
      <trkpt lat="44.10166" lon="3.11372">
        <ele>478</ele>
        <time>2014-09-06T08:10:46.243Z</time>
      </trkpt>
      <trkpt lat="44.10174" lon="3.11374">
        <ele>476</ele>
        <time>2014-09-06T08:10:51.251Z</time>
      </trkpt>
      <trkpt lat="44.10175" lon="3.11374">
        <ele>476</ele>
        <time>2014-09-06T08:10:52.250Z</time>
      </trkpt>
      <trkpt lat="44.10179" lon="3.11385">
        <ele>479</ele>
        <time>2014-09-06T08:10:56.245Z</time>
      </trkpt>
      <trkpt lat="44.1018" lon="3.11387">
        <ele>479</ele>
        <time>2014-09-06T08:10:57.315Z</time>
      </trkpt>
      <trkpt lat="44.10183" lon="3.11396">
        <ele>477</ele>
        <time>2014-09-06T08:11:00.253Z</time>
      </trkpt>
      <trkpt lat="44.10185" lon="3.114">
        <ele>478</ele>
        <time>2014-09-06T08:11:01.272Z</time>
      </trkpt>
      <trkpt lat="44.10189" lon="3.11407">
        <ele>480</ele>
        <time>2014-09-06T08:11:03.244Z</time>
      </trkpt>
      <trkpt lat="44.10191" lon="3.11411">
        <ele>477</ele>
        <time>2014-09-06T08:11:04.254Z</time>
      </trkpt>
      <trkpt lat="44.10195" lon="3.11419">
        <ele>479</ele>
        <time>2014-09-06T08:11:06.252Z</time>
      </trkpt>
      <trkpt lat="44.10196" lon="3.11423">
        <ele>479</ele>
        <time>2014-09-06T08:11:07.243Z</time>
      </trkpt>
      <trkpt lat="44.10201" lon="3.11432">
        <ele>480</ele>
        <time>2014-09-06T08:11:10.257Z</time>
      </trkpt>
      <trkpt lat="44.10203" lon="3.11436">
        <ele>479</ele>
        <time>2014-09-06T08:11:11.256Z</time>
      </trkpt>
      <trkpt lat="44.1021" lon="3.11442">
        <ele>481</ele>
        <time>2014-09-06T08:11:16.310Z</time>
      </trkpt>
      <trkpt lat="44.1021" lon="3.11444">
        <ele>481</ele>
        <time>2014-09-06T08:11:17.328Z</time>
      </trkpt>
      <trkpt lat="44.10212" lon="3.11454">
        <ele>481</ele>
        <time>2014-09-06T08:11:22.251Z</time>
      </trkpt>
      <trkpt lat="44.10212" lon="3.11457">
        <ele>480</ele>
        <time>2014-09-06T08:11:23.257Z</time>
      </trkpt>
      <trkpt lat="44.10215" lon="3.11465">
        <ele>482</ele>
        <time>2014-09-06T08:11:27.305Z</time>
      </trkpt>
      <trkpt lat="44.10216" lon="3.11468">
        <ele>484</ele>
        <time>2014-09-06T08:11:28.254Z</time>
      </trkpt>
      <trkpt lat="44.1022" lon="3.11478">
        <ele>483</ele>
        <time>2014-09-06T08:11:31.259Z</time>
      </trkpt>
      <trkpt lat="44.10221" lon="3.11481">
        <ele>480</ele>
        <time>2014-09-06T08:11:32.255Z</time>
      </trkpt>
      <trkpt lat="44.10224" lon="3.1149">
        <ele>478</ele>
        <time>2014-09-06T08:11:35.257Z</time>
      </trkpt>
      <trkpt lat="44.10225" lon="3.11493">
        <ele>479</ele>
        <time>2014-09-06T08:11:36.256Z</time>
      </trkpt>
      <trkpt lat="44.10228" lon="3.11504">
        <ele>484</ele>
        <time>2014-09-06T08:11:40.242Z</time>
      </trkpt>
      <trkpt lat="44.10229" lon="3.11506">
        <ele>484</ele>
        <time>2014-09-06T08:11:41.252Z</time>
      </trkpt>
      <trkpt lat="44.10233" lon="3.11515">
        <ele>477</ele>
        <time>2014-09-06T08:11:44.234Z</time>
      </trkpt>
      <trkpt lat="44.10234" lon="3.11518">
        <ele>476</ele>
        <time>2014-09-06T08:11:45.254Z</time>
      </trkpt>
      <trkpt lat="44.10238" lon="3.11527">
        <ele>477</ele>
        <time>2014-09-06T08:11:48.238Z</time>
      </trkpt>
      <trkpt lat="44.10239" lon="3.11531">
        <ele>478</ele>
        <time>2014-09-06T08:11:49.242Z</time>
      </trkpt>
      <trkpt lat="44.10242" lon="3.1154">
        <ele>477</ele>
        <time>2014-09-06T08:11:52.232Z</time>
      </trkpt>
      <trkpt lat="44.10243" lon="3.11543">
        <ele>478</ele>
        <time>2014-09-06T08:11:53.253Z</time>
      </trkpt>
      <trkpt lat="44.10245" lon="3.11554">
        <ele>476</ele>
        <time>2014-09-06T08:11:56.252Z</time>
      </trkpt>
      <trkpt lat="44.10245" lon="3.11559">
        <ele>476</ele>
        <time>2014-09-06T08:11:57.298Z</time>
      </trkpt>
      <trkpt lat="44.1025" lon="3.11567">
        <ele>484</ele>
        <time>2014-09-06T08:12:02.252Z</time>
      </trkpt>
      <trkpt lat="44.1025" lon="3.11569">
        <ele>482</ele>
        <time>2014-09-06T08:12:03.297Z</time>
      </trkpt>
      <trkpt lat="44.10254" lon="3.11578">
        <ele>481</ele>
        <time>2014-09-06T08:12:07.262Z</time>
      </trkpt>
      <trkpt lat="44.10255" lon="3.1158">
        <ele>480</ele>
        <time>2014-09-06T08:12:08.255Z</time>
      </trkpt>
      <trkpt lat="44.10258" lon="3.1159">
        <ele>485</ele>
        <time>2014-09-06T08:12:12.231Z</time>
      </trkpt>
      <trkpt lat="44.10259" lon="3.11594">
        <ele>484</ele>
        <time>2014-09-06T08:12:13.254Z</time>
      </trkpt>
      <trkpt lat="44.10261" lon="3.11603">
        <ele>488</ele>
        <time>2014-09-06T08:12:15.294Z</time>
      </trkpt>
      <trkpt lat="44.10263" lon="3.11606">
        <ele>490</ele>
        <time>2014-09-06T08:12:16.229Z</time>
      </trkpt>
      <trkpt lat="44.1027" lon="3.11615">
        <ele>486</ele>
        <time>2014-09-06T08:12:20.230Z</time>
      </trkpt>
      <trkpt lat="44.10271" lon="3.11617">
        <ele>485</ele>
        <time>2014-09-06T08:12:21.254Z</time>
      </trkpt>
      <trkpt lat="44.10275" lon="3.11627">
        <ele>481</ele>
        <time>2014-09-06T08:12:25.245Z</time>
      </trkpt>
      <trkpt lat="44.10276" lon="3.1163">
        <ele>483</ele>
        <time>2014-09-06T08:12:26.252Z</time>
      </trkpt>
      <trkpt lat="44.10282" lon="3.11636">
        <ele>487</ele>
        <time>2014-09-06T08:12:30.241Z</time>
      </trkpt>
      <trkpt lat="44.10283" lon="3.11638">
        <ele>487</ele>
        <time>2014-09-06T08:12:31.291Z</time>
      </trkpt>
      <trkpt lat="44.10287" lon="3.11646">
        <ele>490</ele>
        <time>2014-09-06T08:12:35.257Z</time>
      </trkpt>
      <trkpt lat="44.10289" lon="3.11648">
        <ele>489</ele>
        <time>2014-09-06T08:12:36.255Z</time>
      </trkpt>
      <trkpt lat="44.10293" lon="3.11656">
        <ele>491</ele>
        <time>2014-09-06T08:12:40.257Z</time>
      </trkpt>
      <trkpt lat="44.10294" lon="3.11658">
        <ele>492</ele>
        <time>2014-09-06T08:12:41.257Z</time>
      </trkpt>
      <trkpt lat="44.10299" lon="3.11668">
        <ele>491</ele>
        <time>2014-09-06T08:12:46.258Z</time>
      </trkpt>
      <trkpt lat="44.103" lon="3.1167">
        <ele>491</ele>
        <time>2014-09-06T08:12:47.274Z</time>
      </trkpt>
      <trkpt lat="44.10301" lon="3.1168">
        <ele>489</ele>
        <time>2014-09-06T08:12:50.245Z</time>
      </trkpt>
      <trkpt lat="44.10301" lon="3.11683">
        <ele>488</ele>
        <time>2014-09-06T08:12:51.414Z</time>
      </trkpt>
      <trkpt lat="44.10306" lon="3.11691">
        <ele>491</ele>
        <time>2014-09-06T08:12:55.289Z</time>
      </trkpt>
      <trkpt lat="44.10307" lon="3.11692">
        <ele>492</ele>
        <time>2014-09-06T08:12:56.239Z</time>
      </trkpt>
      <trkpt lat="44.10312" lon="3.117">
        <ele>495</ele>
        <time>2014-09-06T08:13:00.229Z</time>
      </trkpt>
      <trkpt lat="44.10314" lon="3.11702">
        <ele>496</ele>
        <time>2014-09-06T08:13:01.255Z</time>
      </trkpt>
      <trkpt lat="44.10319" lon="3.11709">
        <ele>499</ele>
        <time>2014-09-06T08:13:06.257Z</time>
      </trkpt>
      <trkpt lat="44.1032" lon="3.11711">
        <ele>500</ele>
        <time>2014-09-06T08:13:07.377Z</time>
      </trkpt>
      <trkpt lat="44.10325" lon="3.11721">
        <ele>496</ele>
        <time>2014-09-06T08:13:12.231Z</time>
      </trkpt>
      <trkpt lat="44.10325" lon="3.11724">
        <ele>496</ele>
        <time>2014-09-06T08:13:13.251Z</time>
      </trkpt>
      <trkpt lat="44.10328" lon="3.11733">
        <ele>496</ele>
        <time>2014-09-06T08:13:16.243Z</time>
      </trkpt>
      <trkpt lat="44.10329" lon="3.11736">
        <ele>495</ele>
        <time>2014-09-06T08:13:17.255Z</time>
      </trkpt>
      <trkpt lat="44.10332" lon="3.11746">
        <ele>495</ele>
        <time>2014-09-06T08:13:21.245Z</time>
      </trkpt>
      <trkpt lat="44.10332" lon="3.11748">
        <ele>495</ele>
        <time>2014-09-06T08:13:22.252Z</time>
      </trkpt>
      <trkpt lat="44.10335" lon="3.11758">
        <ele>493</ele>
        <time>2014-09-06T08:13:26.255Z</time>
      </trkpt>
      <trkpt lat="44.10335" lon="3.11761">
        <ele>490</ele>
        <time>2014-09-06T08:13:27.408Z</time>
      </trkpt>
      <trkpt lat="44.10337" lon="3.11772">
        <ele>490</ele>
        <time>2014-09-06T08:13:31.519Z</time>
      </trkpt>
      <trkpt lat="44.10338" lon="3.11775">
        <ele>487</ele>
        <time>2014-09-06T08:13:32.231Z</time>
      </trkpt>
      <trkpt lat="44.10339" lon="3.11786">
        <ele>490</ele>
        <time>2014-09-06T08:13:36.254Z</time>
      </trkpt>
      <trkpt lat="44.1034" lon="3.11789">
        <ele>490</ele>
        <time>2014-09-06T08:13:37.250Z</time>
      </trkpt>
      <trkpt lat="44.10343" lon="3.118">
        <ele>489</ele>
        <time>2014-09-06T08:13:40.241Z</time>
      </trkpt>
      <trkpt lat="44.10345" lon="3.11803">
        <ele>489</ele>
        <time>2014-09-06T08:13:41.252Z</time>
      </trkpt>
      <trkpt lat="44.10352" lon="3.11808">
        <ele>490</ele>
        <time>2014-09-06T08:13:44.252Z</time>
      </trkpt>
      <trkpt lat="44.10354" lon="3.11808">
        <ele>494</ele>
        <time>2014-09-06T08:13:45.253Z</time>
      </trkpt>
      <trkpt lat="44.10362" lon="3.11812">
        <ele>492</ele>
        <time>2014-09-06T08:13:50.251Z</time>
      </trkpt>
      <trkpt lat="44.10364" lon="3.11812">
        <ele>493</ele>
        <time>2014-09-06T08:13:51.247Z</time>
      </trkpt>
      <trkpt lat="44.10371" lon="3.11813">
        <ele>492</ele>
        <time>2014-09-06T08:13:55.255Z</time>
      </trkpt>
      <trkpt lat="44.10373" lon="3.11814">
        <ele>493</ele>
        <time>2014-09-06T08:13:56.255Z</time>
      </trkpt>
      <trkpt lat="44.10379" lon="3.11819">
        <ele>499</ele>
        <time>2014-09-06T08:13:59.232Z</time>
      </trkpt>
      <trkpt lat="44.1038" lon="3.11822">
        <ele>498</ele>
        <time>2014-09-06T08:14:00.250Z</time>
      </trkpt>
      <trkpt lat="44.10385" lon="3.11831">
        <ele>497</ele>
        <time>2014-09-06T08:14:03.257Z</time>
      </trkpt>
      <trkpt lat="44.10387" lon="3.11833">
        <ele>499</ele>
        <time>2014-09-06T08:14:04.247Z</time>
      </trkpt>
      <trkpt lat="44.10393" lon="3.11841">
        <ele>500</ele>
        <time>2014-09-06T08:14:06.262Z</time>
      </trkpt>
      <trkpt lat="44.10395" lon="3.11844">
        <ele>500</ele>
        <time>2014-09-06T08:14:07.255Z</time>
      </trkpt>
      <trkpt lat="44.10398" lon="3.11854">
        <ele>498</ele>
        <time>2014-09-06T08:14:10.408Z</time>
      </trkpt>
      <trkpt lat="44.10399" lon="3.11857">
        <ele>498</ele>
        <time>2014-09-06T08:14:11.254Z</time>
      </trkpt>
      <trkpt lat="44.10399" lon="3.11866">
        <ele>502</ele>
        <time>2014-09-06T08:14:14.231Z</time>
      </trkpt>
      <trkpt lat="44.10398" lon="3.11869">
        <ele>502</ele>
        <time>2014-09-06T08:14:15.249Z</time>
      </trkpt>
      <trkpt lat="44.10395" lon="3.1188">
        <ele>500</ele>
        <time>2014-09-06T08:14:19.250Z</time>
      </trkpt>
      <trkpt lat="44.10394" lon="3.11883">
        <ele>499</ele>
        <time>2014-09-06T08:14:20.259Z</time>
      </trkpt>
      <trkpt lat="44.10393" lon="3.11894">
        <ele>495</ele>
        <time>2014-09-06T08:14:23.252Z</time>
      </trkpt>
      <trkpt lat="44.10393" lon="3.11899">
        <ele>493</ele>
        <time>2014-09-06T08:14:24.255Z</time>
      </trkpt>
      <trkpt lat="44.10392" lon="3.11911">
        <ele>490</ele>
        <time>2014-09-06T08:14:27.260Z</time>
      </trkpt>
      <trkpt lat="44.10393" lon="3.11915">
        <ele>489</ele>
        <time>2014-09-06T08:14:28.257Z</time>
      </trkpt>
      <trkpt lat="44.10396" lon="3.11926">
        <ele>494</ele>
        <time>2014-09-06T08:14:36.725Z</time>
      </trkpt>
      <trkpt lat="44.10396" lon="3.11927">
        <ele>494</ele>
        <time>2014-09-06T08:14:37.252Z</time>
      </trkpt>
      <trkpt lat="44.10405" lon="3.11925">
        <ele>489</ele>
        <time>2014-09-06T08:14:47.253Z</time>
      </trkpt>
      <trkpt lat="44.10407" lon="3.11924">
        <ele>489</ele>
        <time>2014-09-06T08:14:48.248Z</time>
      </trkpt>
      <trkpt lat="44.10415" lon="3.11922">
        <ele>483</ele>
        <time>2014-09-06T08:14:52.253Z</time>
      </trkpt>
      <trkpt lat="44.10417" lon="3.1192">
        <ele>483</ele>
        <time>2014-09-06T08:14:53.250Z</time>
      </trkpt>
      <trkpt lat="44.10426" lon="3.11922">
        <ele>481</ele>
        <time>2014-09-06T08:14:59.289Z</time>
      </trkpt>
      <trkpt lat="44.10426" lon="3.11922">
        <ele>481</ele>
        <time>2014-09-06T08:15:00.258Z</time>
      </trkpt>
      <trkpt lat="44.10418" lon="3.1193">
        <ele>485</ele>
        <time>2014-09-06T08:15:08.252Z</time>
      </trkpt>
      <trkpt lat="44.10418" lon="3.1193">
        <ele>485</ele>
        <time>2014-09-06T08:15:09.257Z</time>
      </trkpt>
      <trkpt lat="44.10415" lon="3.11937">
        <ele>487</ele>
        <time>2014-09-06T08:15:31.243Z</time>
      </trkpt>
      <trkpt lat="44.10414" lon="3.11941">
        <ele>486</ele>
        <time>2014-09-06T08:15:32.231Z</time>
      </trkpt>
      <trkpt lat="44.10412" lon="3.11949">
        <ele>489</ele>
        <time>2014-09-06T08:15:34.253Z</time>
      </trkpt>
      <trkpt lat="44.10411" lon="3.11954">
        <ele>487</ele>
        <time>2014-09-06T08:15:35.253Z</time>
      </trkpt>
      <trkpt lat="44.10409" lon="3.11963">
        <ele>486</ele>
        <time>2014-09-06T08:15:37.245Z</time>
      </trkpt>
      <trkpt lat="44.10408" lon="3.11967">
        <ele>486</ele>
        <time>2014-09-06T08:15:38.250Z</time>
      </trkpt>
      <trkpt lat="44.10408" lon="3.11979">
        <ele>488</ele>
        <time>2014-09-06T08:15:41.243Z</time>
      </trkpt>
      <trkpt lat="44.10408" lon="3.11983">
        <ele>490</ele>
        <time>2014-09-06T08:15:42.244Z</time>
      </trkpt>
      <trkpt lat="44.10407" lon="3.11994">
        <ele>485</ele>
        <time>2014-09-06T08:15:45.240Z</time>
      </trkpt>
      <trkpt lat="44.10407" lon="3.11998">
        <ele>483</ele>
        <time>2014-09-06T08:15:46.248Z</time>
      </trkpt>
      <trkpt lat="44.10406" lon="3.12006">
        <ele>480</ele>
        <time>2014-09-06T08:15:48.234Z</time>
      </trkpt>
      <trkpt lat="44.10405" lon="3.12011">
        <ele>475</ele>
        <time>2014-09-06T08:15:49.251Z</time>
      </trkpt>
      <trkpt lat="44.10404" lon="3.1202">
        <ele>473</ele>
        <time>2014-09-06T08:15:51.282Z</time>
      </trkpt>
      <trkpt lat="44.10404" lon="3.12024">
        <ele>471</ele>
        <time>2014-09-06T08:15:52.232Z</time>
      </trkpt>
      <trkpt lat="44.10402" lon="3.12034">
        <ele>472</ele>
        <time>2014-09-06T08:15:54.255Z</time>
      </trkpt>
      <trkpt lat="44.10402" lon="3.12038">
        <ele>474</ele>
        <time>2014-09-06T08:15:55.255Z</time>
      </trkpt>
      <trkpt lat="44.10402" lon="3.12047">
        <ele>472</ele>
        <time>2014-09-06T08:15:57.257Z</time>
      </trkpt>
      <trkpt lat="44.10402" lon="3.12051">
        <ele>472</ele>
        <time>2014-09-06T08:15:58.253Z</time>
      </trkpt>
      <trkpt lat="44.10402" lon="3.12062">
        <ele>470</ele>
        <time>2014-09-06T08:16:00.255Z</time>
      </trkpt>
      <trkpt lat="44.10402" lon="3.12066">
        <ele>471</ele>
        <time>2014-09-06T08:16:01.251Z</time>
      </trkpt>
      <trkpt lat="44.10401" lon="3.12075">
        <ele>470</ele>
        <time>2014-09-06T08:16:03.244Z</time>
      </trkpt>
      <trkpt lat="44.104" lon="3.1208">
        <ele>468</ele>
        <time>2014-09-06T08:16:04.231Z</time>
      </trkpt>
      <trkpt lat="44.10397" lon="3.1209">
        <ele>475</ele>
        <time>2014-09-06T08:16:07.253Z</time>
      </trkpt>
      <trkpt lat="44.10397" lon="3.12093">
        <ele>477</ele>
        <time>2014-09-06T08:16:08.226Z</time>
      </trkpt>
      <trkpt lat="44.10395" lon="3.12104">
        <ele>475</ele>
        <time>2014-09-06T08:16:11.247Z</time>
      </trkpt>
      <trkpt lat="44.10395" lon="3.12107">
        <ele>474</ele>
        <time>2014-09-06T08:16:12.260Z</time>
      </trkpt>
      <trkpt lat="44.10395" lon="3.12118">
        <ele>471</ele>
        <time>2014-09-06T08:16:15.255Z</time>
      </trkpt>
      <trkpt lat="44.10395" lon="3.12122">
        <ele>473</ele>
        <time>2014-09-06T08:16:16.246Z</time>
      </trkpt>
      <trkpt lat="44.10396" lon="3.12132">
        <ele>473</ele>
        <time>2014-09-06T08:16:18.253Z</time>
      </trkpt>
      <trkpt lat="44.10395" lon="3.12137">
        <ele>473</ele>
        <time>2014-09-06T08:16:19.387Z</time>
      </trkpt>
      <trkpt lat="44.10394" lon="3.12148">
        <ele>471</ele>
        <time>2014-09-06T08:16:21.252Z</time>
      </trkpt>
      <trkpt lat="44.10394" lon="3.12152">
        <ele>470</ele>
        <time>2014-09-06T08:16:22.256Z</time>
      </trkpt>
      <trkpt lat="44.10394" lon="3.12164">
        <ele>469</ele>
        <time>2014-09-06T08:16:25.253Z</time>
      </trkpt>
      <trkpt lat="44.10394" lon="3.12167">
        <ele>470</ele>
        <time>2014-09-06T08:16:26.233Z</time>
      </trkpt>
      <trkpt lat="44.10395" lon="3.12178">
        <ele>469</ele>
        <time>2014-09-06T08:16:29.254Z</time>
      </trkpt>
      <trkpt lat="44.10395" lon="3.12181">
        <ele>470</ele>
        <time>2014-09-06T08:16:30.243Z</time>
      </trkpt>
      <trkpt lat="44.10396" lon="3.12194">
        <ele>468</ele>
        <time>2014-09-06T08:16:33.256Z</time>
      </trkpt>
      <trkpt lat="44.10396" lon="3.12198">
        <ele>468</ele>
        <time>2014-09-06T08:16:34.231Z</time>
      </trkpt>
      <trkpt lat="44.10397" lon="3.1221">
        <ele>470</ele>
        <time>2014-09-06T08:16:37.255Z</time>
      </trkpt>
      <trkpt lat="44.10398" lon="3.12214">
        <ele>468</ele>
        <time>2014-09-06T08:16:38.246Z</time>
      </trkpt>
      <trkpt lat="44.10398" lon="3.12224">
        <ele>466</ele>
        <time>2014-09-06T08:16:40.255Z</time>
      </trkpt>
      <trkpt lat="44.10397" lon="3.12228">
        <ele>468</ele>
        <time>2014-09-06T08:16:41.252Z</time>
      </trkpt>
      <trkpt lat="44.10397" lon="3.12238">
        <ele>465</ele>
        <time>2014-09-06T08:16:43.239Z</time>
      </trkpt>
      <trkpt lat="44.10398" lon="3.12242">
        <ele>465</ele>
        <time>2014-09-06T08:16:44.255Z</time>
      </trkpt>
      <trkpt lat="44.104" lon="3.12252">
        <ele>465</ele>
        <time>2014-09-06T08:16:46.289Z</time>
      </trkpt>
      <trkpt lat="44.10402" lon="3.12256">
        <ele>467</ele>
        <time>2014-09-06T08:16:47.239Z</time>
      </trkpt>
      <trkpt lat="44.10405" lon="3.12265">
        <ele>471</ele>
        <time>2014-09-06T08:16:49.264Z</time>
      </trkpt>
      <trkpt lat="44.10406" lon="3.12269">
        <ele>473</ele>
        <time>2014-09-06T08:16:50.278Z</time>
      </trkpt>
      <trkpt lat="44.10407" lon="3.1228">
        <ele>470</ele>
        <time>2014-09-06T08:16:54.285Z</time>
      </trkpt>
      <trkpt lat="44.10407" lon="3.12283">
        <ele>470</ele>
        <time>2014-09-06T08:16:55.233Z</time>
      </trkpt>
      <trkpt lat="44.10406" lon="3.12295">
        <ele>469</ele>
        <time>2014-09-06T08:16:58.258Z</time>
      </trkpt>
      <trkpt lat="44.10406" lon="3.12298">
        <ele>468</ele>
        <time>2014-09-06T08:16:59.253Z</time>
      </trkpt>
      <trkpt lat="44.10405" lon="3.1231">
        <ele>468</ele>
        <time>2014-09-06T08:17:02.375Z</time>
      </trkpt>
      <trkpt lat="44.10405" lon="3.12314">
        <ele>468</ele>
        <time>2014-09-06T08:17:03.256Z</time>
      </trkpt>
      <trkpt lat="44.10402" lon="3.12325">
        <ele>468</ele>
        <time>2014-09-06T08:17:07.233Z</time>
      </trkpt>
      <trkpt lat="44.10401" lon="3.12326">
        <ele>467</ele>
        <time>2014-09-06T08:17:08.258Z</time>
      </trkpt>
      <trkpt lat="44.10397" lon="3.12335">
        <ele>468</ele>
        <time>2014-09-06T08:17:12.232Z</time>
      </trkpt>
      <trkpt lat="44.10396" lon="3.12338">
        <ele>468</ele>
        <time>2014-09-06T08:17:13.252Z</time>
      </trkpt>
      <trkpt lat="44.10392" lon="3.12346">
        <ele>467</ele>
        <time>2014-09-06T08:17:16.257Z</time>
      </trkpt>
      <trkpt lat="44.10391" lon="3.1235">
        <ele>467</ele>
        <time>2014-09-06T08:17:17.250Z</time>
      </trkpt>
      <trkpt lat="44.10391" lon="3.1236">
        <ele>467</ele>
        <time>2014-09-06T08:17:20.250Z</time>
      </trkpt>
      <trkpt lat="44.10391" lon="3.12363">
        <ele>468</ele>
        <time>2014-09-06T08:17:21.366Z</time>
      </trkpt>
      <trkpt lat="44.10391" lon="3.12373">
        <ele>465</ele>
        <time>2014-09-06T08:17:24.253Z</time>
      </trkpt>
      <trkpt lat="44.10391" lon="3.12377">
        <ele>466</ele>
        <time>2014-09-06T08:17:25.252Z</time>
      </trkpt>
      <trkpt lat="44.10389" lon="3.12387">
        <ele>464</ele>
        <time>2014-09-06T08:17:28.248Z</time>
      </trkpt>
      <trkpt lat="44.10389" lon="3.12389">
        <ele>467</ele>
        <time>2014-09-06T08:17:29.256Z</time>
      </trkpt>
      <trkpt lat="44.10388" lon="3.124">
        <ele>468</ele>
        <time>2014-09-06T08:17:32.242Z</time>
      </trkpt>
      <trkpt lat="44.10388" lon="3.12403">
        <ele>466</ele>
        <time>2014-09-06T08:17:33.254Z</time>
      </trkpt>
      <trkpt lat="44.10386" lon="3.12414">
        <ele>462</ele>
        <time>2014-09-06T08:17:36.457Z</time>
      </trkpt>
      <trkpt lat="44.10386" lon="3.12418">
        <ele>463</ele>
        <time>2014-09-06T08:17:37.251Z</time>
      </trkpt>
      <trkpt lat="44.10384" lon="3.12427">
        <ele>453</ele>
        <time>2014-09-06T08:17:39.249Z</time>
      </trkpt>
      <trkpt lat="44.10384" lon="3.12431">
        <ele>453</ele>
        <time>2014-09-06T08:17:40.254Z</time>
      </trkpt>
      <trkpt lat="44.10383" lon="3.12439">
        <ele>453</ele>
        <time>2014-09-06T08:17:42.253Z</time>
      </trkpt>
      <trkpt lat="44.10382" lon="3.12443">
        <ele>454</ele>
        <time>2014-09-06T08:17:43.252Z</time>
      </trkpt>
      <trkpt lat="44.1038" lon="3.12455">
        <ele>453</ele>
        <time>2014-09-06T08:17:46.338Z</time>
      </trkpt>
      <trkpt lat="44.10379" lon="3.12458">
        <ele>452</ele>
        <time>2014-09-06T08:17:47.233Z</time>
      </trkpt>
      <trkpt lat="44.10377" lon="3.12469">
        <ele>449</ele>
        <time>2014-09-06T08:17:50.346Z</time>
      </trkpt>
      <trkpt lat="44.10376" lon="3.12473">
        <ele>450</ele>
        <time>2014-09-06T08:17:51.250Z</time>
      </trkpt>
      <trkpt lat="44.10375" lon="3.12484">
        <ele>451</ele>
        <time>2014-09-06T08:17:54.405Z</time>
      </trkpt>
      <trkpt lat="44.10375" lon="3.12487">
        <ele>452</ele>
        <time>2014-09-06T08:17:55.252Z</time>
      </trkpt>
      <trkpt lat="44.10373" lon="3.12498">
        <ele>453</ele>
        <time>2014-09-06T08:17:59.242Z</time>
      </trkpt>
      <trkpt lat="44.10373" lon="3.12502">
        <ele>456</ele>
        <time>2014-09-06T08:18:00.257Z</time>
      </trkpt>
      <trkpt lat="44.10373" lon="3.12513">
        <ele>456</ele>
        <time>2014-09-06T08:18:04.252Z</time>
      </trkpt>
      <trkpt lat="44.10373" lon="3.12515">
        <ele>458</ele>
        <time>2014-09-06T08:18:05.252Z</time>
      </trkpt>
      <trkpt lat="44.10371" lon="3.12527">
        <ele>456</ele>
        <time>2014-09-06T08:18:10.249Z</time>
      </trkpt>
      <trkpt lat="44.1037" lon="3.12529">
        <ele>457</ele>
        <time>2014-09-06T08:18:11.249Z</time>
      </trkpt>
      <trkpt lat="44.10367" lon="3.12537">
        <ele>458</ele>
        <time>2014-09-06T08:18:14.255Z</time>
      </trkpt>
      <trkpt lat="44.10367" lon="3.12541">
        <ele>458</ele>
        <time>2014-09-06T08:18:15.281Z</time>
      </trkpt>
      <trkpt lat="44.10365" lon="3.12552">
        <ele>457</ele>
        <time>2014-09-06T08:18:19.243Z</time>
      </trkpt>
      <trkpt lat="44.10365" lon="3.12555">
        <ele>457</ele>
        <time>2014-09-06T08:18:20.255Z</time>
      </trkpt>
      <trkpt lat="44.10364" lon="3.12566">
        <ele>460</ele>
        <time>2014-09-06T08:18:24.254Z</time>
      </trkpt>
      <trkpt lat="44.10363" lon="3.12568">
        <ele>461</ele>
        <time>2014-09-06T08:18:25.257Z</time>
      </trkpt>
      <trkpt lat="44.1036" lon="3.1258">
        <ele>462</ele>
        <time>2014-09-06T08:18:30.251Z</time>
      </trkpt>
      <trkpt lat="44.1036" lon="3.12582">
        <ele>463</ele>
        <time>2014-09-06T08:18:31.248Z</time>
      </trkpt>
      <trkpt lat="44.10357" lon="3.12593">
        <ele>462</ele>
        <time>2014-09-06T08:18:35.254Z</time>
      </trkpt>
      <trkpt lat="44.10356" lon="3.12595">
        <ele>462</ele>
        <time>2014-09-06T08:18:36.255Z</time>
      </trkpt>
      <trkpt lat="44.10351" lon="3.12605">
        <ele>467</ele>
        <time>2014-09-06T08:18:41.257Z</time>
      </trkpt>
      <trkpt lat="44.1035" lon="3.12608">
        <ele>466</ele>
        <time>2014-09-06T08:18:42.253Z</time>
      </trkpt>
      <trkpt lat="44.10348" lon="3.12617">
        <ele>455</ele>
        <time>2014-09-06T08:18:44.257Z</time>
      </trkpt>
      <trkpt lat="44.10347" lon="3.1262">
        <ele>458</ele>
        <time>2014-09-06T08:18:45.331Z</time>
      </trkpt>
      <trkpt lat="44.10345" lon="3.12628">
        <ele>460</ele>
        <time>2014-09-06T08:18:47.254Z</time>
      </trkpt>
      <trkpt lat="44.10344" lon="3.12632">
        <ele>463</ele>
        <time>2014-09-06T08:18:48.257Z</time>
      </trkpt>
      <trkpt lat="44.10342" lon="3.12641">
        <ele>460</ele>
        <time>2014-09-06T08:18:50.238Z</time>
      </trkpt>
      <trkpt lat="44.10341" lon="3.12646">
        <ele>462</ele>
        <time>2014-09-06T08:18:51.255Z</time>
      </trkpt>
      <trkpt lat="44.10339" lon="3.12654">
        <ele>458</ele>
        <time>2014-09-06T08:18:53.357Z</time>
      </trkpt>
      <trkpt lat="44.10338" lon="3.12658">
        <ele>459</ele>
        <time>2014-09-06T08:18:54.242Z</time>
      </trkpt>
      <trkpt lat="44.10334" lon="3.12669">
        <ele>453</ele>
        <time>2014-09-06T08:18:57.270Z</time>
      </trkpt>
      <trkpt lat="44.10331" lon="3.12672">
        <ele>456</ele>
        <time>2014-09-06T08:18:58.241Z</time>
      </trkpt>
      <trkpt lat="44.10339" lon="3.12666">
        <ele>455</ele>
        <time>2014-09-06T08:19:10.258Z</time>
      </trkpt>
      <trkpt lat="44.10341" lon="3.12665">
        <ele>458</ele>
        <time>2014-09-06T08:19:11.249Z</time>
      </trkpt>
      <trkpt lat="44.10347" lon="3.12656">
        <ele>459</ele>
        <time>2014-09-06T08:19:16.251Z</time>
      </trkpt>
      <trkpt lat="44.10347" lon="3.12655">
        <ele>460</ele>
        <time>2014-09-06T08:19:17.252Z</time>
      </trkpt>
      <trkpt lat="44.10348" lon="3.12666">
        <ele>462</ele>
        <time>2014-09-06T08:19:26.249Z</time>
      </trkpt>
      <trkpt lat="44.10349" lon="3.12668">
        <ele>462</ele>
        <time>2014-09-06T08:19:27.250Z</time>
      </trkpt>
      <trkpt lat="44.10356" lon="3.12664">
        <ele>465</ele>
        <time>2014-09-06T08:19:39.251Z</time>
      </trkpt>
      <trkpt lat="44.10357" lon="3.12662">
        <ele>465</ele>
        <time>2014-09-06T08:19:40.262Z</time>
      </trkpt>
      <trkpt lat="44.10361" lon="3.12652">
        <ele>469</ele>
        <time>2014-09-06T08:19:46.229Z</time>
      </trkpt>
      <trkpt lat="44.10361" lon="3.1265">
        <ele>468</ele>
        <time>2014-09-06T08:19:47.248Z</time>
      </trkpt>
      <trkpt lat="44.10367" lon="3.12643">
        <ele>467</ele>
        <time>2014-09-06T08:19:51.245Z</time>
      </trkpt>
      <trkpt lat="44.10368" lon="3.12642">
        <ele>468</ele>
        <time>2014-09-06T08:19:52.253Z</time>
      </trkpt>
      <trkpt lat="44.10373" lon="3.12631">
        <ele>475</ele>
        <time>2014-09-06T08:19:59.247Z</time>
      </trkpt>
      <trkpt lat="44.10374" lon="3.1263">
        <ele>475</ele>
        <time>2014-09-06T08:20:00.251Z</time>
      </trkpt>
      <trkpt lat="44.10381" lon="3.12632">
        <ele>478</ele>
        <time>2014-09-06T08:20:05.258Z</time>
      </trkpt>
      <trkpt lat="44.10382" lon="3.12633">
        <ele>479</ele>
        <time>2014-09-06T08:20:06.247Z</time>
      </trkpt>
      <trkpt lat="44.10385" lon="3.12645">
        <ele>482</ele>
        <time>2014-09-06T08:20:20.250Z</time>
      </trkpt>
      <trkpt lat="44.10386" lon="3.12647">
        <ele>485</ele>
        <time>2014-09-06T08:20:21.246Z</time>
      </trkpt>
      <trkpt lat="44.10392" lon="3.12656">
        <ele>484</ele>
        <time>2014-09-06T08:20:31.240Z</time>
      </trkpt>
      <trkpt lat="44.10392" lon="3.12657">
        <ele>484</ele>
        <time>2014-09-06T08:20:32.240Z</time>
      </trkpt>
      <trkpt lat="44.10399" lon="3.12664">
        <ele>487</ele>
        <time>2014-09-06T08:20:44.258Z</time>
      </trkpt>
      <trkpt lat="44.104" lon="3.12664">
        <ele>487</ele>
        <time>2014-09-06T08:20:45.256Z</time>
      </trkpt>
      <trkpt lat="44.10408" lon="3.12667">
        <ele>486</ele>
        <time>2014-09-06T08:20:54.253Z</time>
      </trkpt>
      <trkpt lat="44.10409" lon="3.12667">
        <ele>487</ele>
        <time>2014-09-06T08:20:55.276Z</time>
      </trkpt>
      <trkpt lat="44.10415" lon="3.12675">
        <ele>484</ele>
        <time>2014-09-06T08:21:01.251Z</time>
      </trkpt>
      <trkpt lat="44.10416" lon="3.12676">
        <ele>483</ele>
        <time>2014-09-06T08:21:02.256Z</time>
      </trkpt>
      <trkpt lat="44.10423" lon="3.12683">
        <ele>484</ele>
        <time>2014-09-06T08:21:09.256Z</time>
      </trkpt>
      <trkpt lat="44.10424" lon="3.12683">
        <ele>485</ele>
        <time>2014-09-06T08:21:10.257Z</time>
      </trkpt>
      <trkpt lat="44.10432" lon="3.12689">
        <ele>482</ele>
        <time>2014-09-06T08:21:18.249Z</time>
      </trkpt>
      <trkpt lat="44.10432" lon="3.12689">
        <ele>484</ele>
        <time>2014-09-06T08:21:19.253Z</time>
      </trkpt>
      <trkpt lat="44.10441" lon="3.12691">
        <ele>483</ele>
        <time>2014-09-06T08:21:25.253Z</time>
      </trkpt>
      <trkpt lat="44.10442" lon="3.1269">
        <ele>481</ele>
        <time>2014-09-06T08:21:26.252Z</time>
      </trkpt>
      <trkpt lat="44.10446" lon="3.12681">
        <ele>490</ele>
        <time>2014-09-06T08:22:01.258Z</time>
      </trkpt>
      <trkpt lat="44.10447" lon="3.12679">
        <ele>493</ele>
        <time>2014-09-06T08:22:02.264Z</time>
      </trkpt>
      <trkpt lat="44.10448" lon="3.12668">
        <ele>505</ele>
        <time>2014-09-06T08:22:13.252Z</time>
      </trkpt>
      <trkpt lat="44.10448" lon="3.12667">
        <ele>506</ele>
        <time>2014-09-06T08:22:14.250Z</time>
      </trkpt>
      <trkpt lat="44.10451" lon="3.12656">
        <ele>508</ele>
        <time>2014-09-06T08:22:20.254Z</time>
      </trkpt>
      <trkpt lat="44.10451" lon="3.12654">
        <ele>507</ele>
        <time>2014-09-06T08:22:21.258Z</time>
      </trkpt>
      <trkpt lat="44.10455" lon="3.12646">
        <ele>506</ele>
        <time>2014-09-06T08:22:25.255Z</time>
      </trkpt>
      <trkpt lat="44.10456" lon="3.12643">
        <ele>505</ele>
        <time>2014-09-06T08:22:26.261Z</time>
      </trkpt>
      <trkpt lat="44.10459" lon="3.12633">
        <ele>507</ele>
        <time>2014-09-06T08:22:30.257Z</time>
      </trkpt>
      <trkpt lat="44.1046" lon="3.12631">
        <ele>507</ele>
        <time>2014-09-06T08:22:31.244Z</time>
      </trkpt>
      <trkpt lat="44.10465" lon="3.12622">
        <ele>505</ele>
        <time>2014-09-06T08:22:35.252Z</time>
      </trkpt>
      <trkpt lat="44.10466" lon="3.12619">
        <ele>505</ele>
        <time>2014-09-06T08:22:36.232Z</time>
      </trkpt>
      <trkpt lat="44.10471" lon="3.12609">
        <ele>505</ele>
        <time>2014-09-06T08:22:41.252Z</time>
      </trkpt>
      <trkpt lat="44.10472" lon="3.12607">
        <ele>505</ele>
        <time>2014-09-06T08:22:42.390Z</time>
      </trkpt>
      <trkpt lat="44.10476" lon="3.12597">
        <ele>507</ele>
        <time>2014-09-06T08:22:49.254Z</time>
      </trkpt>
      <trkpt lat="44.10477" lon="3.12596">
        <ele>508</ele>
        <time>2014-09-06T08:22:50.257Z</time>
      </trkpt>
      <trkpt lat="44.10483" lon="3.12587">
        <ele>516</ele>
        <time>2014-09-06T08:23:01.251Z</time>
      </trkpt>
      <trkpt lat="44.10484" lon="3.12586">
        <ele>515</ele>
        <time>2014-09-06T08:23:02.252Z</time>
      </trkpt>
      <trkpt lat="44.10489" lon="3.12578">
        <ele>511</ele>
        <time>2014-09-06T08:23:07.234Z</time>
      </trkpt>
      <trkpt lat="44.1049" lon="3.12577">
        <ele>510</ele>
        <time>2014-09-06T08:23:08.251Z</time>
      </trkpt>
      <trkpt lat="44.10495" lon="3.12566">
        <ele>518</ele>
        <time>2014-09-06T08:23:21.232Z</time>
      </trkpt>
      <trkpt lat="44.10496" lon="3.12566">
        <ele>519</ele>
        <time>2014-09-06T08:23:22.255Z</time>
      </trkpt>
      <trkpt lat="44.105" lon="3.12555">
        <ele>529</ele>
        <time>2014-09-06T08:23:35.234Z</time>
      </trkpt>
      <trkpt lat="44.105" lon="3.12554">
        <ele>530</ele>
        <time>2014-09-06T08:23:36.253Z</time>
      </trkpt>
      <trkpt lat="44.10502" lon="3.12544">
        <ele>525</ele>
        <time>2014-09-06T08:23:45.251Z</time>
      </trkpt>
      <trkpt lat="44.10503" lon="3.12542">
        <ele>525</ele>
        <time>2014-09-06T08:23:46.277Z</time>
      </trkpt>
      <trkpt lat="44.10508" lon="3.12533">
        <ele>525</ele>
        <time>2014-09-06T08:23:52.253Z</time>
      </trkpt>
      <trkpt lat="44.10508" lon="3.12531">
        <ele>526</ele>
        <time>2014-09-06T08:23:53.253Z</time>
      </trkpt>
      <trkpt lat="44.10508" lon="3.12519">
        <ele>537</ele>
        <time>2014-09-06T08:24:04.256Z</time>
      </trkpt>
      <trkpt lat="44.10509" lon="3.12519">
        <ele>539</ele>
        <time>2014-09-06T08:24:05.256Z</time>
      </trkpt>
      <trkpt lat="44.10516" lon="3.1251">
        <ele>540</ele>
        <time>2014-09-06T08:24:18.260Z</time>
      </trkpt>
      <trkpt lat="44.10517" lon="3.12509">
        <ele>540</ele>
        <time>2014-09-06T08:24:19.251Z</time>
      </trkpt>
      <trkpt lat="44.10521" lon="3.12499">
        <ele>542</ele>
        <time>2014-09-06T08:24:28.243Z</time>
      </trkpt>
      <trkpt lat="44.10521" lon="3.12497">
        <ele>541</ele>
        <time>2014-09-06T08:24:29.244Z</time>
      </trkpt>
      <trkpt lat="44.10517" lon="3.12488">
        <ele>550</ele>
        <time>2014-09-06T08:25:01.230Z</time>
      </trkpt>
      <trkpt lat="44.10517" lon="3.12486">
        <ele>550</ele>
        <time>2014-09-06T08:25:02.252Z</time>
      </trkpt>
      <trkpt lat="44.10514" lon="3.12475">
        <ele>553</ele>
        <time>2014-09-06T08:25:06.244Z</time>
      </trkpt>
      <trkpt lat="44.10514" lon="3.12472">
        <ele>555</ele>
        <time>2014-09-06T08:25:07.256Z</time>
      </trkpt>
      <trkpt lat="44.10515" lon="3.12461">
        <ele>551</ele>
        <time>2014-09-06T08:25:11.253Z</time>
      </trkpt>
      <trkpt lat="44.10515" lon="3.12457">
        <ele>550</ele>
        <time>2014-09-06T08:25:12.250Z</time>
      </trkpt>
      <trkpt lat="44.10516" lon="3.12445">
        <ele>552</ele>
        <time>2014-09-06T08:25:17.252Z</time>
      </trkpt>
      <trkpt lat="44.10517" lon="3.12443">
        <ele>553</ele>
        <time>2014-09-06T08:25:18.258Z</time>
      </trkpt>
      <trkpt lat="44.10519" lon="3.12431">
        <ele>556</ele>
        <time>2014-09-06T08:25:23.255Z</time>
      </trkpt>
      <trkpt lat="44.10519" lon="3.12429">
        <ele>557</ele>
        <time>2014-09-06T08:25:24.281Z</time>
      </trkpt>
      <trkpt lat="44.10522" lon="3.12418">
        <ele>559</ele>
        <time>2014-09-06T08:25:29.256Z</time>
      </trkpt>
      <trkpt lat="44.10522" lon="3.12416">
        <ele>558</ele>
        <time>2014-09-06T08:25:30.254Z</time>
      </trkpt>
      <trkpt lat="44.10527" lon="3.12407">
        <ele>554</ele>
        <time>2014-09-06T08:25:34.256Z</time>
      </trkpt>
      <trkpt lat="44.10528" lon="3.12406">
        <ele>554</ele>
        <time>2014-09-06T08:25:35.252Z</time>
      </trkpt>
      <trkpt lat="44.10536" lon="3.12405">
        <ele>566</ele>
        <time>2014-09-06T08:25:55.339Z</time>
      </trkpt>
      <trkpt lat="44.10537" lon="3.12405">
        <ele>567</ele>
        <time>2014-09-06T08:25:56.299Z</time>
      </trkpt>
      <trkpt lat="44.10545" lon="3.1241">
        <ele>563</ele>
        <time>2014-09-06T08:26:04.232Z</time>
      </trkpt>
      <trkpt lat="44.10546" lon="3.1241">
        <ele>566</ele>
        <time>2014-09-06T08:26:05.252Z</time>
      </trkpt>
      <trkpt lat="44.10553" lon="3.12416">
        <ele>565</ele>
        <time>2014-09-06T08:26:20.251Z</time>
      </trkpt>
      <trkpt lat="44.10554" lon="3.12417">
        <ele>565</ele>
        <time>2014-09-06T08:26:21.254Z</time>
      </trkpt>
      <trkpt lat="44.10561" lon="3.12423">
        <ele>573</ele>
        <time>2014-09-06T08:26:33.257Z</time>
      </trkpt>
      <trkpt lat="44.10561" lon="3.12425">
        <ele>572</ele>
        <time>2014-09-06T08:26:34.251Z</time>
      </trkpt>
      <trkpt lat="44.10565" lon="3.12435">
        <ele>573</ele>
        <time>2014-09-06T08:26:40.250Z</time>
      </trkpt>
      <trkpt lat="44.10565" lon="3.12437">
        <ele>574</ele>
        <time>2014-09-06T08:26:41.250Z</time>
      </trkpt>
      <trkpt lat="44.10569" lon="3.12448">
        <ele>581</ele>
        <time>2014-09-06T08:26:55.255Z</time>
      </trkpt>
      <trkpt lat="44.10569" lon="3.12449">
        <ele>580</ele>
        <time>2014-09-06T08:26:56.258Z</time>
      </trkpt>
      <trkpt lat="44.10575" lon="3.12459">
        <ele>583</ele>
        <time>2014-09-06T08:27:22.260Z</time>
      </trkpt>
      <trkpt lat="44.10575" lon="3.12459">
        <ele>584</ele>
        <time>2014-09-06T08:27:23.254Z</time>
      </trkpt>
      <trkpt lat="44.10582" lon="3.12463">
        <ele>581</ele>
        <time>2014-09-06T08:27:38.253Z</time>
      </trkpt>
      <trkpt lat="44.10583" lon="3.12466">
        <ele>581</ele>
        <time>2014-09-06T08:27:39.257Z</time>
      </trkpt>
      <trkpt lat="44.10587" lon="3.12476">
        <ele>581</ele>
        <time>2014-09-06T08:27:41.257Z</time>
      </trkpt>
      <trkpt lat="44.10589" lon="3.12479">
        <ele>582</ele>
        <time>2014-09-06T08:27:42.388Z</time>
      </trkpt>
      <trkpt lat="44.10594" lon="3.12486">
        <ele>586</ele>
        <time>2014-09-06T08:27:45.257Z</time>
      </trkpt>
      <trkpt lat="44.10596" lon="3.12488">
        <ele>586</ele>
        <time>2014-09-06T08:27:46.366Z</time>
      </trkpt>
      <trkpt lat="44.10604" lon="3.12492">
        <ele>596</ele>
        <time>2014-09-06T08:27:54.254Z</time>
      </trkpt>
      <trkpt lat="44.10605" lon="3.12492">
        <ele>596</ele>
        <time>2014-09-06T08:27:55.259Z</time>
      </trkpt>
      <trkpt lat="44.1061" lon="3.12501">
        <ele>597</ele>
        <time>2014-09-06T08:28:11.252Z</time>
      </trkpt>
      <trkpt lat="44.10611" lon="3.12501">
        <ele>596</ele>
        <time>2014-09-06T08:28:12.254Z</time>
      </trkpt>
      <trkpt lat="44.10618" lon="3.12507">
        <ele>598</ele>
        <time>2014-09-06T08:28:17.255Z</time>
      </trkpt>
      <trkpt lat="44.10619" lon="3.12507">
        <ele>599</ele>
        <time>2014-09-06T08:28:18.501Z</time>
      </trkpt>
      <trkpt lat="44.10626" lon="3.12515">
        <ele>611</ele>
        <time>2014-09-06T08:28:34.257Z</time>
      </trkpt>
      <trkpt lat="44.10626" lon="3.12515">
        <ele>611</ele>
        <time>2014-09-06T08:28:35.255Z</time>
      </trkpt>
      <trkpt lat="44.10635" lon="3.12514">
        <ele>612</ele>
        <time>2014-09-06T08:28:55.251Z</time>
      </trkpt>
      <trkpt lat="44.10636" lon="3.12515">
        <ele>612</ele>
        <time>2014-09-06T08:28:56.257Z</time>
      </trkpt>
      <trkpt lat="44.10642" lon="3.12523">
        <ele>615</ele>
        <time>2014-09-06T08:29:14.256Z</time>
      </trkpt>
      <trkpt lat="44.10643" lon="3.12523">
        <ele>616</ele>
        <time>2014-09-06T08:29:15.248Z</time>
      </trkpt>
      <trkpt lat="44.10651" lon="3.12528">
        <ele>620</ele>
        <time>2014-09-06T08:29:26.255Z</time>
      </trkpt>
      <trkpt lat="44.10651" lon="3.12528">
        <ele>621</ele>
        <time>2014-09-06T08:29:27.259Z</time>
      </trkpt>
      <trkpt lat="44.10659" lon="3.1253">
        <ele>621</ele>
        <time>2014-09-06T08:29:35.257Z</time>
      </trkpt>
      <trkpt lat="44.1066" lon="3.12531">
        <ele>619</ele>
        <time>2014-09-06T08:29:36.239Z</time>
      </trkpt>
      <trkpt lat="44.10668" lon="3.12526">
        <ele>625</ele>
        <time>2014-09-06T08:29:53.257Z</time>
      </trkpt>
      <trkpt lat="44.10671" lon="3.12526">
        <ele>623</ele>
        <time>2014-09-06T08:29:54.245Z</time>
      </trkpt>
      <trkpt lat="44.10679" lon="3.12527">
        <ele>627</ele>
        <time>2014-09-06T08:30:03.257Z</time>
      </trkpt>
      <trkpt lat="44.1068" lon="3.12526">
        <ele>630</ele>
        <time>2014-09-06T08:30:04.248Z</time>
      </trkpt>
      <trkpt lat="44.10686" lon="3.12534">
        <ele>634</ele>
        <time>2014-09-06T08:30:23.292Z</time>
      </trkpt>
      <trkpt lat="44.10687" lon="3.12536">
        <ele>633</ele>
        <time>2014-09-06T08:30:24.253Z</time>
      </trkpt>
      <trkpt lat="44.10695" lon="3.12532">
        <ele>638</ele>
        <time>2014-09-06T08:30:37.255Z</time>
      </trkpt>
      <trkpt lat="44.10696" lon="3.12531">
        <ele>637</ele>
        <time>2014-09-06T08:30:38.256Z</time>
      </trkpt>
      <trkpt lat="44.10698" lon="3.12519">
        <ele>633</ele>
        <time>2014-09-06T08:31:36.255Z</time>
      </trkpt>
      <trkpt lat="44.10698" lon="3.12518">
        <ele>634</ele>
        <time>2014-09-06T08:31:37.259Z</time>
      </trkpt>
      <trkpt lat="44.10706" lon="3.12515">
        <ele>643</ele>
        <time>2014-09-06T08:31:49.268Z</time>
      </trkpt>
      <trkpt lat="44.10707" lon="3.12514">
        <ele>641</ele>
        <time>2014-09-06T08:31:50.258Z</time>
      </trkpt>
      <trkpt lat="44.10716" lon="3.12513">
        <ele>648</ele>
        <time>2014-09-06T08:32:00.260Z</time>
      </trkpt>
      <trkpt lat="44.10717" lon="3.12514">
        <ele>647</ele>
        <time>2014-09-06T08:32:01.277Z</time>
      </trkpt>
      <trkpt lat="44.10724" lon="3.12518">
        <ele>649</ele>
        <time>2014-09-06T08:32:07.260Z</time>
      </trkpt>
      <trkpt lat="44.10725" lon="3.1252">
        <ele>646</ele>
        <time>2014-09-06T08:32:08.260Z</time>
      </trkpt>
      <trkpt lat="44.10731" lon="3.12528">
        <ele>651</ele>
        <time>2014-09-06T08:32:17.231Z</time>
      </trkpt>
      <trkpt lat="44.10732" lon="3.12529">
        <ele>652</ele>
        <time>2014-09-06T08:32:18.254Z</time>
      </trkpt>
      <trkpt lat="44.10738" lon="3.12521">
        <ele>651</ele>
        <time>2014-09-06T08:32:38.260Z</time>
      </trkpt>
      <trkpt lat="44.10739" lon="3.1252">
        <ele>650</ele>
        <time>2014-09-06T08:32:39.252Z</time>
      </trkpt>
      <trkpt lat="44.10734" lon="3.12509">
        <ele>650</ele>
        <time>2014-09-06T08:32:51.257Z</time>
      </trkpt>
      <trkpt lat="44.10734" lon="3.12508">
        <ele>652</ele>
        <time>2014-09-06T08:32:52.257Z</time>
      </trkpt>
      <trkpt lat="44.10734" lon="3.12495">
        <ele>658</ele>
        <time>2014-09-06T08:33:11.365Z</time>
      </trkpt>
      <trkpt lat="44.10734" lon="3.12495">
        <ele>658</ele>
        <time>2014-09-06T08:33:12.233Z</time>
      </trkpt>
      <trkpt lat="44.10739" lon="3.12485">
        <ele>664</ele>
        <time>2014-09-06T08:33:23.277Z</time>
      </trkpt>
      <trkpt lat="44.10739" lon="3.12484">
        <ele>664</ele>
        <time>2014-09-06T08:33:24.243Z</time>
      </trkpt>
      <trkpt lat="44.10743" lon="3.12474">
        <ele>670</ele>
        <time>2014-09-06T08:33:45.256Z</time>
      </trkpt>
      <trkpt lat="44.10743" lon="3.12472">
        <ele>670</ele>
        <time>2014-09-06T08:33:46.259Z</time>
      </trkpt>
      <trkpt lat="44.10742" lon="3.1246">
        <ele>672</ele>
        <time>2014-09-06T08:33:54.252Z</time>
      </trkpt>
      <trkpt lat="44.10742" lon="3.12458">
        <ele>673</ele>
        <time>2014-09-06T08:33:55.397Z</time>
      </trkpt>
      <trkpt lat="44.10746" lon="3.12447">
        <ele>674</ele>
        <time>2014-09-06T08:34:03.396Z</time>
      </trkpt>
      <trkpt lat="44.10746" lon="3.12446">
        <ele>675</ele>
        <time>2014-09-06T08:34:04.257Z</time>
      </trkpt>
      <trkpt lat="44.10739" lon="3.12439">
        <ele>683</ele>
        <time>2014-09-06T08:35:06.257Z</time>
      </trkpt>
      <trkpt lat="44.10736" lon="3.12438">
        <ele>684</ele>
        <time>2014-09-06T08:35:07.253Z</time>
      </trkpt>
      <trkpt lat="44.10732" lon="3.12429">
        <ele>685</ele>
        <time>2014-09-06T08:35:58.255Z</time>
      </trkpt>
      <trkpt lat="44.10731" lon="3.12427">
        <ele>685</ele>
        <time>2014-09-06T08:35:59.255Z</time>
      </trkpt>
      <trkpt lat="44.10725" lon="3.12419">
        <ele>683</ele>
        <time>2014-09-06T08:36:02.255Z</time>
      </trkpt>
      <trkpt lat="44.10722" lon="3.12416">
        <ele>683</ele>
        <time>2014-09-06T08:36:03.252Z</time>
      </trkpt>
      <trkpt lat="44.10717" lon="3.12414">
        <ele>683</ele>
        <time>2014-09-06T08:36:04.273Z</time>
      </trkpt>
      <trkpt lat="44.10713" lon="3.12411">
        <ele>683</ele>
        <time>2014-09-06T08:36:05.257Z</time>
      </trkpt>
      <trkpt lat="44.10706" lon="3.12405">
        <ele>684</ele>
        <time>2014-09-06T08:36:07.269Z</time>
      </trkpt>
      <trkpt lat="44.10703" lon="3.12401">
        <ele>686</ele>
        <time>2014-09-06T08:36:08.255Z</time>
      </trkpt>
      <trkpt lat="44.10698" lon="3.12392">
        <ele>685</ele>
        <time>2014-09-06T08:36:11.246Z</time>
      </trkpt>
      <trkpt lat="44.10696" lon="3.12389">
        <ele>687</ele>
        <time>2014-09-06T08:36:12.259Z</time>
      </trkpt>
      <trkpt lat="44.10692" lon="3.12381">
        <ele>686</ele>
        <time>2014-09-06T08:36:15.261Z</time>
      </trkpt>
      <trkpt lat="44.10691" lon="3.12378">
        <ele>686</ele>
        <time>2014-09-06T08:36:16.258Z</time>
      </trkpt>
      <trkpt lat="44.10693" lon="3.12368">
        <ele>689</ele>
        <time>2014-09-06T08:36:21.448Z</time>
      </trkpt>
      <trkpt lat="44.10695" lon="3.12367">
        <ele>688</ele>
        <time>2014-09-06T08:36:22.257Z</time>
      </trkpt>
      <trkpt lat="44.10696" lon="3.12356">
        <ele>687</ele>
        <time>2014-09-06T08:36:26.260Z</time>
      </trkpt>
      <trkpt lat="44.10696" lon="3.12353">
        <ele>687</ele>
        <time>2014-09-06T08:36:27.255Z</time>
      </trkpt>
      <trkpt lat="44.10694" lon="3.12343">
        <ele>688</ele>
        <time>2014-09-06T08:36:30.252Z</time>
      </trkpt>
      <trkpt lat="44.10693" lon="3.1234">
        <ele>686</ele>
        <time>2014-09-06T08:36:31.256Z</time>
      </trkpt>
      <trkpt lat="44.10691" lon="3.12329">
        <ele>683</ele>
        <time>2014-09-06T08:36:34.318Z</time>
      </trkpt>
      <trkpt lat="44.1069" lon="3.12326">
        <ele>683</ele>
        <time>2014-09-06T08:36:35.257Z</time>
      </trkpt>
      <trkpt lat="44.10688" lon="3.12315">
        <ele>684</ele>
        <time>2014-09-06T08:36:39.260Z</time>
      </trkpt>
      <trkpt lat="44.10687" lon="3.12312">
        <ele>685</ele>
        <time>2014-09-06T08:36:40.299Z</time>
      </trkpt>
      <trkpt lat="44.10686" lon="3.12301">
        <ele>689</ele>
        <time>2014-09-06T08:36:44.323Z</time>
      </trkpt>
      <trkpt lat="44.10685" lon="3.12299">
        <ele>693</ele>
        <time>2014-09-06T08:36:45.257Z</time>
      </trkpt>
      <trkpt lat="44.1069" lon="3.1229">
        <ele>690</ele>
        <time>2014-09-06T08:36:48.292Z</time>
      </trkpt>
      <trkpt lat="44.10692" lon="3.12288">
        <ele>692</ele>
        <time>2014-09-06T08:36:49.258Z</time>
      </trkpt>
      <trkpt lat="44.10695" lon="3.12277">
        <ele>691</ele>
        <time>2014-09-06T08:36:53.252Z</time>
      </trkpt>
      <trkpt lat="44.10694" lon="3.12274">
        <ele>692</ele>
        <time>2014-09-06T08:36:54.279Z</time>
      </trkpt>
      <trkpt lat="44.1069" lon="3.12263">
        <ele>694</ele>
        <time>2014-09-06T08:36:58.260Z</time>
      </trkpt>
      <trkpt lat="44.10689" lon="3.12261">
        <ele>696</ele>
        <time>2014-09-06T08:36:59.298Z</time>
      </trkpt>
      <trkpt lat="44.10686" lon="3.1225">
        <ele>693</ele>
        <time>2014-09-06T08:37:04.232Z</time>
      </trkpt>
      <trkpt lat="44.10685" lon="3.12248">
        <ele>693</ele>
        <time>2014-09-06T08:37:05.239Z</time>
      </trkpt>
      <trkpt lat="44.1068" lon="3.12241">
        <ele>688</ele>
        <time>2014-09-06T08:37:08.371Z</time>
      </trkpt>
      <trkpt lat="44.10678" lon="3.12239">
        <ele>689</ele>
        <time>2014-09-06T08:37:09.258Z</time>
      </trkpt>
      <trkpt lat="44.10678" lon="3.12227">
        <ele>693</ele>
        <time>2014-09-06T08:37:14.255Z</time>
      </trkpt>
      <trkpt lat="44.10679" lon="3.12224">
        <ele>694</ele>
        <time>2014-09-06T08:37:15.257Z</time>
      </trkpt>
      <trkpt lat="44.10681" lon="3.12213">
        <ele>695</ele>
        <time>2014-09-06T08:37:20.256Z</time>
      </trkpt>
      <trkpt lat="44.10682" lon="3.12211">
        <ele>696</ele>
        <time>2014-09-06T08:37:21.258Z</time>
      </trkpt>
      <trkpt lat="44.10687" lon="3.12202">
        <ele>696</ele>
        <time>2014-09-06T08:37:25.240Z</time>
      </trkpt>
      <trkpt lat="44.10689" lon="3.122">
        <ele>696</ele>
        <time>2014-09-06T08:37:26.257Z</time>
      </trkpt>
      <trkpt lat="44.10695" lon="3.12193">
        <ele>697</ele>
        <time>2014-09-06T08:37:30.261Z</time>
      </trkpt>
      <trkpt lat="44.10697" lon="3.12192">
        <ele>698</ele>
        <time>2014-09-06T08:37:31.328Z</time>
      </trkpt>
      <trkpt lat="44.10705" lon="3.12187">
        <ele>702</ele>
        <time>2014-09-06T08:37:39.270Z</time>
      </trkpt>
      <trkpt lat="44.10705" lon="3.12187">
        <ele>702</ele>
        <time>2014-09-06T08:37:40.265Z</time>
      </trkpt>
      <trkpt lat="44.10714" lon="3.12187">
        <ele>706</ele>
        <time>2014-09-06T08:37:51.473Z</time>
      </trkpt>
      <trkpt lat="44.10715" lon="3.12186">
        <ele>707</ele>
        <time>2014-09-06T08:37:52.255Z</time>
      </trkpt>
      <trkpt lat="44.10723" lon="3.12188">
        <ele>712</ele>
        <time>2014-09-06T08:38:10.248Z</time>
      </trkpt>
      <trkpt lat="44.10724" lon="3.12187">
        <ele>714</ele>
        <time>2014-09-06T08:38:11.339Z</time>
      </trkpt>
      <trkpt lat="44.10732" lon="3.12186">
        <ele>716</ele>
        <time>2014-09-06T08:38:19.254Z</time>
      </trkpt>
      <trkpt lat="44.10733" lon="3.12185">
        <ele>717</ele>
        <time>2014-09-06T08:38:20.259Z</time>
      </trkpt>
      <trkpt lat="44.10741" lon="3.12181">
        <ele>721</ele>
        <time>2014-09-06T08:38:40.256Z</time>
      </trkpt>
      <trkpt lat="44.10742" lon="3.1218">
        <ele>722</ele>
        <time>2014-09-06T08:38:41.255Z</time>
      </trkpt>
      <trkpt lat="44.10746" lon="3.1217">
        <ele>730</ele>
        <time>2014-09-06T08:39:16.257Z</time>
      </trkpt>
      <trkpt lat="44.10747" lon="3.12168">
        <ele>730</ele>
        <time>2014-09-06T08:39:17.260Z</time>
      </trkpt>
      <trkpt lat="44.10752" lon="3.12158">
        <ele>732</ele>
        <time>2014-09-06T08:39:25.242Z</time>
      </trkpt>
      <trkpt lat="44.10753" lon="3.12157">
        <ele>732</ele>
        <time>2014-09-06T08:39:26.249Z</time>
      </trkpt>
      <trkpt lat="44.10757" lon="3.12146">
        <ele>730</ele>
        <time>2014-09-06T08:39:32.256Z</time>
      </trkpt>
      <trkpt lat="44.10758" lon="3.12145">
        <ele>730</ele>
        <time>2014-09-06T08:39:33.256Z</time>
      </trkpt>
      <trkpt lat="44.10764" lon="3.12137">
        <ele>733</ele>
        <time>2014-09-06T08:39:41.289Z</time>
      </trkpt>
      <trkpt lat="44.10764" lon="3.12135">
        <ele>734</ele>
        <time>2014-09-06T08:39:42.277Z</time>
      </trkpt>
      <trkpt lat="44.10766" lon="3.12123">
        <ele>738</ele>
        <time>2014-09-06T08:39:50.283Z</time>
      </trkpt>
      <trkpt lat="44.10766" lon="3.12122">
        <ele>740</ele>
        <time>2014-09-06T08:39:51.235Z</time>
      </trkpt>
      <trkpt lat="44.10766" lon="3.12111">
        <ele>741</ele>
        <time>2014-09-06T08:39:58.297Z</time>
      </trkpt>
      <trkpt lat="44.10766" lon="3.12109">
        <ele>741</ele>
        <time>2014-09-06T08:39:59.229Z</time>
      </trkpt>
      <trkpt lat="44.1077" lon="3.12098">
        <ele>741</ele>
        <time>2014-09-06T08:40:08.255Z</time>
      </trkpt>
      <trkpt lat="44.1077" lon="3.12097">
        <ele>742</ele>
        <time>2014-09-06T08:40:09.260Z</time>
      </trkpt>
      <trkpt lat="44.10777" lon="3.1209">
        <ele>751</ele>
        <time>2014-09-06T08:40:27.257Z</time>
      </trkpt>
      <trkpt lat="44.10778" lon="3.12089">
        <ele>750</ele>
        <time>2014-09-06T08:40:28.258Z</time>
      </trkpt>
      <trkpt lat="44.10779" lon="3.12078">
        <ele>755</ele>
        <time>2014-09-06T08:41:15.240Z</time>
      </trkpt>
      <trkpt lat="44.10779" lon="3.12076">
        <ele>756</ele>
        <time>2014-09-06T08:41:16.378Z</time>
      </trkpt>
      <trkpt lat="44.10788" lon="3.12076">
        <ele>752</ele>
        <time>2014-09-06T08:41:24.276Z</time>
      </trkpt>
      <trkpt lat="44.10789" lon="3.12075">
        <ele>752</ele>
        <time>2014-09-06T08:41:25.231Z</time>
      </trkpt>
      <trkpt lat="44.10796" lon="3.1208">
        <ele>754</ele>
        <time>2014-09-06T08:41:34.242Z</time>
      </trkpt>
      <trkpt lat="44.10797" lon="3.12082">
        <ele>752</ele>
        <time>2014-09-06T08:41:35.254Z</time>
      </trkpt>
      <trkpt lat="44.10801" lon="3.12093">
        <ele>752</ele>
        <time>2014-09-06T08:41:41.426Z</time>
      </trkpt>
      <trkpt lat="44.10802" lon="3.12093">
        <ele>754</ele>
        <time>2014-09-06T08:41:42.261Z</time>
      </trkpt>
      <trkpt lat="44.10809" lon="3.12088">
        <ele>755</ele>
        <time>2014-09-06T08:41:50.762Z</time>
      </trkpt>
      <trkpt lat="44.1081" lon="3.12087">
        <ele>756</ele>
        <time>2014-09-06T08:41:51.242Z</time>
      </trkpt>
      <trkpt lat="44.10813" lon="3.12075">
        <ele>761</ele>
        <time>2014-09-06T08:42:02.259Z</time>
      </trkpt>
      <trkpt lat="44.10814" lon="3.12075">
        <ele>762</ele>
        <time>2014-09-06T08:42:03.254Z</time>
      </trkpt>
      <trkpt lat="44.10822" lon="3.12072">
        <ele>767</ele>
        <time>2014-09-06T08:42:39.260Z</time>
      </trkpt>
      <trkpt lat="44.10823" lon="3.12072">
        <ele>768</ele>
        <time>2014-09-06T08:42:40.248Z</time>
      </trkpt>
      <trkpt lat="44.1083" lon="3.12066">
        <ele>771</ele>
        <time>2014-09-06T08:42:54.259Z</time>
      </trkpt>
      <trkpt lat="44.10831" lon="3.12065">
        <ele>772</ele>
        <time>2014-09-06T08:42:55.232Z</time>
      </trkpt>
      <trkpt lat="44.10837" lon="3.1206">
        <ele>769</ele>
        <time>2014-09-06T08:43:02.258Z</time>
      </trkpt>
      <trkpt lat="44.10839" lon="3.12059">
        <ele>769</ele>
        <time>2014-09-06T08:43:03.233Z</time>
      </trkpt>
      <trkpt lat="44.10845" lon="3.12052">
        <ele>771</ele>
        <time>2014-09-06T08:43:12.261Z</time>
      </trkpt>
      <trkpt lat="44.10846" lon="3.12051">
        <ele>772</ele>
        <time>2014-09-06T08:43:13.263Z</time>
      </trkpt>
      <trkpt lat="44.10854" lon="3.1205">
        <ele>778</ele>
        <time>2014-09-06T08:43:26.260Z</time>
      </trkpt>
      <trkpt lat="44.10855" lon="3.12051">
        <ele>779</ele>
        <time>2014-09-06T08:43:27.257Z</time>
      </trkpt>
      <trkpt lat="44.10863" lon="3.12054">
        <ele>780</ele>
        <time>2014-09-06T08:43:32.252Z</time>
      </trkpt>
      <trkpt lat="44.10864" lon="3.12055">
        <ele>780</ele>
        <time>2014-09-06T08:43:33.256Z</time>
      </trkpt>
      <trkpt lat="44.10873" lon="3.12055">
        <ele>776</ele>
        <time>2014-09-06T08:43:47.258Z</time>
      </trkpt>
      <trkpt lat="44.10873" lon="3.12053">
        <ele>777</ele>
        <time>2014-09-06T08:43:48.266Z</time>
      </trkpt>
      <trkpt lat="44.10879" lon="3.12045">
        <ele>779</ele>
        <time>2014-09-06T08:43:54.254Z</time>
      </trkpt>
      <trkpt lat="44.1088" lon="3.12044">
        <ele>778</ele>
        <time>2014-09-06T08:43:55.253Z</time>
      </trkpt>
      <trkpt lat="44.10888" lon="3.12045">
        <ele>791</ele>
        <time>2014-09-06T08:44:11.223Z</time>
      </trkpt>
      <trkpt lat="44.10889" lon="3.12045">
        <ele>792</ele>
        <time>2014-09-06T08:44:12.243Z</time>
      </trkpt>
      <trkpt lat="44.10896" lon="3.12037">
        <ele>795</ele>
        <time>2014-09-06T08:44:28.256Z</time>
      </trkpt>
      <trkpt lat="44.10897" lon="3.12037">
        <ele>795</ele>
        <time>2014-09-06T08:44:29.255Z</time>
      </trkpt>
      <trkpt lat="44.10903" lon="3.12028">
        <ele>801</ele>
        <time>2014-09-06T08:44:38.234Z</time>
      </trkpt>
      <trkpt lat="44.10904" lon="3.12027">
        <ele>801</ele>
        <time>2014-09-06T08:44:39.257Z</time>
      </trkpt>
      <trkpt lat="44.10912" lon="3.12026">
        <ele>800</ele>
        <time>2014-09-06T08:44:53.261Z</time>
      </trkpt>
      <trkpt lat="44.10913" lon="3.12026">
        <ele>802</ele>
        <time>2014-09-06T08:44:54.260Z</time>
      </trkpt>
      <trkpt lat="44.10919" lon="3.12019">
        <ele>795</ele>
        <time>2014-09-06T08:45:01.255Z</time>
      </trkpt>
      <trkpt lat="44.1092" lon="3.12018">
        <ele>796</ele>
        <time>2014-09-06T08:45:02.257Z</time>
      </trkpt>
      <trkpt lat="44.10927" lon="3.12011">
        <ele>797</ele>
        <time>2014-09-06T08:45:08.251Z</time>
      </trkpt>
      <trkpt lat="44.10928" lon="3.12011">
        <ele>800</ele>
        <time>2014-09-06T08:45:09.259Z</time>
      </trkpt>
      <trkpt lat="44.10935" lon="3.12004">
        <ele>804</ele>
        <time>2014-09-06T08:45:19.253Z</time>
      </trkpt>
      <trkpt lat="44.10937" lon="3.12003">
        <ele>802</ele>
        <time>2014-09-06T08:45:20.252Z</time>
      </trkpt>
      <trkpt lat="44.10945" lon="3.12002">
        <ele>807</ele>
        <time>2014-09-06T08:45:28.258Z</time>
      </trkpt>
      <trkpt lat="44.10946" lon="3.12002">
        <ele>807</ele>
        <time>2014-09-06T08:45:29.275Z</time>
      </trkpt>
      <trkpt lat="44.10954" lon="3.11999">
        <ele>811</ele>
        <time>2014-09-06T08:45:40.261Z</time>
      </trkpt>
      <trkpt lat="44.10955" lon="3.11998">
        <ele>810</ele>
        <time>2014-09-06T08:45:41.259Z</time>
      </trkpt>
      <trkpt lat="44.10964" lon="3.11996">
        <ele>814</ele>
        <time>2014-09-06T08:46:00.253Z</time>
      </trkpt>
      <trkpt lat="44.10964" lon="3.11996">
        <ele>814</ele>
        <time>2014-09-06T08:46:01.257Z</time>
      </trkpt>
      <trkpt lat="44.10972" lon="3.11995">
        <ele>815</ele>
        <time>2014-09-06T08:46:10.257Z</time>
      </trkpt>
      <trkpt lat="44.10973" lon="3.11994">
        <ele>816</ele>
        <time>2014-09-06T08:46:11.253Z</time>
      </trkpt>
      <trkpt lat="44.1098" lon="3.11986">
        <ele>820</ele>
        <time>2014-09-06T08:46:19.276Z</time>
      </trkpt>
      <trkpt lat="44.10981" lon="3.11985">
        <ele>820</ele>
        <time>2014-09-06T08:46:20.245Z</time>
      </trkpt>
      <trkpt lat="44.10988" lon="3.11979">
        <ele>822</ele>
        <time>2014-09-06T08:46:29.254Z</time>
      </trkpt>
      <trkpt lat="44.10989" lon="3.11979">
        <ele>822</ele>
        <time>2014-09-06T08:46:30.257Z</time>
      </trkpt>
      <trkpt lat="44.10994" lon="3.11969">
        <ele>825</ele>
        <time>2014-09-06T08:46:39.259Z</time>
      </trkpt>
      <trkpt lat="44.10995" lon="3.11969">
        <ele>826</ele>
        <time>2014-09-06T08:46:40.236Z</time>
      </trkpt>
      <trkpt lat="44.11003" lon="3.11962">
        <ele>827</ele>
        <time>2014-09-06T08:46:50.255Z</time>
      </trkpt>
      <trkpt lat="44.11004" lon="3.11962">
        <ele>828</ele>
        <time>2014-09-06T08:46:51.268Z</time>
      </trkpt>
      <trkpt lat="44.11009" lon="3.11953">
        <ele>835</ele>
        <time>2014-09-06T08:47:03.262Z</time>
      </trkpt>
      <trkpt lat="44.1101" lon="3.11952">
        <ele>836</ele>
        <time>2014-09-06T08:47:04.254Z</time>
      </trkpt>
      <trkpt lat="44.11015" lon="3.11942">
        <ele>841</ele>
        <time>2014-09-06T08:47:15.278Z</time>
      </trkpt>
      <trkpt lat="44.11015" lon="3.11942">
        <ele>842</ele>
        <time>2014-09-06T08:47:16.255Z</time>
      </trkpt>
      <trkpt lat="44.11024" lon="3.11941">
        <ele>832</ele>
        <time>2014-09-06T08:48:03.232Z</time>
      </trkpt>
      <trkpt lat="44.11025" lon="3.11941">
        <ele>832</ele>
        <time>2014-09-06T08:48:04.256Z</time>
      </trkpt>
      <trkpt lat="44.11031" lon="3.11946">
        <ele>832</ele>
        <time>2014-09-06T08:48:07.491Z</time>
      </trkpt>
      <trkpt lat="44.11033" lon="3.11947">
        <ele>832</ele>
        <time>2014-09-06T08:48:08.257Z</time>
      </trkpt>
      <trkpt lat="44.11039" lon="3.11952">
        <ele>835</ele>
        <time>2014-09-06T08:48:12.260Z</time>
      </trkpt>
      <trkpt lat="44.11041" lon="3.11953">
        <ele>835</ele>
        <time>2014-09-06T08:48:13.286Z</time>
      </trkpt>
      <trkpt lat="44.11048" lon="3.11956">
        <ele>839</ele>
        <time>2014-09-06T08:48:16.258Z</time>
      </trkpt>
      <trkpt lat="44.1105" lon="3.11957">
        <ele>839</ele>
        <time>2014-09-06T08:48:17.229Z</time>
      </trkpt>
      <trkpt lat="44.11056" lon="3.11964">
        <ele>835</ele>
        <time>2014-09-06T08:48:20.298Z</time>
      </trkpt>
      <trkpt lat="44.11059" lon="3.11965">
        <ele>836</ele>
        <time>2014-09-06T08:48:21.232Z</time>
      </trkpt>
      <trkpt lat="44.11066" lon="3.11972">
        <ele>838</ele>
        <time>2014-09-06T08:48:24.264Z</time>
      </trkpt>
      <trkpt lat="44.11068" lon="3.11975">
        <ele>838</ele>
        <time>2014-09-06T08:48:25.253Z</time>
      </trkpt>
      <trkpt lat="44.11073" lon="3.11981">
        <ele>838</ele>
        <time>2014-09-06T08:48:27.255Z</time>
      </trkpt>
      <trkpt lat="44.11074" lon="3.11984">
        <ele>840</ele>
        <time>2014-09-06T08:48:28.299Z</time>
      </trkpt>
      <trkpt lat="44.11078" lon="3.11994">
        <ele>840</ele>
        <time>2014-09-06T08:48:31.240Z</time>
      </trkpt>
      <trkpt lat="44.1108" lon="3.11997">
        <ele>840</ele>
        <time>2014-09-06T08:48:32.259Z</time>
      </trkpt>
      <trkpt lat="44.11086" lon="3.12002">
        <ele>839</ele>
        <time>2014-09-06T08:48:35.253Z</time>
      </trkpt>
      <trkpt lat="44.11089" lon="3.12002">
        <ele>839</ele>
        <time>2014-09-06T08:48:36.232Z</time>
      </trkpt>
      <trkpt lat="44.11097" lon="3.12005">
        <ele>838</ele>
        <time>2014-09-06T08:48:39.248Z</time>
      </trkpt>
      <trkpt lat="44.11099" lon="3.12005">
        <ele>839</ele>
        <time>2014-09-06T08:48:40.257Z</time>
      </trkpt>
      <trkpt lat="44.11106" lon="3.1201">
        <ele>832</ele>
        <time>2014-09-06T08:48:44.264Z</time>
      </trkpt>
      <trkpt lat="44.11107" lon="3.12013">
        <ele>832</ele>
        <time>2014-09-06T08:48:45.327Z</time>
      </trkpt>
      <trkpt lat="44.11111" lon="3.12023">
        <ele>833</ele>
        <time>2014-09-06T08:48:48.258Z</time>
      </trkpt>
      <trkpt lat="44.11112" lon="3.12026">
        <ele>830</ele>
        <time>2014-09-06T08:48:49.267Z</time>
      </trkpt>
      <trkpt lat="44.11119" lon="3.1203">
        <ele>833</ele>
        <time>2014-09-06T08:48:52.611Z</time>
      </trkpt>
      <trkpt lat="44.11121" lon="3.12031">
        <ele>833</ele>
        <time>2014-09-06T08:48:53.254Z</time>
      </trkpt>
      <trkpt lat="44.11127" lon="3.12036">
        <ele>833</ele>
        <time>2014-09-06T08:48:56.307Z</time>
      </trkpt>
      <trkpt lat="44.11129" lon="3.12035">
        <ele>833</ele>
        <time>2014-09-06T08:48:57.265Z</time>
      </trkpt>
      <trkpt lat="44.11137" lon="3.12033">
        <ele>827</ele>
        <time>2014-09-06T08:49:00.363Z</time>
      </trkpt>
      <trkpt lat="44.11141" lon="3.12032">
        <ele>824</ele>
        <time>2014-09-06T08:49:01.262Z</time>
      </trkpt>
      <trkpt lat="44.11148" lon="3.12032">
        <ele>828</ele>
        <time>2014-09-06T08:49:05.245Z</time>
      </trkpt>
      <trkpt lat="44.11149" lon="3.12035">
        <ele>828</ele>
        <time>2014-09-06T08:49:06.260Z</time>
      </trkpt>
      <trkpt lat="44.11154" lon="3.12041">
        <ele>829</ele>
        <time>2014-09-06T08:49:08.252Z</time>
      </trkpt>
      <trkpt lat="44.11157" lon="3.12044">
        <ele>827</ele>
        <time>2014-09-06T08:49:09.259Z</time>
      </trkpt>
      <trkpt lat="44.11163" lon="3.12047">
        <ele>827</ele>
        <time>2014-09-06T08:49:11.266Z</time>
      </trkpt>
      <trkpt lat="44.11165" lon="3.12049">
        <ele>826</ele>
        <time>2014-09-06T08:49:12.258Z</time>
      </trkpt>
      <trkpt lat="44.11171" lon="3.12052">
        <ele>828</ele>
        <time>2014-09-06T08:49:14.337Z</time>
      </trkpt>
      <trkpt lat="44.11174" lon="3.12053">
        <ele>827</ele>
        <time>2014-09-06T08:49:15.262Z</time>
      </trkpt>
      <trkpt lat="44.11182" lon="3.12057">
        <ele>826</ele>
        <time>2014-09-06T08:49:18.259Z</time>
      </trkpt>
      <trkpt lat="44.11185" lon="3.12057">
        <ele>824</ele>
        <time>2014-09-06T08:49:19.262Z</time>
      </trkpt>
      <trkpt lat="44.11192" lon="3.12057">
        <ele>825</ele>
        <time>2014-09-06T08:49:21.260Z</time>
      </trkpt>
      <trkpt lat="44.11195" lon="3.12057">
        <ele>825</ele>
        <time>2014-09-06T08:49:22.260Z</time>
      </trkpt>
      <trkpt lat="44.11201" lon="3.12058">
        <ele>823</ele>
        <time>2014-09-06T08:49:24.255Z</time>
      </trkpt>
      <trkpt lat="44.11204" lon="3.12058">
        <ele>823</ele>
        <time>2014-09-06T08:49:25.278Z</time>
      </trkpt>
      <trkpt lat="44.1121" lon="3.12059">
        <ele>822</ele>
        <time>2014-09-06T08:49:27.257Z</time>
      </trkpt>
      <trkpt lat="44.11214" lon="3.1206">
        <ele>822</ele>
        <time>2014-09-06T08:49:28.262Z</time>
      </trkpt>
      <trkpt lat="44.11222" lon="3.12064">
        <ele>824</ele>
        <time>2014-09-06T08:49:32.229Z</time>
      </trkpt>
      <trkpt lat="44.11223" lon="3.12063">
        <ele>824</ele>
        <time>2014-09-06T08:49:33.257Z</time>
      </trkpt>
      <trkpt lat="44.11229" lon="3.12054">
        <ele>823</ele>
        <time>2014-09-06T08:49:45.262Z</time>
      </trkpt>
      <trkpt lat="44.1123" lon="3.12052">
        <ele>822</ele>
        <time>2014-09-06T08:49:46.259Z</time>
      </trkpt>
      <trkpt lat="44.11234" lon="3.12063">
        <ele>829</ele>
        <time>2014-09-06T08:51:27.258Z</time>
      </trkpt>
      <trkpt lat="44.11235" lon="3.12063">
        <ele>827</ele>
        <time>2014-09-06T08:51:28.260Z</time>
      </trkpt>
      <trkpt lat="44.11243" lon="3.12061">
        <ele>824</ele>
        <time>2014-09-06T08:51:33.257Z</time>
      </trkpt>
      <trkpt lat="44.11245" lon="3.12061">
        <ele>824</ele>
        <time>2014-09-06T08:51:34.256Z</time>
      </trkpt>
      <trkpt lat="44.11253" lon="3.1206">
        <ele>826</ele>
        <time>2014-09-06T08:51:38.260Z</time>
      </trkpt>
      <trkpt lat="44.11255" lon="3.12059">
        <ele>826</ele>
        <time>2014-09-06T08:51:39.279Z</time>
      </trkpt>
      <trkpt lat="44.11263" lon="3.12056">
        <ele>822</ele>
        <time>2014-09-06T08:51:43.286Z</time>
      </trkpt>
      <trkpt lat="44.11264" lon="3.12055">
        <ele>821</ele>
        <time>2014-09-06T08:51:44.233Z</time>
      </trkpt>
      <trkpt lat="44.11272" lon="3.12059">
        <ele>828</ele>
        <time>2014-09-06T08:51:53.898Z</time>
      </trkpt>
      <trkpt lat="44.11274" lon="3.12059">
        <ele>828</ele>
        <time>2014-09-06T08:51:54.255Z</time>
      </trkpt>
      <trkpt lat="44.11282" lon="3.12063">
        <ele>834</ele>
        <time>2014-09-06T08:52:02.255Z</time>
      </trkpt>
      <trkpt lat="44.11283" lon="3.12063">
        <ele>835</ele>
        <time>2014-09-06T08:52:03.256Z</time>
      </trkpt>
      <trkpt lat="44.1129" lon="3.12069">
        <ele>840</ele>
        <time>2014-09-06T08:52:14.248Z</time>
      </trkpt>
      <trkpt lat="44.11291" lon="3.1207">
        <ele>841</ele>
        <time>2014-09-06T08:52:15.258Z</time>
      </trkpt>
      <trkpt lat="44.11297" lon="3.12078">
        <ele>842</ele>
        <time>2014-09-06T08:52:27.243Z</time>
      </trkpt>
      <trkpt lat="44.11298" lon="3.12079">
        <ele>842</ele>
        <time>2014-09-06T08:52:28.257Z</time>
      </trkpt>
      <trkpt lat="44.11305" lon="3.12086">
        <ele>843</ele>
        <time>2014-09-06T08:52:39.578Z</time>
      </trkpt>
      <trkpt lat="44.11306" lon="3.12086">
        <ele>846</ele>
        <time>2014-09-06T08:52:40.226Z</time>
      </trkpt>
      <trkpt lat="44.1131" lon="3.12096">
        <ele>851</ele>
        <time>2014-09-06T08:52:50.434Z</time>
      </trkpt>
      <trkpt lat="44.11311" lon="3.12097">
        <ele>850</ele>
        <time>2014-09-06T08:52:51.256Z</time>
      </trkpt>
      <trkpt lat="44.11318" lon="3.12103">
        <ele>856</ele>
        <time>2014-09-06T08:53:02.255Z</time>
      </trkpt>
      <trkpt lat="44.11318" lon="3.12104">
        <ele>856</ele>
        <time>2014-09-06T08:53:03.287Z</time>
      </trkpt>
      <trkpt lat="44.11327" lon="3.12103">
        <ele>858</ele>
        <time>2014-09-06T08:53:12.232Z</time>
      </trkpt>
      <trkpt lat="44.11329" lon="3.12102">
        <ele>856</ele>
        <time>2014-09-06T08:53:13.261Z</time>
      </trkpt>
      <trkpt lat="44.11336" lon="3.12099">
        <ele>859</ele>
        <time>2014-09-06T08:53:17.246Z</time>
      </trkpt>
      <trkpt lat="44.11337" lon="3.12098">
        <ele>860</ele>
        <time>2014-09-06T08:53:18.257Z</time>
      </trkpt>
      <trkpt lat="44.11346" lon="3.12096">
        <ele>857</ele>
        <time>2014-09-06T08:53:24.258Z</time>
      </trkpt>
      <trkpt lat="44.11347" lon="3.12095">
        <ele>859</ele>
        <time>2014-09-06T08:53:25.257Z</time>
      </trkpt>
      <trkpt lat="44.11354" lon="3.12099">
        <ele>861</ele>
        <time>2014-09-06T08:53:31.319Z</time>
      </trkpt>
      <trkpt lat="44.11356" lon="3.12099">
        <ele>863</ele>
        <time>2014-09-06T08:53:32.256Z</time>
      </trkpt>
      <trkpt lat="44.11364" lon="3.12101">
        <ele>870</ele>
        <time>2014-09-06T08:53:40.292Z</time>
      </trkpt>
      <trkpt lat="44.11365" lon="3.12101">
        <ele>870</ele>
        <time>2014-09-06T08:53:41.240Z</time>
      </trkpt>
      <trkpt lat="44.11373" lon="3.121">
        <ele>871</ele>
        <time>2014-09-06T08:53:47.258Z</time>
      </trkpt>
      <trkpt lat="44.11375" lon="3.121">
        <ele>872</ele>
        <time>2014-09-06T08:53:48.237Z</time>
      </trkpt>
      <trkpt lat="44.11383" lon="3.12099">
        <ele>873</ele>
        <time>2014-09-06T08:53:54.257Z</time>
      </trkpt>
      <trkpt lat="44.11384" lon="3.12098">
        <ele>874</ele>
        <time>2014-09-06T08:53:55.264Z</time>
      </trkpt>
      <trkpt lat="44.11392" lon="3.12097">
        <ele>873</ele>
        <time>2014-09-06T08:53:58.271Z</time>
      </trkpt>
      <trkpt lat="44.11394" lon="3.12096">
        <ele>874</ele>
        <time>2014-09-06T08:53:59.255Z</time>
      </trkpt>
      <trkpt lat="44.11401" lon="3.12097">
        <ele>870</ele>
        <time>2014-09-06T08:54:06.257Z</time>
      </trkpt>
      <trkpt lat="44.11403" lon="3.12097">
        <ele>869</ele>
        <time>2014-09-06T08:54:07.727Z</time>
      </trkpt>
      <trkpt lat="44.11411" lon="3.12099">
        <ele>868</ele>
        <time>2014-09-06T08:54:12.403Z</time>
      </trkpt>
      <trkpt lat="44.11414" lon="3.12097">
        <ele>869</ele>
        <time>2014-09-06T08:54:13.238Z</time>
      </trkpt>
      <trkpt lat="44.11422" lon="3.12094">
        <ele>868</ele>
        <time>2014-09-06T08:54:16.257Z</time>
      </trkpt>
      <trkpt lat="44.11424" lon="3.12092">
        <ele>867</ele>
        <time>2014-09-06T08:54:17.261Z</time>
      </trkpt>
      <trkpt lat="44.11431" lon="3.12087">
        <ele>866</ele>
        <time>2014-09-06T08:54:21.258Z</time>
      </trkpt>
      <trkpt lat="44.11433" lon="3.12087">
        <ele>867</ele>
        <time>2014-09-06T08:54:22.255Z</time>
      </trkpt>
      <trkpt lat="44.1144" lon="3.12083">
        <ele>864</ele>
        <time>2014-09-06T08:54:26.257Z</time>
      </trkpt>
      <trkpt lat="44.11442" lon="3.12082">
        <ele>864</ele>
        <time>2014-09-06T08:54:27.260Z</time>
      </trkpt>
      <trkpt lat="44.11449" lon="3.12077">
        <ele>863</ele>
        <time>2014-09-06T08:54:31.258Z</time>
      </trkpt>
      <trkpt lat="44.1145" lon="3.12076">
        <ele>864</ele>
        <time>2014-09-06T08:54:32.253Z</time>
      </trkpt>
      <trkpt lat="44.11458" lon="3.12069">
        <ele>872</ele>
        <time>2014-09-06T08:54:39.297Z</time>
      </trkpt>
      <trkpt lat="44.11459" lon="3.12069">
        <ele>872</ele>
        <time>2014-09-06T08:54:40.232Z</time>
      </trkpt>
      <trkpt lat="44.11467" lon="3.12069">
        <ele>875</ele>
        <time>2014-09-06T08:54:46.257Z</time>
      </trkpt>
      <trkpt lat="44.11469" lon="3.12067">
        <ele>876</ele>
        <time>2014-09-06T08:54:47.357Z</time>
      </trkpt>
      <trkpt lat="44.11476" lon="3.12061">
        <ele>879</ele>
        <time>2014-09-06T08:54:53.250Z</time>
      </trkpt>
      <trkpt lat="44.11478" lon="3.1206">
        <ele>877</ele>
        <time>2014-09-06T08:54:54.259Z</time>
      </trkpt>
      <trkpt lat="44.11485" lon="3.12057">
        <ele>883</ele>
        <time>2014-09-06T08:54:59.321Z</time>
      </trkpt>
      <trkpt lat="44.11487" lon="3.12056">
        <ele>882</ele>
        <time>2014-09-06T08:55:00.225Z</time>
      </trkpt>
      <trkpt lat="44.11494" lon="3.12051">
        <ele>884</ele>
        <time>2014-09-06T08:55:07.256Z</time>
      </trkpt>
      <trkpt lat="44.11496" lon="3.1205">
        <ele>883</ele>
        <time>2014-09-06T08:55:08.263Z</time>
      </trkpt>
      <trkpt lat="44.11501" lon="3.12045">
        <ele>884</ele>
        <time>2014-09-06T08:55:11.255Z</time>
      </trkpt>
      <trkpt lat="44.11504" lon="3.12043">
        <ele>882</ele>
        <time>2014-09-06T08:55:12.241Z</time>
      </trkpt>
      <trkpt lat="44.11511" lon="3.12039">
        <ele>892</ele>
        <time>2014-09-06T08:55:20.232Z</time>
      </trkpt>
      <trkpt lat="44.11513" lon="3.12038">
        <ele>890</ele>
        <time>2014-09-06T08:55:21.254Z</time>
      </trkpt>
      <trkpt lat="44.11519" lon="3.12033">
        <ele>889</ele>
        <time>2014-09-06T08:55:23.269Z</time>
      </trkpt>
      <trkpt lat="44.11522" lon="3.1203">
        <ele>888</ele>
        <time>2014-09-06T08:55:24.254Z</time>
      </trkpt>
      <trkpt lat="44.11529" lon="3.12025">
        <ele>886</ele>
        <time>2014-09-06T08:55:27.290Z</time>
      </trkpt>
      <trkpt lat="44.11531" lon="3.12024">
        <ele>887</ele>
        <time>2014-09-06T08:55:28.231Z</time>
      </trkpt>
      <trkpt lat="44.11539" lon="3.12018">
        <ele>894</ele>
        <time>2014-09-06T08:55:36.738Z</time>
      </trkpt>
      <trkpt lat="44.1154" lon="3.12017">
        <ele>895</ele>
        <time>2014-09-06T08:55:37.258Z</time>
      </trkpt>
      <trkpt lat="44.11547" lon="3.12013">
        <ele>894</ele>
        <time>2014-09-06T08:55:43.257Z</time>
      </trkpt>
      <trkpt lat="44.11549" lon="3.12013">
        <ele>895</ele>
        <time>2014-09-06T08:55:44.254Z</time>
      </trkpt>
      <trkpt lat="44.11556" lon="3.12009">
        <ele>892</ele>
        <time>2014-09-06T08:55:48.268Z</time>
      </trkpt>
      <trkpt lat="44.11558" lon="3.12007">
        <ele>892</ele>
        <time>2014-09-06T08:55:49.257Z</time>
      </trkpt>
      <trkpt lat="44.11567" lon="3.12002">
        <ele>891</ele>
        <time>2014-09-06T08:55:52.265Z</time>
      </trkpt>
      <trkpt lat="44.11569" lon="3.12001">
        <ele>892</ele>
        <time>2014-09-06T08:55:53.255Z</time>
      </trkpt>
      <trkpt lat="44.11576" lon="3.12001">
        <ele>893</ele>
        <time>2014-09-06T08:55:57.242Z</time>
      </trkpt>
      <trkpt lat="44.11578" lon="3.12">
        <ele>891</ele>
        <time>2014-09-06T08:55:58.310Z</time>
      </trkpt>
      <trkpt lat="44.11587" lon="3.12001">
        <ele>891</ele>
        <time>2014-09-06T08:56:02.337Z</time>
      </trkpt>
      <trkpt lat="44.11589" lon="3.12001">
        <ele>891</ele>
        <time>2014-09-06T08:56:03.242Z</time>
      </trkpt>
      <trkpt lat="44.11596" lon="3.11998">
        <ele>891</ele>
        <time>2014-09-06T08:56:06.255Z</time>
      </trkpt>
      <trkpt lat="44.11599" lon="3.11998">
        <ele>889</ele>
        <time>2014-09-06T08:56:07.235Z</time>
      </trkpt>
      <trkpt lat="44.11607" lon="3.11998">
        <ele>893</ele>
        <time>2014-09-06T08:56:11.261Z</time>
      </trkpt>
      <trkpt lat="44.1161" lon="3.11999">
        <ele>894</ele>
        <time>2014-09-06T08:56:12.256Z</time>
      </trkpt>
      <trkpt lat="44.11616" lon="3.11999">
        <ele>895</ele>
        <time>2014-09-06T08:56:14.261Z</time>
      </trkpt>
      <trkpt lat="44.11619" lon="3.11999">
        <ele>897</ele>
        <time>2014-09-06T08:56:15.259Z</time>
      </trkpt>
      <trkpt lat="44.11625" lon="3.12002">
        <ele>895</ele>
        <time>2014-09-06T08:56:17.259Z</time>
      </trkpt>
      <trkpt lat="44.11628" lon="3.12005">
        <ele>893</ele>
        <time>2014-09-06T08:56:18.388Z</time>
      </trkpt>
      <trkpt lat="44.11634" lon="3.12011">
        <ele>893</ele>
        <time>2014-09-06T08:56:21.260Z</time>
      </trkpt>
      <trkpt lat="44.11638" lon="3.12012">
        <ele>893</ele>
        <time>2014-09-06T08:56:22.349Z</time>
      </trkpt>
      <trkpt lat="44.11645" lon="3.12011">
        <ele>892</ele>
        <time>2014-09-06T08:56:24.245Z</time>
      </trkpt>
      <trkpt lat="44.11649" lon="3.12011">
        <ele>891</ele>
        <time>2014-09-06T08:56:25.255Z</time>
      </trkpt>
      <trkpt lat="44.11656" lon="3.12013">
        <ele>893</ele>
        <time>2014-09-06T08:56:27.258Z</time>
      </trkpt>
      <trkpt lat="44.11659" lon="3.12013">
        <ele>892</ele>
        <time>2014-09-06T08:56:28.259Z</time>
      </trkpt>
      <trkpt lat="44.11667" lon="3.12012">
        <ele>892</ele>
        <time>2014-09-06T08:56:31.255Z</time>
      </trkpt>
      <trkpt lat="44.1167" lon="3.12013">
        <ele>890</ele>
        <time>2014-09-06T08:56:32.260Z</time>
      </trkpt>
      <trkpt lat="44.11677" lon="3.12016">
        <ele>887</ele>
        <time>2014-09-06T08:56:35.262Z</time>
      </trkpt>
      <trkpt lat="44.1168" lon="3.12019">
        <ele>889</ele>
        <time>2014-09-06T08:56:36.232Z</time>
      </trkpt>
      <trkpt lat="44.11687" lon="3.12026">
        <ele>891</ele>
        <time>2014-09-06T08:56:40.259Z</time>
      </trkpt>
      <trkpt lat="44.11688" lon="3.12028">
        <ele>891</ele>
        <time>2014-09-06T08:56:41.260Z</time>
      </trkpt>
      <trkpt lat="44.11695" lon="3.12031">
        <ele>896</ele>
        <time>2014-09-06T08:56:44.262Z</time>
      </trkpt>
      <trkpt lat="44.11697" lon="3.12033">
        <ele>897</ele>
        <time>2014-09-06T08:56:45.243Z</time>
      </trkpt>
      <trkpt lat="44.11705" lon="3.12035">
        <ele>895</ele>
        <time>2014-09-06T08:56:49.252Z</time>
      </trkpt>
      <trkpt lat="44.11707" lon="3.12036">
        <ele>891</ele>
        <time>2014-09-06T08:56:50.250Z</time>
      </trkpt>
      <trkpt lat="44.11713" lon="3.12043">
        <ele>894</ele>
        <time>2014-09-06T08:56:56.257Z</time>
      </trkpt>
      <trkpt lat="44.11714" lon="3.12044">
        <ele>896</ele>
        <time>2014-09-06T08:56:57.262Z</time>
      </trkpt>
      <trkpt lat="44.11721" lon="3.12044">
        <ele>893</ele>
        <time>2014-09-06T08:57:01.249Z</time>
      </trkpt>
      <trkpt lat="44.11724" lon="3.12043">
        <ele>892</ele>
        <time>2014-09-06T08:57:02.267Z</time>
      </trkpt>
      <trkpt lat="44.11731" lon="3.12042">
        <ele>894</ele>
        <time>2014-09-06T08:57:06.237Z</time>
      </trkpt>
      <trkpt lat="44.11733" lon="3.12041">
        <ele>893</ele>
        <time>2014-09-06T08:57:07.262Z</time>
      </trkpt>
      <trkpt lat="44.11741" lon="3.12043">
        <ele>894</ele>
        <time>2014-09-06T08:57:12.265Z</time>
      </trkpt>
      <trkpt lat="44.11742" lon="3.12044">
        <ele>895</ele>
        <time>2014-09-06T08:57:13.258Z</time>
      </trkpt>
      <trkpt lat="44.11748" lon="3.12051">
        <ele>900</ele>
        <time>2014-09-06T08:57:18.258Z</time>
      </trkpt>
      <trkpt lat="44.11749" lon="3.12052">
        <ele>899</ele>
        <time>2014-09-06T08:57:19.260Z</time>
      </trkpt>
      <trkpt lat="44.11758" lon="3.12052">
        <ele>903</ele>
        <time>2014-09-06T08:57:27.264Z</time>
      </trkpt>
      <trkpt lat="44.11759" lon="3.12051">
        <ele>903</ele>
        <time>2014-09-06T08:57:28.232Z</time>
      </trkpt>
      <trkpt lat="44.11768" lon="3.12047">
        <ele>903</ele>
        <time>2014-09-06T08:57:35.288Z</time>
      </trkpt>
      <trkpt lat="44.11769" lon="3.12047">
        <ele>904</ele>
        <time>2014-09-06T08:57:36.231Z</time>
      </trkpt>
      <trkpt lat="44.11776" lon="3.1204">
        <ele>903</ele>
        <time>2014-09-06T08:57:54.259Z</time>
      </trkpt>
      <trkpt lat="44.11776" lon="3.12039">
        <ele>903</ele>
        <time>2014-09-06T08:57:55.250Z</time>
      </trkpt>
      <trkpt lat="44.11783" lon="3.12035">
        <ele>905</ele>
        <time>2014-09-06T08:58:05.257Z</time>
      </trkpt>
      <trkpt lat="44.11788" lon="3.12032">
        <ele>903</ele>
        <time>2014-09-06T08:58:06.254Z</time>
      </trkpt>
      <trkpt lat="44.11795" lon="3.12026">
        <ele>903</ele>
        <time>2014-09-06T08:58:08.264Z</time>
      </trkpt>
      <trkpt lat="44.11798" lon="3.12024">
        <ele>902</ele>
        <time>2014-09-06T08:58:09.263Z</time>
      </trkpt>
      <trkpt lat="44.11805" lon="3.12018">
        <ele>905</ele>
        <time>2014-09-06T08:58:11.256Z</time>
      </trkpt>
      <trkpt lat="44.11808" lon="3.12015">
        <ele>906</ele>
        <time>2014-09-06T08:58:12.262Z</time>
      </trkpt>
      <trkpt lat="44.11816" lon="3.12008">
        <ele>907</ele>
        <time>2014-09-06T08:58:14.259Z</time>
      </trkpt>
      <trkpt lat="44.11819" lon="3.12006">
        <ele>907</ele>
        <time>2014-09-06T08:58:15.262Z</time>
      </trkpt>
      <trkpt lat="44.11823" lon="3.12003">
        <ele>906</ele>
        <time>2014-09-06T08:58:16.258Z</time>
      </trkpt>
      <trkpt lat="44.11828" lon="3.12">
        <ele>904</ele>
        <time>2014-09-06T08:58:17.260Z</time>
      </trkpt>
      <trkpt lat="44.1185" lon="3.11983">
        <ele>901</ele>
        <time>2014-09-06T08:58:18.261Z</time>
      </trkpt>
      <trkpt lat="44.11858" lon="3.11979">
        <ele>898</ele>
        <time>2014-09-06T08:58:21.268Z</time>
      </trkpt>
      <trkpt lat="44.11861" lon="3.11978">
        <ele>897</ele>
        <time>2014-09-06T08:58:22.261Z</time>
      </trkpt>
      <trkpt lat="44.11868" lon="3.11977">
        <ele>896</ele>
        <time>2014-09-06T08:58:24.233Z</time>
      </trkpt>
      <trkpt lat="44.11871" lon="3.11976">
        <ele>897</ele>
        <time>2014-09-06T08:58:25.257Z</time>
      </trkpt>
      <trkpt lat="44.1188" lon="3.11972">
        <ele>899</ele>
        <time>2014-09-06T08:58:28.234Z</time>
      </trkpt>
      <trkpt lat="44.11882" lon="3.11972">
        <ele>900</ele>
        <time>2014-09-06T08:58:29.261Z</time>
      </trkpt>
      <trkpt lat="44.11889" lon="3.11967">
        <ele>897</ele>
        <time>2014-09-06T08:58:33.264Z</time>
      </trkpt>
      <trkpt lat="44.11891" lon="3.11965">
        <ele>897</ele>
        <time>2014-09-06T08:58:34.260Z</time>
      </trkpt>
      <trkpt lat="44.11895" lon="3.11956">
        <ele>897</ele>
        <time>2014-09-06T08:58:50.261Z</time>
      </trkpt>
      <trkpt lat="44.11897" lon="3.11954">
        <ele>899</ele>
        <time>2014-09-06T08:58:51.261Z</time>
      </trkpt>
      <trkpt lat="44.11904" lon="3.11948">
        <ele>899</ele>
        <time>2014-09-06T08:58:55.260Z</time>
      </trkpt>
      <trkpt lat="44.11906" lon="3.11949">
        <ele>898</ele>
        <time>2014-09-06T08:58:56.281Z</time>
      </trkpt>
      <trkpt lat="44.11914" lon="3.11947">
        <ele>905</ele>
        <time>2014-09-06T08:59:03.298Z</time>
      </trkpt>
      <trkpt lat="44.11916" lon="3.11946">
        <ele>907</ele>
        <time>2014-09-06T08:59:04.249Z</time>
      </trkpt>
      <trkpt lat="44.11924" lon="3.11942">
        <ele>907</ele>
        <time>2014-09-06T08:59:07.258Z</time>
      </trkpt>
      <trkpt lat="44.11927" lon="3.11941">
        <ele>907</ele>
        <time>2014-09-06T08:59:08.302Z</time>
      </trkpt>
      <trkpt lat="44.11933" lon="3.11937">
        <ele>907</ele>
        <time>2014-09-06T08:59:10.261Z</time>
      </trkpt>
      <trkpt lat="44.11936" lon="3.11936">
        <ele>908</ele>
        <time>2014-09-06T08:59:11.258Z</time>
      </trkpt>
      <trkpt lat="44.11944" lon="3.11933">
        <ele>913</ele>
        <time>2014-09-06T08:59:14.258Z</time>
      </trkpt>
      <trkpt lat="44.11948" lon="3.11932">
        <ele>912</ele>
        <time>2014-09-06T08:59:15.262Z</time>
      </trkpt>
      <trkpt lat="44.11955" lon="3.11929">
        <ele>911</ele>
        <time>2014-09-06T08:59:17.258Z</time>
      </trkpt>
      <trkpt lat="44.11959" lon="3.11927">
        <ele>910</ele>
        <time>2014-09-06T08:59:18.258Z</time>
      </trkpt>
      <trkpt lat="44.11965" lon="3.11925">
        <ele>910</ele>
        <time>2014-09-06T08:59:20.262Z</time>
      </trkpt>
      <trkpt lat="44.11969" lon="3.11923">
        <ele>912</ele>
        <time>2014-09-06T08:59:21.260Z</time>
      </trkpt>
      <trkpt lat="44.11976" lon="3.1192">
        <ele>911</ele>
        <time>2014-09-06T08:59:23.272Z</time>
      </trkpt>
      <trkpt lat="44.1198" lon="3.1192">
        <ele>913</ele>
        <time>2014-09-06T08:59:24.233Z</time>
      </trkpt>
      <trkpt lat="44.11987" lon="3.11919">
        <ele>912</ele>
        <time>2014-09-06T08:59:26.233Z</time>
      </trkpt>
      <trkpt lat="44.1199" lon="3.11918">
        <ele>912</ele>
        <time>2014-09-06T08:59:27.257Z</time>
      </trkpt>
      <trkpt lat="44.11998" lon="3.11916">
        <ele>913</ele>
        <time>2014-09-06T08:59:29.273Z</time>
      </trkpt>
      <trkpt lat="44.12002" lon="3.11915">
        <ele>913</ele>
        <time>2014-09-06T08:59:30.261Z</time>
      </trkpt>
      <trkpt lat="44.12008" lon="3.11913">
        <ele>915</ele>
        <time>2014-09-06T08:59:32.238Z</time>
      </trkpt>
      <trkpt lat="44.12012" lon="3.11912">
        <ele>913</ele>
        <time>2014-09-06T08:59:33.257Z</time>
      </trkpt>
      <trkpt lat="44.12018" lon="3.11913">
        <ele>913</ele>
        <time>2014-09-06T08:59:35.308Z</time>
      </trkpt>
      <trkpt lat="44.12021" lon="3.11913">
        <ele>914</ele>
        <time>2014-09-06T08:59:36.255Z</time>
      </trkpt>
      <trkpt lat="44.12029" lon="3.11909">
        <ele>912</ele>
        <time>2014-09-06T08:59:39.271Z</time>
      </trkpt>
      <trkpt lat="44.12031" lon="3.11908">
        <ele>913</ele>
        <time>2014-09-06T08:59:40.245Z</time>
      </trkpt>
      <trkpt lat="44.12039" lon="3.1191">
        <ele>914</ele>
        <time>2014-09-06T08:59:44.260Z</time>
      </trkpt>
      <trkpt lat="44.12042" lon="3.1191">
        <ele>914</ele>
        <time>2014-09-06T08:59:45.260Z</time>
      </trkpt>
      <trkpt lat="44.12047" lon="3.11908">
        <ele>917</ele>
        <time>2014-09-06T08:59:47.344Z</time>
      </trkpt>
      <trkpt lat="44.12051" lon="3.11906">
        <ele>917</ele>
        <time>2014-09-06T08:59:48.268Z</time>
      </trkpt>
      <trkpt lat="44.12056" lon="3.11902">
        <ele>917</ele>
        <time>2014-09-06T08:59:50.261Z</time>
      </trkpt>
      <trkpt lat="44.12059" lon="3.119">
        <ele>917</ele>
        <time>2014-09-06T08:59:51.388Z</time>
      </trkpt>
      <trkpt lat="44.12066" lon="3.119">
        <ele>910</ele>
        <time>2014-09-06T08:59:55.309Z</time>
      </trkpt>
      <trkpt lat="44.12068" lon="3.119">
        <ele>909</ele>
        <time>2014-09-06T08:59:56.256Z</time>
      </trkpt>
      <trkpt lat="44.12076" lon="3.11904">
        <ele>906</ele>
        <time>2014-09-06T09:00:01.260Z</time>
      </trkpt>
      <trkpt lat="44.12078" lon="3.11903">
        <ele>904</ele>
        <time>2014-09-06T09:00:02.265Z</time>
      </trkpt>
      <trkpt lat="44.12087" lon="3.11902">
        <ele>899</ele>
        <time>2014-09-06T09:00:06.263Z</time>
      </trkpt>
      <trkpt lat="44.12089" lon="3.11902">
        <ele>898</ele>
        <time>2014-09-06T09:00:07.285Z</time>
      </trkpt>
      <trkpt lat="44.12098" lon="3.11902">
        <ele>895</ele>
        <time>2014-09-06T09:00:10.256Z</time>
      </trkpt>
      <trkpt lat="44.121" lon="3.11903">
        <ele>895</ele>
        <time>2014-09-06T09:00:11.255Z</time>
      </trkpt>
      <trkpt lat="44.12093" lon="3.11898">
        <ele>891</ele>
        <time>2014-09-06T09:00:17.259Z</time>
      </trkpt>
      <trkpt lat="44.1209" lon="3.11895">
        <ele>894</ele>
        <time>2014-09-06T09:00:18.263Z</time>
      </trkpt>
      <trkpt lat="44.12081" lon="3.11892">
        <ele>895</ele>
        <time>2014-09-06T09:00:22.259Z</time>
      </trkpt>
      <trkpt lat="44.12079" lon="3.11892">
        <ele>895</ele>
        <time>2014-09-06T09:00:23.264Z</time>
      </trkpt>
      <trkpt lat="44.12071" lon="3.11889">
        <ele>896</ele>
        <time>2014-09-06T09:00:26.257Z</time>
      </trkpt>
      <trkpt lat="44.12067" lon="3.11887">
        <ele>893</ele>
        <time>2014-09-06T09:00:27.261Z</time>
      </trkpt>
      <trkpt lat="44.12061" lon="3.11879">
        <ele>893</ele>
        <time>2014-09-06T09:00:29.274Z</time>
      </trkpt>
      <trkpt lat="44.12059" lon="3.11874">
        <ele>894</ele>
        <time>2014-09-06T09:00:30.259Z</time>
      </trkpt>
      <trkpt lat="44.12056" lon="3.11865">
        <ele>893</ele>
        <time>2014-09-06T09:00:32.265Z</time>
      </trkpt>
      <trkpt lat="44.12055" lon="3.11861">
        <ele>893</ele>
        <time>2014-09-06T09:00:33.262Z</time>
      </trkpt>
      <trkpt lat="44.12053" lon="3.11853">
        <ele>893</ele>
        <time>2014-09-06T09:00:35.258Z</time>
      </trkpt>
      <trkpt lat="44.12051" lon="3.11849">
        <ele>892</ele>
        <time>2014-09-06T09:00:36.239Z</time>
      </trkpt>
      <trkpt lat="44.12048" lon="3.11841">
        <ele>889</ele>
        <time>2014-09-06T09:00:38.283Z</time>
      </trkpt>
      <trkpt lat="44.12047" lon="3.11838">
        <ele>890</ele>
        <time>2014-09-06T09:00:39.259Z</time>
      </trkpt>
      <trkpt lat="44.12042" lon="3.11829">
        <ele>894</ele>
        <time>2014-09-06T09:00:45.260Z</time>
      </trkpt>
      <trkpt lat="44.12041" lon="3.11827">
        <ele>893</ele>
        <time>2014-09-06T09:00:46.264Z</time>
      </trkpt>
      <trkpt lat="44.12035" lon="3.11819">
        <ele>894</ele>
        <time>2014-09-06T09:00:53.269Z</time>
      </trkpt>
      <trkpt lat="44.12033" lon="3.11818">
        <ele>893</ele>
        <time>2014-09-06T09:00:54.261Z</time>
      </trkpt>
      <trkpt lat="44.12027" lon="3.11812">
        <ele>894</ele>
        <time>2014-09-06T09:00:58.260Z</time>
      </trkpt>
      <trkpt lat="44.12024" lon="3.11811">
        <ele>895</ele>
        <time>2014-09-06T09:00:59.314Z</time>
      </trkpt>
      <trkpt lat="44.12018" lon="3.11802">
        <ele>891</ele>
        <time>2014-09-06T09:01:02.273Z</time>
      </trkpt>
      <trkpt lat="44.12016" lon="3.118">
        <ele>892</ele>
        <time>2014-09-06T09:01:03.333Z</time>
      </trkpt>
      <trkpt lat="44.1201" lon="3.11792">
        <ele>890</ele>
        <time>2014-09-06T09:01:06.265Z</time>
      </trkpt>
      <trkpt lat="44.12009" lon="3.11791">
        <ele>891</ele>
        <time>2014-09-06T09:01:07.242Z</time>
      </trkpt>
      <trkpt lat="44.12001" lon="3.1179">
        <ele>891</ele>
        <time>2014-09-06T09:01:11.260Z</time>
      </trkpt>
      <trkpt lat="44.11999" lon="3.1179">
        <ele>890</ele>
        <time>2014-09-06T09:01:12.261Z</time>
      </trkpt>
      <trkpt lat="44.1199" lon="3.11791">
        <ele>893</ele>
        <time>2014-09-06T09:01:15.256Z</time>
      </trkpt>
      <trkpt lat="44.11988" lon="3.11791">
        <ele>892</ele>
        <time>2014-09-06T09:01:16.222Z</time>
      </trkpt>
      <trkpt lat="44.11979" lon="3.11793">
        <ele>893</ele>
        <time>2014-09-06T09:01:20.256Z</time>
      </trkpt>
      <trkpt lat="44.11978" lon="3.11794">
        <ele>894</ele>
        <time>2014-09-06T09:01:21.261Z</time>
      </trkpt>
      <trkpt lat="44.1197" lon="3.11796">
        <ele>894</ele>
        <time>2014-09-06T09:01:25.251Z</time>
      </trkpt>
      <trkpt lat="44.11968" lon="3.11797">
        <ele>894</ele>
        <time>2014-09-06T09:01:26.264Z</time>
      </trkpt>
      <trkpt lat="44.1196" lon="3.11801">
        <ele>894</ele>
        <time>2014-09-06T09:01:33.262Z</time>
      </trkpt>
      <trkpt lat="44.11959" lon="3.11801">
        <ele>896</ele>
        <time>2014-09-06T09:01:34.261Z</time>
      </trkpt>
      <trkpt lat="44.11952" lon="3.11808">
        <ele>902</ele>
        <time>2014-09-06T09:01:40.232Z</time>
      </trkpt>
      <trkpt lat="44.11952" lon="3.11809">
        <ele>904</ele>
        <time>2014-09-06T09:01:41.284Z</time>
      </trkpt>
      <trkpt lat="44.11944" lon="3.11814">
        <ele>900</ele>
        <time>2014-09-06T09:01:47.251Z</time>
      </trkpt>
      <trkpt lat="44.11943" lon="3.11815">
        <ele>904</ele>
        <time>2014-09-06T09:01:48.259Z</time>
      </trkpt>
      <trkpt lat="44.11935" lon="3.1182">
        <ele>900</ele>
        <time>2014-09-06T09:01:53.253Z</time>
      </trkpt>
      <trkpt lat="44.11933" lon="3.11821">
        <ele>899</ele>
        <time>2014-09-06T09:01:54.266Z</time>
      </trkpt>
      <trkpt lat="44.11929" lon="3.11828">
        <ele>905</ele>
        <time>2014-09-06T09:01:59.408Z</time>
      </trkpt>
      <trkpt lat="44.11927" lon="3.11829">
        <ele>903</ele>
        <time>2014-09-06T09:02:00.230Z</time>
      </trkpt>
      <trkpt lat="44.11919" lon="3.1183">
        <ele>901</ele>
        <time>2014-09-06T09:02:05.261Z</time>
      </trkpt>
      <trkpt lat="44.11917" lon="3.11831">
        <ele>903</ele>
        <time>2014-09-06T09:02:06.258Z</time>
      </trkpt>
      <trkpt lat="44.11908" lon="3.11831">
        <ele>906</ele>
        <time>2014-09-06T09:02:11.257Z</time>
      </trkpt>
      <trkpt lat="44.11907" lon="3.11831">
        <ele>907</ele>
        <time>2014-09-06T09:02:12.390Z</time>
      </trkpt>
      <trkpt lat="44.119" lon="3.11834">
        <ele>907</ele>
        <time>2014-09-06T09:02:18.258Z</time>
      </trkpt>
      <trkpt lat="44.11897" lon="3.11835">
        <ele>905</ele>
        <time>2014-09-06T09:02:19.264Z</time>
      </trkpt>
      <trkpt lat="44.11889" lon="3.11835">
        <ele>904</ele>
        <time>2014-09-06T09:02:22.260Z</time>
      </trkpt>
      <trkpt lat="44.11886" lon="3.11835">
        <ele>903</ele>
        <time>2014-09-06T09:02:23.254Z</time>
      </trkpt>
      <trkpt lat="44.1188" lon="3.11834">
        <ele>905</ele>
        <time>2014-09-06T09:02:25.265Z</time>
      </trkpt>
      <trkpt lat="44.11877" lon="3.11833">
        <ele>903</ele>
        <time>2014-09-06T09:02:26.266Z</time>
      </trkpt>
      <trkpt lat="44.11868" lon="3.11833">
        <ele>905</ele>
        <time>2014-09-06T09:02:29.337Z</time>
      </trkpt>
      <trkpt lat="44.11866" lon="3.11832">
        <ele>908</ele>
        <time>2014-09-06T09:02:30.234Z</time>
      </trkpt>
      <trkpt lat="44.11857" lon="3.11832">
        <ele>908</ele>
        <time>2014-09-06T09:02:34.267Z</time>
      </trkpt>
      <trkpt lat="44.11855" lon="3.11833">
        <ele>907</ele>
        <time>2014-09-06T09:02:35.257Z</time>
      </trkpt>
      <trkpt lat="44.11848" lon="3.11834">
        <ele>905</ele>
        <time>2014-09-06T09:02:38.261Z</time>
      </trkpt>
      <trkpt lat="44.11846" lon="3.11835">
        <ele>906</ele>
        <time>2014-09-06T09:02:39.261Z</time>
      </trkpt>
      <trkpt lat="44.11839" lon="3.11833">
        <ele>907</ele>
        <time>2014-09-06T09:02:42.261Z</time>
      </trkpt>
      <trkpt lat="44.11837" lon="3.11831">
        <ele>906</ele>
        <time>2014-09-06T09:02:43.262Z</time>
      </trkpt>
      <trkpt lat="44.11831" lon="3.11826">
        <ele>908</ele>
        <time>2014-09-06T09:02:46.268Z</time>
      </trkpt>
      <trkpt lat="44.11829" lon="3.11824">
        <ele>909</ele>
        <time>2014-09-06T09:02:47.263Z</time>
      </trkpt>
      <trkpt lat="44.11823" lon="3.11816">
        <ele>911</ele>
        <time>2014-09-06T09:02:51.261Z</time>
      </trkpt>
      <trkpt lat="44.11821" lon="3.11816">
        <ele>913</ele>
        <time>2014-09-06T09:02:52.263Z</time>
      </trkpt>
      <trkpt lat="44.11816" lon="3.11807">
        <ele>909</ele>
        <time>2014-09-06T09:02:58.261Z</time>
      </trkpt>
      <trkpt lat="44.11815" lon="3.11805">
        <ele>910</ele>
        <time>2014-09-06T09:02:59.357Z</time>
      </trkpt>
      <trkpt lat="44.11809" lon="3.118">
        <ele>910</ele>
        <time>2014-09-06T09:03:02.263Z</time>
      </trkpt>
      <trkpt lat="44.11807" lon="3.11798">
        <ele>910</ele>
        <time>2014-09-06T09:03:03.270Z</time>
      </trkpt>
      <trkpt lat="44.118" lon="3.11793">
        <ele>908</ele>
        <time>2014-09-06T09:03:05.266Z</time>
      </trkpt>
      <trkpt lat="44.11797" lon="3.11792">
        <ele>909</ele>
        <time>2014-09-06T09:03:06.258Z</time>
      </trkpt>
      <trkpt lat="44.11789" lon="3.11785">
        <ele>916</ele>
        <time>2014-09-06T09:03:12.235Z</time>
      </trkpt>
      <trkpt lat="44.11788" lon="3.11785">
        <ele>916</ele>
        <time>2014-09-06T09:03:13.261Z</time>
      </trkpt>
      <trkpt lat="44.11781" lon="3.11778">
        <ele>919</ele>
        <time>2014-09-06T09:03:20.234Z</time>
      </trkpt>
      <trkpt lat="44.1178" lon="3.11776">
        <ele>920</ele>
        <time>2014-09-06T09:03:21.256Z</time>
      </trkpt>
      <trkpt lat="44.11774" lon="3.11768">
        <ele>914</ele>
        <time>2014-09-06T09:03:25.046Z</time>
      </trkpt>
      <trkpt lat="44.11772" lon="3.11766">
        <ele>913</ele>
        <time>2014-09-06T09:03:25.477Z</time>
      </trkpt>
      <trkpt lat="44.11765" lon="3.1176">
        <ele>909</ele>
        <time>2014-09-06T09:03:28.262Z</time>
      </trkpt>
      <trkpt lat="44.11762" lon="3.11759">
        <ele>909</ele>
        <time>2014-09-06T09:03:29.340Z</time>
      </trkpt>
      <trkpt lat="44.11756" lon="3.11753">
        <ele>905</ele>
        <time>2014-09-06T09:03:31.269Z</time>
      </trkpt>
      <trkpt lat="44.11753" lon="3.1175">
        <ele>905</ele>
        <time>2014-09-06T09:03:32.259Z</time>
      </trkpt>
      <trkpt lat="44.11744" lon="3.11747">
        <ele>904</ele>
        <time>2014-09-06T09:03:35.261Z</time>
      </trkpt>
      <trkpt lat="44.11742" lon="3.11745">
        <ele>905</ele>
        <time>2014-09-06T09:03:36.260Z</time>
      </trkpt>
      <trkpt lat="44.11735" lon="3.11738">
        <ele>912</ele>
        <time>2014-09-06T09:03:46.258Z</time>
      </trkpt>
      <trkpt lat="44.11734" lon="3.11737">
        <ele>913</ele>
        <time>2014-09-06T09:03:47.251Z</time>
      </trkpt>
      <trkpt lat="44.11727" lon="3.11734">
        <ele>914</ele>
        <time>2014-09-06T09:03:52.262Z</time>
      </trkpt>
      <trkpt lat="44.11725" lon="3.11733">
        <ele>914</ele>
        <time>2014-09-06T09:03:53.262Z</time>
      </trkpt>
      <trkpt lat="44.11717" lon="3.11729">
        <ele>911</ele>
        <time>2014-09-06T09:03:57.403Z</time>
      </trkpt>
      <trkpt lat="44.11716" lon="3.11728">
        <ele>911</ele>
        <time>2014-09-06T09:03:58.261Z</time>
      </trkpt>
      <trkpt lat="44.11709" lon="3.11724">
        <ele>910</ele>
        <time>2014-09-06T09:04:02.261Z</time>
      </trkpt>
      <trkpt lat="44.11707" lon="3.11723">
        <ele>908</ele>
        <time>2014-09-06T09:04:03.285Z</time>
      </trkpt>
      <trkpt lat="44.11699" lon="3.11721">
        <ele>911</ele>
        <time>2014-09-06T09:04:07.257Z</time>
      </trkpt>
      <trkpt lat="44.11697" lon="3.1172">
        <ele>913</ele>
        <time>2014-09-06T09:04:08.256Z</time>
      </trkpt>
      <trkpt lat="44.11689" lon="3.11715">
        <ele>911</ele>
        <time>2014-09-06T09:04:11.261Z</time>
      </trkpt>
      <trkpt lat="44.11685" lon="3.11713">
        <ele>913</ele>
        <time>2014-09-06T09:04:12.257Z</time>
      </trkpt>
      <trkpt lat="44.11677" lon="3.11712">
        <ele>913</ele>
        <time>2014-09-06T09:04:15.217Z</time>
      </trkpt>
      <trkpt lat="44.11676" lon="3.11712">
        <ele>913</ele>
        <time>2014-09-06T09:04:16.228Z</time>
      </trkpt>
      <trkpt lat="44.11668" lon="3.11709">
        <ele>916</ele>
        <time>2014-09-06T09:04:21.274Z</time>
      </trkpt>
      <trkpt lat="44.11667" lon="3.11709">
        <ele>915</ele>
        <time>2014-09-06T09:04:22.232Z</time>
      </trkpt>
      <trkpt lat="44.11659" lon="3.1171">
        <ele>913</ele>
        <time>2014-09-06T09:04:26.256Z</time>
      </trkpt>
      <trkpt lat="44.11656" lon="3.11709">
        <ele>913</ele>
        <time>2014-09-06T09:04:27.260Z</time>
      </trkpt>
      <trkpt lat="44.11651" lon="3.11705">
        <ele>911</ele>
        <time>2014-09-06T09:04:29.253Z</time>
      </trkpt>
      <trkpt lat="44.11648" lon="3.11703">
        <ele>909</ele>
        <time>2014-09-06T09:04:30.235Z</time>
      </trkpt>
      <trkpt lat="44.11639" lon="3.11702">
        <ele>909</ele>
        <time>2014-09-06T09:04:34.262Z</time>
      </trkpt>
      <trkpt lat="44.11638" lon="3.11703">
        <ele>911</ele>
        <time>2014-09-06T09:04:35.258Z</time>
      </trkpt>
      <trkpt lat="44.11629" lon="3.11707">
        <ele>917</ele>
        <time>2014-09-06T09:04:40.260Z</time>
      </trkpt>
      <trkpt lat="44.11628" lon="3.11708">
        <ele>919</ele>
        <time>2014-09-06T09:04:41.265Z</time>
      </trkpt>
      <trkpt lat="44.1162" lon="3.11713">
        <ele>920</ele>
        <time>2014-09-06T09:04:48.268Z</time>
      </trkpt>
      <trkpt lat="44.11618" lon="3.11714">
        <ele>920</ele>
        <time>2014-09-06T09:04:49.278Z</time>
      </trkpt>
      <trkpt lat="44.11611" lon="3.11716">
        <ele>919</ele>
        <time>2014-09-06T09:04:52.247Z</time>
      </trkpt>
      <trkpt lat="44.11609" lon="3.11716">
        <ele>918</ele>
        <time>2014-09-06T09:04:53.270Z</time>
      </trkpt>
      <trkpt lat="44.116" lon="3.11718">
        <ele>914</ele>
        <time>2014-09-06T09:04:56.277Z</time>
      </trkpt>
      <trkpt lat="44.11598" lon="3.11717">
        <ele>915</ele>
        <time>2014-09-06T09:04:57.380Z</time>
      </trkpt>
      <trkpt lat="44.1159" lon="3.11718">
        <ele>917</ele>
        <time>2014-09-06T09:05:01.264Z</time>
      </trkpt>
      <trkpt lat="44.11588" lon="3.11717">
        <ele>917</ele>
        <time>2014-09-06T09:05:02.254Z</time>
      </trkpt>
      <trkpt lat="44.11579" lon="3.11715">
        <ele>913</ele>
        <time>2014-09-06T09:05:06.245Z</time>
      </trkpt>
      <trkpt lat="44.11578" lon="3.11714">
        <ele>913</ele>
        <time>2014-09-06T09:05:07.254Z</time>
      </trkpt>
      <trkpt lat="44.11569" lon="3.11711">
        <ele>912</ele>
        <time>2014-09-06T09:05:11.242Z</time>
      </trkpt>
      <trkpt lat="44.11566" lon="3.1171">
        <ele>913</ele>
        <time>2014-09-06T09:05:12.251Z</time>
      </trkpt>
      <trkpt lat="44.11559" lon="3.11707">
        <ele>913</ele>
        <time>2014-09-06T09:05:15.241Z</time>
      </trkpt>
      <trkpt lat="44.11557" lon="3.11706">
        <ele>912</ele>
        <time>2014-09-06T09:05:16.820Z</time>
      </trkpt>
      <trkpt lat="44.11549" lon="3.11702">
        <ele>912</ele>
        <time>2014-09-06T09:05:20.256Z</time>
      </trkpt>
      <trkpt lat="44.11547" lon="3.117">
        <ele>913</ele>
        <time>2014-09-06T09:05:22.008Z</time>
      </trkpt>
      <trkpt lat="44.1154" lon="3.11698">
        <ele>917</ele>
        <time>2014-09-06T09:05:25.246Z</time>
      </trkpt>
      <trkpt lat="44.11537" lon="3.11697">
        <ele>916</ele>
        <time>2014-09-06T09:05:26.262Z</time>
      </trkpt>
      <trkpt lat="44.11532" lon="3.11694">
        <ele>917</ele>
        <time>2014-09-06T09:05:28.259Z</time>
      </trkpt>
      <trkpt lat="44.11528" lon="3.11691">
        <ele>917</ele>
        <time>2014-09-06T09:05:29.254Z</time>
      </trkpt>
      <trkpt lat="44.11523" lon="3.11688">
        <ele>916</ele>
        <time>2014-09-06T09:05:30.274Z</time>
      </trkpt>
      <trkpt lat="44.11519" lon="3.11684">
        <ele>916</ele>
        <time>2014-09-06T09:05:31.257Z</time>
      </trkpt>
      <trkpt lat="44.11511" lon="3.11679">
        <ele>918</ele>
        <time>2014-09-06T09:05:34.236Z</time>
      </trkpt>
      <trkpt lat="44.11509" lon="3.1168">
        <ele>917</ele>
        <time>2014-09-06T09:05:35.257Z</time>
      </trkpt>
      <trkpt lat="44.11501" lon="3.11684">
        <ele>922</ele>
        <time>2014-09-06T09:05:43.294Z</time>
      </trkpt>
      <trkpt lat="44.11499" lon="3.11683">
        <ele>919</ele>
        <time>2014-09-06T09:05:44.292Z</time>
      </trkpt>
      <trkpt lat="44.1149" lon="3.11683">
        <ele>918</ele>
        <time>2014-09-06T09:05:49.256Z</time>
      </trkpt>
      <trkpt lat="44.11489" lon="3.11682">
        <ele>918</ele>
        <time>2014-09-06T09:05:50.260Z</time>
      </trkpt>
      <trkpt lat="44.1148" lon="3.1168">
        <ele>914</ele>
        <time>2014-09-06T09:05:54.259Z</time>
      </trkpt>
      <trkpt lat="44.11478" lon="3.11679">
        <ele>913</ele>
        <time>2014-09-06T09:05:55.256Z</time>
      </trkpt>
      <trkpt lat="44.1147" lon="3.11675">
        <ele>914</ele>
        <time>2014-09-06T09:05:57.256Z</time>
      </trkpt>
      <trkpt lat="44.11467" lon="3.11673">
        <ele>913</ele>
        <time>2014-09-06T09:05:58.267Z</time>
      </trkpt>
      <trkpt lat="44.11462" lon="3.11668">
        <ele>915</ele>
        <time>2014-09-06T09:06:00.232Z</time>
      </trkpt>
      <trkpt lat="44.11459" lon="3.11666">
        <ele>915</ele>
        <time>2014-09-06T09:06:01.256Z</time>
      </trkpt>
      <trkpt lat="44.11451" lon="3.1166">
        <ele>914</ele>
        <time>2014-09-06T09:06:04.258Z</time>
      </trkpt>
      <trkpt lat="44.11448" lon="3.11659">
        <ele>912</ele>
        <time>2014-09-06T09:06:05.253Z</time>
      </trkpt>
      <trkpt lat="44.11439" lon="3.11657">
        <ele>914</ele>
        <time>2014-09-06T09:06:08.247Z</time>
      </trkpt>
      <trkpt lat="44.11436" lon="3.11657">
        <ele>913</ele>
        <time>2014-09-06T09:06:09.258Z</time>
      </trkpt>
      <trkpt lat="44.11429" lon="3.11655">
        <ele>914</ele>
        <time>2014-09-06T09:06:11.295Z</time>
      </trkpt>
      <trkpt lat="44.11424" lon="3.11654">
        <ele>914</ele>
        <time>2014-09-06T09:06:12.248Z</time>
      </trkpt>
      <trkpt lat="44.11416" lon="3.11652">
        <ele>910</ele>
        <time>2014-09-06T09:06:14.287Z</time>
      </trkpt>
      <trkpt lat="44.11414" lon="3.11652">
        <ele>912</ele>
        <time>2014-09-06T09:06:15.674Z</time>
      </trkpt>
      <trkpt lat="44.11406" lon="3.11651">
        <ele>910</ele>
        <time>2014-09-06T09:06:18.259Z</time>
      </trkpt>
      <trkpt lat="44.11404" lon="3.11651">
        <ele>910</ele>
        <time>2014-09-06T09:06:19.270Z</time>
      </trkpt>
      <trkpt lat="44.11397" lon="3.11648">
        <ele>908</ele>
        <time>2014-09-06T09:06:22.241Z</time>
      </trkpt>
      <trkpt lat="44.11395" lon="3.11648">
        <ele>908</ele>
        <time>2014-09-06T09:06:23.252Z</time>
      </trkpt>
      <trkpt lat="44.11387" lon="3.11647">
        <ele>909</ele>
        <time>2014-09-06T09:06:26.258Z</time>
      </trkpt>
      <trkpt lat="44.11384" lon="3.11648">
        <ele>908</ele>
        <time>2014-09-06T09:06:27.256Z</time>
      </trkpt>
      <trkpt lat="44.11377" lon="3.11645">
        <ele>908</ele>
        <time>2014-09-06T09:06:30.255Z</time>
      </trkpt>
      <trkpt lat="44.11375" lon="3.11643">
        <ele>905</ele>
        <time>2014-09-06T09:06:31.259Z</time>
      </trkpt>
      <trkpt lat="44.11367" lon="3.11641">
        <ele>905</ele>
        <time>2014-09-06T09:06:35.255Z</time>
      </trkpt>
      <trkpt lat="44.11365" lon="3.1164">
        <ele>904</ele>
        <time>2014-09-06T09:06:36.256Z</time>
      </trkpt>
      <trkpt lat="44.11357" lon="3.11637">
        <ele>911</ele>
        <time>2014-09-06T09:06:46.259Z</time>
      </trkpt>
      <trkpt lat="44.11355" lon="3.11636">
        <ele>909</ele>
        <time>2014-09-06T09:06:47.253Z</time>
      </trkpt>
      <trkpt lat="44.11348" lon="3.11632">
        <ele>907</ele>
        <time>2014-09-06T09:06:51.255Z</time>
      </trkpt>
      <trkpt lat="44.11346" lon="3.11631">
        <ele>910</ele>
        <time>2014-09-06T09:06:52.255Z</time>
      </trkpt>
      <trkpt lat="44.11338" lon="3.1163">
        <ele>915</ele>
        <time>2014-09-06T09:06:56.259Z</time>
      </trkpt>
      <trkpt lat="44.11336" lon="3.11629">
        <ele>915</ele>
        <time>2014-09-06T09:06:57.231Z</time>
      </trkpt>
      <trkpt lat="44.11328" lon="3.11627">
        <ele>909</ele>
        <time>2014-09-06T09:07:00.256Z</time>
      </trkpt>
      <trkpt lat="44.11325" lon="3.11625">
        <ele>906</ele>
        <time>2014-09-06T09:07:01.235Z</time>
      </trkpt>
      <trkpt lat="44.11317" lon="3.11622">
        <ele>905</ele>
        <time>2014-09-06T09:07:04.259Z</time>
      </trkpt>
      <trkpt lat="44.11314" lon="3.11622">
        <ele>903</ele>
        <time>2014-09-06T09:07:05.255Z</time>
      </trkpt>
      <trkpt lat="44.11307" lon="3.11622">
        <ele>903</ele>
        <time>2014-09-06T09:07:07.259Z</time>
      </trkpt>
      <trkpt lat="44.11303" lon="3.11622">
        <ele>902</ele>
        <time>2014-09-06T09:07:08.257Z</time>
      </trkpt>
      <trkpt lat="44.11294" lon="3.11624">
        <ele>901</ele>
        <time>2014-09-06T09:07:10.257Z</time>
      </trkpt>
      <trkpt lat="44.1129" lon="3.11624">
        <ele>902</ele>
        <time>2014-09-06T09:07:11.269Z</time>
      </trkpt>
      <trkpt lat="44.11285" lon="3.11624">
        <ele>901</ele>
        <time>2014-09-06T09:07:12.264Z</time>
      </trkpt>
      <trkpt lat="44.1128" lon="3.11624">
        <ele>902</ele>
        <time>2014-09-06T09:07:13.247Z</time>
      </trkpt>
      <trkpt lat="44.11273" lon="3.11625">
        <ele>903</ele>
        <time>2014-09-06T09:07:15.263Z</time>
      </trkpt>
      <trkpt lat="44.1127" lon="3.11625">
        <ele>903</ele>
        <time>2014-09-06T09:07:16.260Z</time>
      </trkpt>
      <trkpt lat="44.11262" lon="3.11626">
        <ele>901</ele>
        <time>2014-09-06T09:07:19.260Z</time>
      </trkpt>
      <trkpt lat="44.11259" lon="3.11627">
        <ele>901</ele>
        <time>2014-09-06T09:07:20.261Z</time>
      </trkpt>
      <trkpt lat="44.11251" lon="3.11629">
        <ele>896</ele>
        <time>2014-09-06T09:07:24.260Z</time>
      </trkpt>
      <trkpt lat="44.11249" lon="3.11629">
        <ele>896</ele>
        <time>2014-09-06T09:07:25.262Z</time>
      </trkpt>
      <trkpt lat="44.11241" lon="3.11632">
        <ele>894</ele>
        <time>2014-09-06T09:07:29.258Z</time>
      </trkpt>
      <trkpt lat="44.11238" lon="3.11632">
        <ele>894</ele>
        <time>2014-09-06T09:07:30.261Z</time>
      </trkpt>
      <trkpt lat="44.11231" lon="3.11634">
        <ele>894</ele>
        <time>2014-09-06T09:07:33.232Z</time>
      </trkpt>
      <trkpt lat="44.11229" lon="3.11635">
        <ele>894</ele>
        <time>2014-09-06T09:07:34.260Z</time>
      </trkpt>
      <trkpt lat="44.1122" lon="3.11635">
        <ele>893</ele>
        <time>2014-09-06T09:07:37.256Z</time>
      </trkpt>
      <trkpt lat="44.11216" lon="3.11634">
        <ele>890</ele>
        <time>2014-09-06T09:07:38.257Z</time>
      </trkpt>
      <trkpt lat="44.11207" lon="3.11631">
        <ele>884</ele>
        <time>2014-09-06T09:07:41.225Z</time>
      </trkpt>
      <trkpt lat="44.11205" lon="3.1163">
        <ele>883</ele>
        <time>2014-09-06T09:07:42.260Z</time>
      </trkpt>
      <trkpt lat="44.11198" lon="3.11628">
        <ele>881</ele>
        <time>2014-09-06T09:07:44.292Z</time>
      </trkpt>
      <trkpt lat="44.11195" lon="3.11627">
        <ele>880</ele>
        <time>2014-09-06T09:07:45.236Z</time>
      </trkpt>
      <trkpt lat="44.11188" lon="3.11625">
        <ele>878</ele>
        <time>2014-09-06T09:07:47.259Z</time>
      </trkpt>
      <trkpt lat="44.11185" lon="3.11624">
        <ele>877</ele>
        <time>2014-09-06T09:07:48.255Z</time>
      </trkpt>
      <trkpt lat="44.11178" lon="3.11623">
        <ele>880</ele>
        <time>2014-09-06T09:07:50.261Z</time>
      </trkpt>
      <trkpt lat="44.11175" lon="3.11622">
        <ele>881</ele>
        <time>2014-09-06T09:07:51.258Z</time>
      </trkpt>
      <trkpt lat="44.11168" lon="3.11619">
        <ele>880</ele>
        <time>2014-09-06T09:07:53.254Z</time>
      </trkpt>
      <trkpt lat="44.11166" lon="3.11618">
        <ele>880</ele>
        <time>2014-09-06T09:07:54.255Z</time>
      </trkpt>
      <trkpt lat="44.1116" lon="3.11612">
        <ele>880</ele>
        <time>2014-09-06T09:07:57.260Z</time>
      </trkpt>
      <trkpt lat="44.11158" lon="3.11612">
        <ele>879</ele>
        <time>2014-09-06T09:07:58.255Z</time>
      </trkpt>
      <trkpt lat="44.11151" lon="3.11611">
        <ele>879</ele>
        <time>2014-09-06T09:08:00.297Z</time>
      </trkpt>
      <trkpt lat="44.11149" lon="3.1161">
        <ele>878</ele>
        <time>2014-09-06T09:08:01.255Z</time>
      </trkpt>
      <trkpt lat="44.1114" lon="3.11611">
        <ele>876</ele>
        <time>2014-09-06T09:08:04.250Z</time>
      </trkpt>
      <trkpt lat="44.11137" lon="3.1161">
        <ele>875</ele>
        <time>2014-09-06T09:08:05.256Z</time>
      </trkpt>
      <trkpt lat="44.11128" lon="3.11608">
        <ele>875</ele>
        <time>2014-09-06T09:08:08.232Z</time>
      </trkpt>
      <trkpt lat="44.11125" lon="3.11608">
        <ele>876</ele>
        <time>2014-09-06T09:08:09.259Z</time>
      </trkpt>
      <trkpt lat="44.11119" lon="3.11606">
        <ele>874</ele>
        <time>2014-09-06T09:08:11.259Z</time>
      </trkpt>
      <trkpt lat="44.11117" lon="3.11603">
        <ele>872</ele>
        <time>2014-09-06T09:08:12.256Z</time>
      </trkpt>
      <trkpt lat="44.1111" lon="3.11599">
        <ele>872</ele>
        <time>2014-09-06T09:08:14.261Z</time>
      </trkpt>
      <trkpt lat="44.11108" lon="3.11599">
        <ele>873</ele>
        <time>2014-09-06T09:08:15.259Z</time>
      </trkpt>
      <trkpt lat="44.11101" lon="3.11599">
        <ele>869</ele>
        <time>2014-09-06T09:08:18.240Z</time>
      </trkpt>
      <trkpt lat="44.11099" lon="3.11599">
        <ele>869</ele>
        <time>2014-09-06T09:08:19.262Z</time>
      </trkpt>
      <trkpt lat="44.11092" lon="3.11593">
        <ele>869</ele>
        <time>2014-09-06T09:08:22.260Z</time>
      </trkpt>
      <trkpt lat="44.1109" lon="3.11589">
        <ele>868</ele>
        <time>2014-09-06T09:08:23.261Z</time>
      </trkpt>
      <trkpt lat="44.11089" lon="3.1158">
        <ele>862</ele>
        <time>2014-09-06T09:08:25.241Z</time>
      </trkpt>
      <trkpt lat="44.11089" lon="3.11576">
        <ele>862</ele>
        <time>2014-09-06T09:08:26.260Z</time>
      </trkpt>
      <trkpt lat="44.11094" lon="3.11568">
        <ele>865</ele>
        <time>2014-09-06T09:08:30.261Z</time>
      </trkpt>
      <trkpt lat="44.11096" lon="3.11566">
        <ele>864</ele>
        <time>2014-09-06T09:08:31.287Z</time>
      </trkpt>
      <trkpt lat="44.11101" lon="3.11557">
        <ele>865</ele>
        <time>2014-09-06T09:08:36.262Z</time>
      </trkpt>
      <trkpt lat="44.11102" lon="3.11555">
        <ele>863</ele>
        <time>2014-09-06T09:08:37.244Z</time>
      </trkpt>
      <trkpt lat="44.11107" lon="3.11547">
        <ele>864</ele>
        <time>2014-09-06T09:08:42.257Z</time>
      </trkpt>
      <trkpt lat="44.11108" lon="3.11545">
        <ele>865</ele>
        <time>2014-09-06T09:08:43.256Z</time>
      </trkpt>
      <trkpt lat="44.11114" lon="3.11539">
        <ele>868</ele>
        <time>2014-09-06T09:08:47.260Z</time>
      </trkpt>
      <trkpt lat="44.11115" lon="3.11536">
        <ele>867</ele>
        <time>2014-09-06T09:08:48.264Z</time>
      </trkpt>
      <trkpt lat="44.11119" lon="3.11527">
        <ele>868</ele>
        <time>2014-09-06T09:08:52.230Z</time>
      </trkpt>
      <trkpt lat="44.1112" lon="3.11525">
        <ele>870</ele>
        <time>2014-09-06T09:08:53.250Z</time>
      </trkpt>
      <trkpt lat="44.11124" lon="3.11515">
        <ele>872</ele>
        <time>2014-09-06T09:08:58.260Z</time>
      </trkpt>
      <trkpt lat="44.11125" lon="3.11513">
        <ele>872</ele>
        <time>2014-09-06T09:08:59.255Z</time>
      </trkpt>
      <trkpt lat="44.11131" lon="3.11506">
        <ele>875</ele>
        <time>2014-09-06T09:09:03.262Z</time>
      </trkpt>
      <trkpt lat="44.11132" lon="3.11505">
        <ele>877</ele>
        <time>2014-09-06T09:09:04.254Z</time>
      </trkpt>
      <trkpt lat="44.11138" lon="3.11496">
        <ele>876</ele>
        <time>2014-09-06T09:09:08.267Z</time>
      </trkpt>
      <trkpt lat="44.1114" lon="3.11493">
        <ele>874</ele>
        <time>2014-09-06T09:09:09.258Z</time>
      </trkpt>
      <trkpt lat="44.11145" lon="3.11486">
        <ele>874</ele>
        <time>2014-09-06T09:09:12.230Z</time>
      </trkpt>
      <trkpt lat="44.11146" lon="3.11484">
        <ele>874</ele>
        <time>2014-09-06T09:09:13.261Z</time>
      </trkpt>
      <trkpt lat="44.11153" lon="3.11477">
        <ele>878</ele>
        <time>2014-09-06T09:09:17.257Z</time>
      </trkpt>
      <trkpt lat="44.11155" lon="3.11476">
        <ele>878</ele>
        <time>2014-09-06T09:09:18.255Z</time>
      </trkpt>
      <trkpt lat="44.11163" lon="3.11472">
        <ele>880</ele>
        <time>2014-09-06T09:09:22.259Z</time>
      </trkpt>
      <trkpt lat="44.11165" lon="3.11471">
        <ele>880</ele>
        <time>2014-09-06T09:09:23.262Z</time>
      </trkpt>
      <trkpt lat="44.11171" lon="3.11467">
        <ele>881</ele>
        <time>2014-09-06T09:09:26.259Z</time>
      </trkpt>
      <trkpt lat="44.11174" lon="3.11465">
        <ele>881</ele>
        <time>2014-09-06T09:09:27.257Z</time>
      </trkpt>
      <trkpt lat="44.11182" lon="3.11462">
        <ele>880</ele>
        <time>2014-09-06T09:09:30.261Z</time>
      </trkpt>
      <trkpt lat="44.11184" lon="3.11461">
        <ele>881</ele>
        <time>2014-09-06T09:09:31.258Z</time>
      </trkpt>
      <trkpt lat="44.11191" lon="3.11457">
        <ele>882</ele>
        <time>2014-09-06T09:09:35.260Z</time>
      </trkpt>
      <trkpt lat="44.11193" lon="3.11457">
        <ele>880</ele>
        <time>2014-09-06T09:09:36.258Z</time>
      </trkpt>
      <trkpt lat="44.11201" lon="3.11453">
        <ele>881</ele>
        <time>2014-09-06T09:09:40.348Z</time>
      </trkpt>
      <trkpt lat="44.11203" lon="3.11452">
        <ele>880</ele>
        <time>2014-09-06T09:09:41.234Z</time>
      </trkpt>
      <trkpt lat="44.11212" lon="3.11452">
        <ele>881</ele>
        <time>2014-09-06T09:09:45.233Z</time>
      </trkpt>
      <trkpt lat="44.11215" lon="3.11453">
        <ele>879</ele>
        <time>2014-09-06T09:09:46.268Z</time>
      </trkpt>
      <trkpt lat="44.11223" lon="3.11452">
        <ele>883</ele>
        <time>2014-09-06T09:09:53.255Z</time>
      </trkpt>
      <trkpt lat="44.11224" lon="3.11451">
        <ele>885</ele>
        <time>2014-09-06T09:09:54.263Z</time>
      </trkpt>
      <trkpt lat="44.11232" lon="3.11451">
        <ele>883</ele>
        <time>2014-09-06T09:09:59.242Z</time>
      </trkpt>
      <trkpt lat="44.11236" lon="3.11451">
        <ele>884</ele>
        <time>2014-09-06T09:10:00.233Z</time>
      </trkpt>
      <trkpt lat="44.11242" lon="3.1145">
        <ele>883</ele>
        <time>2014-09-06T09:10:02.257Z</time>
      </trkpt>
      <trkpt lat="44.11245" lon="3.1145">
        <ele>882</ele>
        <time>2014-09-06T09:10:03.299Z</time>
      </trkpt>
      <trkpt lat="44.11253" lon="3.11452">
        <ele>883</ele>
        <time>2014-09-06T09:10:06.255Z</time>
      </trkpt>
      <trkpt lat="44.11255" lon="3.11454">
        <ele>883</ele>
        <time>2014-09-06T09:10:07.259Z</time>
      </trkpt>
      <trkpt lat="44.11262" lon="3.11455">
        <ele>880</ele>
        <time>2014-09-06T09:10:10.254Z</time>
      </trkpt>
      <trkpt lat="44.11266" lon="3.11455">
        <ele>880</ele>
        <time>2014-09-06T09:10:11.260Z</time>
      </trkpt>
      <trkpt lat="44.11272" lon="3.11454">
        <ele>879</ele>
        <time>2014-09-06T09:10:13.224Z</time>
      </trkpt>
      <trkpt lat="44.11275" lon="3.11454">
        <ele>879</ele>
        <time>2014-09-06T09:10:14.269Z</time>
      </trkpt>
      <trkpt lat="44.11283" lon="3.11454">
        <ele>879</ele>
        <time>2014-09-06T09:10:17.258Z</time>
      </trkpt>
      <trkpt lat="44.11286" lon="3.11454">
        <ele>879</ele>
        <time>2014-09-06T09:10:18.253Z</time>
      </trkpt>
      <trkpt lat="44.11294" lon="3.11452">
        <ele>876</ele>
        <time>2014-09-06T09:10:21.231Z</time>
      </trkpt>
      <trkpt lat="44.11296" lon="3.11451">
        <ele>875</ele>
        <time>2014-09-06T09:10:22.241Z</time>
      </trkpt>
      <trkpt lat="44.11303" lon="3.11449">
        <ele>875</ele>
        <time>2014-09-06T09:10:25.258Z</time>
      </trkpt>
      <trkpt lat="44.11305" lon="3.11449">
        <ele>875</ele>
        <time>2014-09-06T09:10:26.261Z</time>
      </trkpt>
      <trkpt lat="44.11313" lon="3.11448">
        <ele>878</ele>
        <time>2014-09-06T09:10:32.257Z</time>
      </trkpt>
      <trkpt lat="44.11314" lon="3.11447">
        <ele>877</ele>
        <time>2014-09-06T09:10:33.258Z</time>
      </trkpt>
      <trkpt lat="44.1132" lon="3.11439">
        <ele>882</ele>
        <time>2014-09-06T09:10:38.260Z</time>
      </trkpt>
      <trkpt lat="44.11322" lon="3.11437">
        <ele>882</ele>
        <time>2014-09-06T09:10:39.256Z</time>
      </trkpt>
      <trkpt lat="44.11329" lon="3.1143">
        <ele>879</ele>
        <time>2014-09-06T09:10:42.258Z</time>
      </trkpt>
      <trkpt lat="44.1133" lon="3.11429">
        <ele>877</ele>
        <time>2014-09-06T09:10:43.259Z</time>
      </trkpt>
      <trkpt lat="44.11338" lon="3.11422">
        <ele>874</ele>
        <time>2014-09-06T09:10:47.252Z</time>
      </trkpt>
      <trkpt lat="44.1134" lon="3.11421">
        <ele>873</ele>
        <time>2014-09-06T09:10:48.254Z</time>
      </trkpt>
      <trkpt lat="44.11347" lon="3.11417">
        <ele>875</ele>
        <time>2014-09-06T09:10:54.262Z</time>
      </trkpt>
      <trkpt lat="44.11348" lon="3.11416">
        <ele>873</ele>
        <time>2014-09-06T09:10:55.407Z</time>
      </trkpt>
      <trkpt lat="44.11354" lon="3.11408">
        <ele>876</ele>
        <time>2014-09-06T09:11:00.272Z</time>
      </trkpt>
      <trkpt lat="44.11355" lon="3.11406">
        <ele>875</ele>
        <time>2014-09-06T09:11:01.258Z</time>
      </trkpt>
      <trkpt lat="44.1136" lon="3.11399">
        <ele>879</ele>
        <time>2014-09-06T09:11:05.255Z</time>
      </trkpt>
      <trkpt lat="44.11363" lon="3.11397">
        <ele>878</ele>
        <time>2014-09-06T09:11:06.257Z</time>
      </trkpt>
      <trkpt lat="44.11368" lon="3.11389">
        <ele>881</ele>
        <time>2014-09-06T09:11:09.258Z</time>
      </trkpt>
      <trkpt lat="44.1137" lon="3.11386">
        <ele>879</ele>
        <time>2014-09-06T09:11:10.258Z</time>
      </trkpt>
      <trkpt lat="44.11376" lon="3.11381">
        <ele>876</ele>
        <time>2014-09-06T09:11:12.232Z</time>
      </trkpt>
      <trkpt lat="44.11379" lon="3.11379">
        <ele>875</ele>
        <time>2014-09-06T09:11:13.257Z</time>
      </trkpt>
      <trkpt lat="44.11386" lon="3.11375">
        <ele>875</ele>
        <time>2014-09-06T09:11:16.259Z</time>
      </trkpt>
      <trkpt lat="44.11388" lon="3.11373">
        <ele>875</ele>
        <time>2014-09-06T09:11:17.255Z</time>
      </trkpt>
      <trkpt lat="44.11395" lon="3.11367">
        <ele>877</ele>
        <time>2014-09-06T09:11:20.260Z</time>
      </trkpt>
      <trkpt lat="44.11397" lon="3.11364">
        <ele>876</ele>
        <time>2014-09-06T09:11:21.255Z</time>
      </trkpt>
      <trkpt lat="44.11403" lon="3.1136">
        <ele>874</ele>
        <time>2014-09-06T09:11:23.267Z</time>
      </trkpt>
      <trkpt lat="44.11406" lon="3.11358">
        <ele>874</ele>
        <time>2014-09-06T09:11:24.257Z</time>
      </trkpt>
      <trkpt lat="44.11414" lon="3.11353">
        <ele>875</ele>
        <time>2014-09-06T09:11:27.295Z</time>
      </trkpt>
      <trkpt lat="44.11417" lon="3.11351">
        <ele>871</ele>
        <time>2014-09-06T09:11:28.254Z</time>
      </trkpt>
      <trkpt lat="44.11423" lon="3.11345">
        <ele>874</ele>
        <time>2014-09-06T09:11:31.297Z</time>
      </trkpt>
      <trkpt lat="44.11425" lon="3.11343">
        <ele>872</ele>
        <time>2014-09-06T09:11:32.255Z</time>
      </trkpt>
      <trkpt lat="44.11432" lon="3.1134">
        <ele>873</ele>
        <time>2014-09-06T09:11:36.258Z</time>
      </trkpt>
      <trkpt lat="44.11434" lon="3.1134">
        <ele>873</ele>
        <time>2014-09-06T09:11:37.255Z</time>
      </trkpt>
      <trkpt lat="44.1144" lon="3.11334">
        <ele>880</ele>
        <time>2014-09-06T09:11:42.256Z</time>
      </trkpt>
      <trkpt lat="44.11441" lon="3.11332">
        <ele>877</ele>
        <time>2014-09-06T09:11:43.378Z</time>
      </trkpt>
      <trkpt lat="44.11448" lon="3.11327">
        <ele>878</ele>
        <time>2014-09-06T09:11:47.333Z</time>
      </trkpt>
      <trkpt lat="44.1145" lon="3.11325">
        <ele>878</ele>
        <time>2014-09-06T09:11:48.255Z</time>
      </trkpt>
      <trkpt lat="44.11456" lon="3.11319">
        <ele>876</ele>
        <time>2014-09-06T09:11:51.261Z</time>
      </trkpt>
      <trkpt lat="44.11458" lon="3.11317">
        <ele>875</ele>
        <time>2014-09-06T09:11:52.255Z</time>
      </trkpt>
      <trkpt lat="44.11464" lon="3.11312">
        <ele>874</ele>
        <time>2014-09-06T09:11:55.232Z</time>
      </trkpt>
      <trkpt lat="44.11467" lon="3.11309">
        <ele>873</ele>
        <time>2014-09-06T09:11:56.257Z</time>
      </trkpt>
      <trkpt lat="44.11473" lon="3.11301">
        <ele>877</ele>
        <time>2014-09-06T09:11:59.232Z</time>
      </trkpt>
      <trkpt lat="44.11474" lon="3.11298">
        <ele>877</ele>
        <time>2014-09-06T09:12:00.256Z</time>
      </trkpt>
      <trkpt lat="44.11478" lon="3.11289">
        <ele>879</ele>
        <time>2014-09-06T09:12:04.258Z</time>
      </trkpt>
      <trkpt lat="44.11478" lon="3.11286">
        <ele>878</ele>
        <time>2014-09-06T09:12:05.258Z</time>
      </trkpt>
      <trkpt lat="44.1148" lon="3.11275">
        <ele>875</ele>
        <time>2014-09-06T09:12:10.253Z</time>
      </trkpt>
      <trkpt lat="44.11479" lon="3.11272">
        <ele>876</ele>
        <time>2014-09-06T09:12:11.268Z</time>
      </trkpt>
      <trkpt lat="44.11475" lon="3.11262">
        <ele>877</ele>
        <time>2014-09-06T09:12:20.258Z</time>
      </trkpt>
      <trkpt lat="44.11474" lon="3.11261">
        <ele>878</ele>
        <time>2014-09-06T09:12:21.260Z</time>
      </trkpt>
      <trkpt lat="44.11469" lon="3.11252">
        <ele>878</ele>
        <time>2014-09-06T09:12:27.244Z</time>
      </trkpt>
      <trkpt lat="44.11469" lon="3.1125">
        <ele>878</ele>
        <time>2014-09-06T09:12:28.261Z</time>
      </trkpt>
      <trkpt lat="44.11465" lon="3.11243">
        <ele>871</ele>
        <time>2014-09-06T09:12:37.232Z</time>
      </trkpt>
      <trkpt lat="44.11462" lon="3.11241">
        <ele>869</ele>
        <time>2014-09-06T09:12:38.262Z</time>
      </trkpt>
      <trkpt lat="44.11456" lon="3.11235">
        <ele>865</ele>
        <time>2014-09-06T09:12:41.248Z</time>
      </trkpt>
      <trkpt lat="44.11454" lon="3.11233">
        <ele>863</ele>
        <time>2014-09-06T09:12:42.255Z</time>
      </trkpt>
      <trkpt lat="44.11452" lon="3.11221">
        <ele>867</ele>
        <time>2014-09-06T09:12:46.257Z</time>
      </trkpt>
      <trkpt lat="44.11452" lon="3.11218">
        <ele>869</ele>
        <time>2014-09-06T09:12:47.258Z</time>
      </trkpt>
      <trkpt lat="44.11455" lon="3.11209">
        <ele>873</ele>
        <time>2014-09-06T09:12:50.259Z</time>
      </trkpt>
      <trkpt lat="44.11456" lon="3.11206">
        <ele>873</ele>
        <time>2014-09-06T09:12:51.261Z</time>
      </trkpt>
      <trkpt lat="44.1146" lon="3.11197">
        <ele>871</ele>
        <time>2014-09-06T09:12:54.257Z</time>
      </trkpt>
      <trkpt lat="44.11461" lon="3.11194">
        <ele>871</ele>
        <time>2014-09-06T09:12:55.250Z</time>
      </trkpt>
      <trkpt lat="44.11465" lon="3.11185">
        <ele>869</ele>
        <time>2014-09-06T09:12:58.243Z</time>
      </trkpt>
      <trkpt lat="44.11466" lon="3.11182">
        <ele>869</ele>
        <time>2014-09-06T09:12:59.254Z</time>
      </trkpt>
      <trkpt lat="44.11468" lon="3.1117">
        <ele>866</ele>
        <time>2014-09-06T09:13:03.251Z</time>
      </trkpt>
      <trkpt lat="44.11469" lon="3.11168">
        <ele>866</ele>
        <time>2014-09-06T09:13:04.257Z</time>
      </trkpt>
      <trkpt lat="44.11472" lon="3.11157">
        <ele>864</ele>
        <time>2014-09-06T09:13:10.256Z</time>
      </trkpt>
      <trkpt lat="44.11472" lon="3.11156">
        <ele>864</ele>
        <time>2014-09-06T09:13:11.259Z</time>
      </trkpt>
      <trkpt lat="44.11472" lon="3.11143">
        <ele>858</ele>
        <time>2014-09-06T09:13:22.254Z</time>
      </trkpt>
      <trkpt lat="44.11472" lon="3.11141">
        <ele>858</ele>
        <time>2014-09-06T09:13:23.255Z</time>
      </trkpt>
      <trkpt lat="44.11468" lon="3.11131">
        <ele>855</ele>
        <time>2014-09-06T09:13:29.256Z</time>
      </trkpt>
      <trkpt lat="44.11468" lon="3.11129">
        <ele>854</ele>
        <time>2014-09-06T09:13:30.252Z</time>
      </trkpt>
      <trkpt lat="44.11461" lon="3.11132">
        <ele>857</ele>
        <time>2014-09-06T09:13:51.257Z</time>
      </trkpt>
      <trkpt lat="44.1146" lon="3.11133">
        <ele>856</ele>
        <time>2014-09-06T09:13:52.232Z</time>
      </trkpt>
      <trkpt lat="44.11451" lon="3.11135">
        <ele>857</ele>
        <time>2014-09-06T09:13:57.257Z</time>
      </trkpt>
      <trkpt lat="44.11449" lon="3.11135">
        <ele>857</ele>
        <time>2014-09-06T09:13:58.258Z</time>
      </trkpt>
      <trkpt lat="44.11442" lon="3.11137">
        <ele>859</ele>
        <time>2014-09-06T09:14:03.249Z</time>
      </trkpt>
      <trkpt lat="44.1144" lon="3.11137">
        <ele>856</ele>
        <time>2014-09-06T09:14:04.250Z</time>
      </trkpt>
      <trkpt lat="44.11432" lon="3.11135">
        <ele>853</ele>
        <time>2014-09-06T09:14:09.258Z</time>
      </trkpt>
      <trkpt lat="44.1143" lon="3.11135">
        <ele>853</ele>
        <time>2014-09-06T09:14:10.256Z</time>
      </trkpt>
      <trkpt lat="44.11422" lon="3.11137">
        <ele>856</ele>
        <time>2014-09-06T09:14:16.366Z</time>
      </trkpt>
      <trkpt lat="44.1142" lon="3.11136">
        <ele>852</ele>
        <time>2014-09-06T09:14:17.218Z</time>
      </trkpt>
      <trkpt lat="44.11413" lon="3.11133">
        <ele>852</ele>
        <time>2014-09-06T09:14:21.252Z</time>
      </trkpt>
      <trkpt lat="44.11411" lon="3.11132">
        <ele>852</ele>
        <time>2014-09-06T09:14:22.332Z</time>
      </trkpt>
      <trkpt lat="44.11404" lon="3.11131">
        <ele>847</ele>
        <time>2014-09-06T09:14:25.259Z</time>
      </trkpt>
      <trkpt lat="44.11401" lon="3.11131">
        <ele>847</ele>
        <time>2014-09-06T09:14:26.261Z</time>
      </trkpt>
      <trkpt lat="44.11393" lon="3.11132">
        <ele>851</ele>
        <time>2014-09-06T09:14:29.256Z</time>
      </trkpt>
      <trkpt lat="44.1139" lon="3.11132">
        <ele>852</ele>
        <time>2014-09-06T09:14:30.258Z</time>
      </trkpt>
      <trkpt lat="44.11383" lon="3.1113">
        <ele>852</ele>
        <time>2014-09-06T09:14:32.231Z</time>
      </trkpt>
      <trkpt lat="44.11379" lon="3.11129">
        <ele>853</ele>
        <time>2014-09-06T09:14:33.261Z</time>
      </trkpt>
      <trkpt lat="44.11372" lon="3.11126">
        <ele>853</ele>
        <time>2014-09-06T09:14:35.364Z</time>
      </trkpt>
      <trkpt lat="44.1137" lon="3.11124">
        <ele>853</ele>
        <time>2014-09-06T09:14:36.265Z</time>
      </trkpt>
      <trkpt lat="44.11363" lon="3.11121">
        <ele>850</ele>
        <time>2014-09-06T09:14:39.295Z</time>
      </trkpt>
      <trkpt lat="44.11361" lon="3.1112">
        <ele>847</ele>
        <time>2014-09-06T09:14:40.262Z</time>
      </trkpt>
      <trkpt lat="44.11353" lon="3.11115">
        <ele>847</ele>
        <time>2014-09-06T09:14:43.251Z</time>
      </trkpt>
      <trkpt lat="44.11351" lon="3.11115">
        <ele>844</ele>
        <time>2014-09-06T09:14:44.265Z</time>
      </trkpt>
      <trkpt lat="44.11345" lon="3.11113">
        <ele>843</ele>
        <time>2014-09-06T09:14:46.262Z</time>
      </trkpt>
      <trkpt lat="44.11342" lon="3.11112">
        <ele>842</ele>
        <time>2014-09-06T09:14:47.301Z</time>
      </trkpt>
      <trkpt lat="44.11336" lon="3.1111">
        <ele>843</ele>
        <time>2014-09-06T09:14:49.246Z</time>
      </trkpt>
      <trkpt lat="44.11333" lon="3.11108">
        <ele>841</ele>
        <time>2014-09-06T09:14:50.258Z</time>
      </trkpt>
      <trkpt lat="44.11327" lon="3.11105">
        <ele>841</ele>
        <time>2014-09-06T09:14:52.237Z</time>
      </trkpt>
      <trkpt lat="44.11325" lon="3.11103">
        <ele>842</ele>
        <time>2014-09-06T09:14:53.254Z</time>
      </trkpt>
      <trkpt lat="44.11318" lon="3.11096">
        <ele>844</ele>
        <time>2014-09-06T09:14:57.256Z</time>
      </trkpt>
      <trkpt lat="44.11316" lon="3.11095">
        <ele>844</ele>
        <time>2014-09-06T09:14:58.265Z</time>
      </trkpt>
      <trkpt lat="44.11309" lon="3.11093">
        <ele>849</ele>
        <time>2014-09-06T09:15:04.262Z</time>
      </trkpt>
      <trkpt lat="44.11307" lon="3.11091">
        <ele>849</ele>
        <time>2014-09-06T09:15:05.261Z</time>
      </trkpt>
      <trkpt lat="44.113" lon="3.11089">
        <ele>850</ele>
        <time>2014-09-06T09:15:08.234Z</time>
      </trkpt>
      <trkpt lat="44.11297" lon="3.11087">
        <ele>849</ele>
        <time>2014-09-06T09:15:09.260Z</time>
      </trkpt>
      <trkpt lat="44.11289" lon="3.1108">
        <ele>847</ele>
        <time>2014-09-06T09:15:12.259Z</time>
      </trkpt>
      <trkpt lat="44.11288" lon="3.11078">
        <ele>848</ele>
        <time>2014-09-06T09:15:13.260Z</time>
      </trkpt>
      <trkpt lat="44.11281" lon="3.11073">
        <ele>845</ele>
        <time>2014-09-06T09:15:16.235Z</time>
      </trkpt>
      <trkpt lat="44.11278" lon="3.11071">
        <ele>845</ele>
        <time>2014-09-06T09:15:17.262Z</time>
      </trkpt>
      <trkpt lat="44.11271" lon="3.11063">
        <ele>844</ele>
        <time>2014-09-06T09:15:20.267Z</time>
      </trkpt>
      <trkpt lat="44.11269" lon="3.1106">
        <ele>844</ele>
        <time>2014-09-06T09:15:21.247Z</time>
      </trkpt>
      <trkpt lat="44.11264" lon="3.11053">
        <ele>847</ele>
        <time>2014-09-06T09:15:24.267Z</time>
      </trkpt>
      <trkpt lat="44.11262" lon="3.11051">
        <ele>846</ele>
        <time>2014-09-06T09:15:25.265Z</time>
      </trkpt>
      <trkpt lat="44.11256" lon="3.11043">
        <ele>848</ele>
        <time>2014-09-06T09:15:28.256Z</time>
      </trkpt>
      <trkpt lat="44.11254" lon="3.11042">
        <ele>849</ele>
        <time>2014-09-06T09:15:29.260Z</time>
      </trkpt>
      <trkpt lat="44.11247" lon="3.11034">
        <ele>847</ele>
        <time>2014-09-06T09:15:33.260Z</time>
      </trkpt>
      <trkpt lat="44.11245" lon="3.11033">
        <ele>847</ele>
        <time>2014-09-06T09:15:34.258Z</time>
      </trkpt>
      <trkpt lat="44.11238" lon="3.1103">
        <ele>848</ele>
        <time>2014-09-06T09:15:37.262Z</time>
      </trkpt>
      <trkpt lat="44.11236" lon="3.11028">
        <ele>845</ele>
        <time>2014-09-06T09:15:38.260Z</time>
      </trkpt>
      <trkpt lat="44.11229" lon="3.11023">
        <ele>845</ele>
        <time>2014-09-06T09:15:41.256Z</time>
      </trkpt>
      <trkpt lat="44.11227" lon="3.11021">
        <ele>844</ele>
        <time>2014-09-06T09:15:42.265Z</time>
      </trkpt>
      <trkpt lat="44.11223" lon="3.11012">
        <ele>845</ele>
        <time>2014-09-06T09:15:45.255Z</time>
      </trkpt>
      <trkpt lat="44.11221" lon="3.11009">
        <ele>845</ele>
        <time>2014-09-06T09:15:46.253Z</time>
      </trkpt>
      <trkpt lat="44.11214" lon="3.11001">
        <ele>850</ele>
        <time>2014-09-06T09:15:52.254Z</time>
      </trkpt>
      <trkpt lat="44.11213" lon="3.11001">
        <ele>851</ele>
        <time>2014-09-06T09:15:53.301Z</time>
      </trkpt>
      <trkpt lat="44.11205" lon="3.11001">
        <ele>852</ele>
        <time>2014-09-06T09:15:58.251Z</time>
      </trkpt>
      <trkpt lat="44.11204" lon="3.11001">
        <ele>852</ele>
        <time>2014-09-06T09:15:59.253Z</time>
      </trkpt>
      <trkpt lat="44.11197" lon="3.10994">
        <ele>851</ele>
        <time>2014-09-06T09:16:02.246Z</time>
      </trkpt>
      <trkpt lat="44.11195" lon="3.10993">
        <ele>852</ele>
        <time>2014-09-06T09:16:03.260Z</time>
      </trkpt>
      <trkpt lat="44.11189" lon="3.10987">
        <ele>850</ele>
        <time>2014-09-06T09:16:06.259Z</time>
      </trkpt>
      <trkpt lat="44.11188" lon="3.10984">
        <ele>851</ele>
        <time>2014-09-06T09:16:07.257Z</time>
      </trkpt>
      <trkpt lat="44.11184" lon="3.10975">
        <ele>849</ele>
        <time>2014-09-06T09:16:11.258Z</time>
      </trkpt>
      <trkpt lat="44.11183" lon="3.10972">
        <ele>848</ele>
        <time>2014-09-06T09:16:12.355Z</time>
      </trkpt>
      <trkpt lat="44.11176" lon="3.10964">
        <ele>848</ele>
        <time>2014-09-06T09:16:16.262Z</time>
      </trkpt>
      <trkpt lat="44.11174" lon="3.10963">
        <ele>849</ele>
        <time>2014-09-06T09:16:17.258Z</time>
      </trkpt>
      <trkpt lat="44.11167" lon="3.10959">
        <ele>848</ele>
        <time>2014-09-06T09:16:20.261Z</time>
      </trkpt>
      <trkpt lat="44.11165" lon="3.10959">
        <ele>848</ele>
        <time>2014-09-06T09:16:21.288Z</time>
      </trkpt>
      <trkpt lat="44.11157" lon="3.10956">
        <ele>845</ele>
        <time>2014-09-06T09:16:26.266Z</time>
      </trkpt>
      <trkpt lat="44.11155" lon="3.10954">
        <ele>844</ele>
        <time>2014-09-06T09:16:27.292Z</time>
      </trkpt>
      <trkpt lat="44.11147" lon="3.10951">
        <ele>844</ele>
        <time>2014-09-06T09:16:31.255Z</time>
      </trkpt>
      <trkpt lat="44.11145" lon="3.10951">
        <ele>845</ele>
        <time>2014-09-06T09:16:32.238Z</time>
      </trkpt>
      <trkpt lat="44.11137" lon="3.1095">
        <ele>844</ele>
        <time>2014-09-06T09:16:35.259Z</time>
      </trkpt>
      <trkpt lat="44.11135" lon="3.1095">
        <ele>845</ele>
        <time>2014-09-06T09:16:36.258Z</time>
      </trkpt>
      <trkpt lat="44.11127" lon="3.10946">
        <ele>846</ele>
        <time>2014-09-06T09:16:39.304Z</time>
      </trkpt>
      <trkpt lat="44.11124" lon="3.10944">
        <ele>846</ele>
        <time>2014-09-06T09:16:40.235Z</time>
      </trkpt>
      <trkpt lat="44.11118" lon="3.10941">
        <ele>847</ele>
        <time>2014-09-06T09:16:42.252Z</time>
      </trkpt>
      <trkpt lat="44.11115" lon="3.1094">
        <ele>847</ele>
        <time>2014-09-06T09:16:43.387Z</time>
      </trkpt>
      <trkpt lat="44.11108" lon="3.10936">
        <ele>850</ele>
        <time>2014-09-06T09:16:46.257Z</time>
      </trkpt>
      <trkpt lat="44.11106" lon="3.10934">
        <ele>850</ele>
        <time>2014-09-06T09:16:47.261Z</time>
      </trkpt>
      <trkpt lat="44.111" lon="3.10927">
        <ele>847</ele>
        <time>2014-09-06T09:16:50.262Z</time>
      </trkpt>
      <trkpt lat="44.11098" lon="3.10923">
        <ele>845</ele>
        <time>2014-09-06T09:16:51.263Z</time>
      </trkpt>
      <trkpt lat="44.11092" lon="3.10913">
        <ele>846</ele>
        <time>2014-09-06T09:16:54.257Z</time>
      </trkpt>
      <trkpt lat="44.1109" lon="3.10911">
        <ele>846</ele>
        <time>2014-09-06T09:16:55.263Z</time>
      </trkpt>
      <trkpt lat="44.11084" lon="3.10902">
        <ele>846</ele>
        <time>2014-09-06T09:16:59.259Z</time>
      </trkpt>
      <trkpt lat="44.11083" lon="3.10899">
        <ele>846</ele>
        <time>2014-09-06T09:17:00.240Z</time>
      </trkpt>
      <trkpt lat="44.11079" lon="3.1089">
        <ele>847</ele>
        <time>2014-09-06T09:17:04.263Z</time>
      </trkpt>
      <trkpt lat="44.11078" lon="3.10887">
        <ele>847</ele>
        <time>2014-09-06T09:17:05.263Z</time>
      </trkpt>
      <trkpt lat="44.11075" lon="3.10878">
        <ele>842</ele>
        <time>2014-09-06T09:17:08.261Z</time>
      </trkpt>
      <trkpt lat="44.11073" lon="3.10876">
        <ele>843</ele>
        <time>2014-09-06T09:17:09.244Z</time>
      </trkpt>
      <trkpt lat="44.11068" lon="3.10867">
        <ele>846</ele>
        <time>2014-09-06T09:17:13.264Z</time>
      </trkpt>
      <trkpt lat="44.11067" lon="3.10864">
        <ele>845</ele>
        <time>2014-09-06T09:17:14.265Z</time>
      </trkpt>
      <trkpt lat="44.11063" lon="3.10853">
        <ele>849</ele>
        <time>2014-09-06T09:17:19.258Z</time>
      </trkpt>
      <trkpt lat="44.11063" lon="3.10852">
        <ele>848</ele>
        <time>2014-09-06T09:17:20.262Z</time>
      </trkpt>
      <trkpt lat="44.11066" lon="3.10842">
        <ele>847</ele>
        <time>2014-09-06T09:17:24.265Z</time>
      </trkpt>
      <trkpt lat="44.11066" lon="3.10839">
        <ele>848</ele>
        <time>2014-09-06T09:17:25.265Z</time>
      </trkpt>
      <trkpt lat="44.11069" lon="3.10828">
        <ele>850</ele>
        <time>2014-09-06T09:17:29.260Z</time>
      </trkpt>
      <trkpt lat="44.1107" lon="3.10824">
        <ele>850</ele>
        <time>2014-09-06T09:17:30.275Z</time>
      </trkpt>
      <trkpt lat="44.11071" lon="3.10812">
        <ele>855</ele>
        <time>2014-09-06T09:17:35.415Z</time>
      </trkpt>
      <trkpt lat="44.11072" lon="3.10811">
        <ele>854</ele>
        <time>2014-09-06T09:17:36.244Z</time>
      </trkpt>
      <trkpt lat="44.1107" lon="3.10799">
        <ele>855</ele>
        <time>2014-09-06T09:17:43.267Z</time>
      </trkpt>
      <trkpt lat="44.1107" lon="3.10797">
        <ele>854</ele>
        <time>2014-09-06T09:17:44.264Z</time>
      </trkpt>
      <trkpt lat="44.11072" lon="3.10785">
        <ele>859</ele>
        <time>2014-09-06T09:17:51.238Z</time>
      </trkpt>
      <trkpt lat="44.11071" lon="3.10784">
        <ele>860</ele>
        <time>2014-09-06T09:17:52.254Z</time>
      </trkpt>
      <trkpt lat="44.11073" lon="3.10773">
        <ele>859</ele>
        <time>2014-09-06T09:17:59.258Z</time>
      </trkpt>
      <trkpt lat="44.11074" lon="3.10771">
        <ele>858</ele>
        <time>2014-09-06T09:18:00.314Z</time>
      </trkpt>
      <trkpt lat="44.11067" lon="3.10764">
        <ele>861</ele>
        <time>2014-09-06T09:18:10.264Z</time>
      </trkpt>
      <trkpt lat="44.11066" lon="3.10763">
        <ele>861</ele>
        <time>2014-09-06T09:18:11.257Z</time>
      </trkpt>
      <trkpt lat="44.11063" lon="3.10753">
        <ele>860</ele>
        <time>2014-09-06T09:18:14.263Z</time>
      </trkpt>
      <trkpt lat="44.11062" lon="3.10749">
        <ele>859</ele>
        <time>2014-09-06T09:18:15.285Z</time>
      </trkpt>
      <trkpt lat="44.11062" lon="3.10738">
        <ele>858</ele>
        <time>2014-09-06T09:18:19.264Z</time>
      </trkpt>
      <trkpt lat="44.11064" lon="3.10735">
        <ele>855</ele>
        <time>2014-09-06T09:18:20.261Z</time>
      </trkpt>
      <trkpt lat="44.11064" lon="3.10723">
        <ele>859</ele>
        <time>2014-09-06T09:18:24.257Z</time>
      </trkpt>
      <trkpt lat="44.11063" lon="3.10721">
        <ele>857</ele>
        <time>2014-09-06T09:18:25.298Z</time>
      </trkpt>
      <trkpt lat="44.11059" lon="3.1071">
        <ele>862</ele>
        <time>2014-09-06T09:18:35.257Z</time>
      </trkpt>
      <trkpt lat="44.11059" lon="3.1071">
        <ele>863</ele>
        <time>2014-09-06T09:18:36.258Z</time>
      </trkpt>
      <trkpt lat="44.11058" lon="3.10698">
        <ele>864</ele>
        <time>2014-09-06T09:18:45.247Z</time>
      </trkpt>
      <trkpt lat="44.11058" lon="3.10696">
        <ele>863</ele>
        <time>2014-09-06T09:18:46.263Z</time>
      </trkpt>
      <trkpt lat="44.11055" lon="3.10687">
        <ele>866</ele>
        <time>2014-09-06T09:18:51.257Z</time>
      </trkpt>
      <trkpt lat="44.11054" lon="3.10684">
        <ele>867</ele>
        <time>2014-09-06T09:18:52.250Z</time>
      </trkpt>
      <trkpt lat="44.11051" lon="3.10674">
        <ele>869</ele>
        <time>2014-09-06T09:18:55.261Z</time>
      </trkpt>
      <trkpt lat="44.1105" lon="3.10671">
        <ele>870</ele>
        <time>2014-09-06T09:18:56.257Z</time>
      </trkpt>
      <trkpt lat="44.11046" lon="3.10662">
        <ele>871</ele>
        <time>2014-09-06T09:19:00.317Z</time>
      </trkpt>
      <trkpt lat="44.11045" lon="3.1066">
        <ele>870</ele>
        <time>2014-09-06T09:19:01.238Z</time>
      </trkpt>
      <trkpt lat="44.11039" lon="3.10665">
        <ele>872</ele>
        <time>2014-09-06T09:19:06.262Z</time>
      </trkpt>
      <trkpt lat="44.11037" lon="3.10667">
        <ele>872</ele>
        <time>2014-09-06T09:19:07.263Z</time>
      </trkpt>
      <trkpt lat="44.11029" lon="3.10669">
        <ele>873</ele>
        <time>2014-09-06T09:19:13.260Z</time>
      </trkpt>
      <trkpt lat="44.11027" lon="3.10668">
        <ele>874</ele>
        <time>2014-09-06T09:19:14.260Z</time>
      </trkpt>
      <trkpt lat="44.11019" lon="3.10665">
        <ele>871</ele>
        <time>2014-09-06T09:19:19.267Z</time>
      </trkpt>
      <trkpt lat="44.11017" lon="3.10662">
        <ele>868</ele>
        <time>2014-09-06T09:19:20.233Z</time>
      </trkpt>
      <trkpt lat="44.11009" lon="3.10657">
        <ele>867</ele>
        <time>2014-09-06T09:19:23.265Z</time>
      </trkpt>
      <trkpt lat="44.11007" lon="3.10656">
        <ele>870</ele>
        <time>2014-09-06T09:19:24.297Z</time>
      </trkpt>
      <trkpt lat="44.11" lon="3.10653">
        <ele>874</ele>
        <time>2014-09-06T09:19:30.299Z</time>
      </trkpt>
      <trkpt lat="44.10998" lon="3.10653">
        <ele>875</ele>
        <time>2014-09-06T09:19:31.263Z</time>
      </trkpt>
      <trkpt lat="44.10991" lon="3.10651">
        <ele>874</ele>
        <time>2014-09-06T09:19:35.258Z</time>
      </trkpt>
      <trkpt lat="44.10989" lon="3.1065">
        <ele>875</ele>
        <time>2014-09-06T09:19:36.316Z</time>
      </trkpt>
      <trkpt lat="44.10983" lon="3.10643">
        <ele>873</ele>
        <time>2014-09-06T09:19:40.339Z</time>
      </trkpt>
      <trkpt lat="44.10982" lon="3.1064">
        <ele>874</ele>
        <time>2014-09-06T09:19:41.259Z</time>
      </trkpt>
      <trkpt lat="44.10979" lon="3.10628">
        <ele>872</ele>
        <time>2014-09-06T09:19:45.297Z</time>
      </trkpt>
      <trkpt lat="44.10978" lon="3.10627">
        <ele>874</ele>
        <time>2014-09-06T09:19:46.256Z</time>
      </trkpt>
      <trkpt lat="44.10981" lon="3.10616">
        <ele>872</ele>
        <time>2014-09-06T09:20:06.260Z</time>
      </trkpt>
      <trkpt lat="44.10981" lon="3.10612">
        <ele>871</ele>
        <time>2014-09-06T09:20:07.255Z</time>
      </trkpt>
      <trkpt lat="44.1098" lon="3.10601">
        <ele>873</ele>
        <time>2014-09-06T09:20:10.258Z</time>
      </trkpt>
      <trkpt lat="44.10981" lon="3.10597">
        <ele>875</ele>
        <time>2014-09-06T09:20:11.261Z</time>
      </trkpt>
      <trkpt lat="44.10989" lon="3.10599">
        <ele>886</ele>
        <time>2014-09-06T09:20:18.238Z</time>
      </trkpt>
      <trkpt lat="44.1099" lon="3.10599">
        <ele>887</ele>
        <time>2014-09-06T09:20:19.267Z</time>
      </trkpt>
      <trkpt lat="44.10988" lon="3.1059">
        <ele>891</ele>
        <time>2014-09-06T09:20:24.256Z</time>
      </trkpt>
      <trkpt lat="44.10987" lon="3.10587">
        <ele>892</ele>
        <time>2014-09-06T09:20:25.256Z</time>
      </trkpt>
      <trkpt lat="44.10985" lon="3.10577">
        <ele>891</ele>
        <time>2014-09-06T09:20:29.262Z</time>
      </trkpt>
      <trkpt lat="44.10985" lon="3.10574">
        <ele>890</ele>
        <time>2014-09-06T09:20:30.300Z</time>
      </trkpt>
      <trkpt lat="44.10986" lon="3.10563">
        <ele>889</ele>
        <time>2014-09-06T09:20:34.268Z</time>
      </trkpt>
      <trkpt lat="44.10985" lon="3.10559">
        <ele>888</ele>
        <time>2014-09-06T09:20:35.266Z</time>
      </trkpt>
      <trkpt lat="44.10986" lon="3.10547">
        <ele>893</ele>
        <time>2014-09-06T09:20:42.266Z</time>
      </trkpt>
      <trkpt lat="44.10987" lon="3.10546">
        <ele>895</ele>
        <time>2014-09-06T09:20:43.260Z</time>
      </trkpt>
      <trkpt lat="44.10986" lon="3.10534">
        <ele>898</ele>
        <time>2014-09-06T09:20:56.266Z</time>
      </trkpt>
      <trkpt lat="44.10985" lon="3.10534">
        <ele>898</ele>
        <time>2014-09-06T09:20:57.347Z</time>
      </trkpt>
      <trkpt lat="44.10984" lon="3.10523">
        <ele>901</ele>
        <time>2014-09-06T09:21:02.265Z</time>
      </trkpt>
      <trkpt lat="44.10984" lon="3.1052">
        <ele>900</ele>
        <time>2014-09-06T09:21:03.260Z</time>
      </trkpt>
      <trkpt lat="44.10985" lon="3.1051">
        <ele>901</ele>
        <time>2014-09-06T09:21:06.261Z</time>
      </trkpt>
      <trkpt lat="44.10985" lon="3.10506">
        <ele>898</ele>
        <time>2014-09-06T09:21:07.259Z</time>
      </trkpt>
      <trkpt lat="44.10987" lon="3.10496">
        <ele>900</ele>
        <time>2014-09-06T09:21:09.308Z</time>
      </trkpt>
      <trkpt lat="44.10987" lon="3.10492">
        <ele>899</ele>
        <time>2014-09-06T09:21:10.257Z</time>
      </trkpt>
      <trkpt lat="44.10987" lon="3.10483">
        <ele>898</ele>
        <time>2014-09-06T09:21:12.235Z</time>
      </trkpt>
      <trkpt lat="44.10989" lon="3.10479">
        <ele>897</ele>
        <time>2014-09-06T09:21:13.245Z</time>
      </trkpt>
      <trkpt lat="44.10991" lon="3.1047">
        <ele>896</ele>
        <time>2014-09-06T09:21:15.300Z</time>
      </trkpt>
      <trkpt lat="44.10992" lon="3.10467">
        <ele>897</ele>
        <time>2014-09-06T09:21:16.255Z</time>
      </trkpt>
      <trkpt lat="44.10994" lon="3.10458">
        <ele>900</ele>
        <time>2014-09-06T09:21:19.257Z</time>
      </trkpt>
      <trkpt lat="44.10995" lon="3.10454">
        <ele>899</ele>
        <time>2014-09-06T09:21:20.265Z</time>
      </trkpt>
      <trkpt lat="44.10996" lon="3.10442">
        <ele>898</ele>
        <time>2014-09-06T09:21:24.260Z</time>
      </trkpt>
      <trkpt lat="44.10996" lon="3.10439">
        <ele>900</ele>
        <time>2014-09-06T09:21:25.264Z</time>
      </trkpt>
      <trkpt lat="44.10996" lon="3.10428">
        <ele>900</ele>
        <time>2014-09-06T09:21:28.264Z</time>
      </trkpt>
      <trkpt lat="44.10997" lon="3.10424">
        <ele>901</ele>
        <time>2014-09-06T09:21:29.267Z</time>
      </trkpt>
      <trkpt lat="44.10998" lon="3.10413">
        <ele>897</ele>
        <time>2014-09-06T09:21:32.267Z</time>
      </trkpt>
      <trkpt lat="44.10999" lon="3.10409">
        <ele>897</ele>
        <time>2014-09-06T09:21:33.265Z</time>
      </trkpt>
      <trkpt lat="44.11" lon="3.104">
        <ele>893</ele>
        <time>2014-09-06T09:21:35.248Z</time>
      </trkpt>
      <trkpt lat="44.11001" lon="3.10395">
        <ele>893</ele>
        <time>2014-09-06T09:21:36.320Z</time>
      </trkpt>
      <trkpt lat="44.11004" lon="3.10384">
        <ele>891</ele>
        <time>2014-09-06T09:21:38.259Z</time>
      </trkpt>
      <trkpt lat="44.11005" lon="3.10379">
        <ele>892</ele>
        <time>2014-09-06T09:21:39.260Z</time>
      </trkpt>
      <trkpt lat="44.11006" lon="3.1037">
        <ele>890</ele>
        <time>2014-09-06T09:21:41.267Z</time>
      </trkpt>
      <trkpt lat="44.11007" lon="3.10365">
        <ele>890</ele>
        <time>2014-09-06T09:21:42.259Z</time>
      </trkpt>
      <trkpt lat="44.11009" lon="3.10357">
        <ele>891</ele>
        <time>2014-09-06T09:21:44.260Z</time>
      </trkpt>
      <trkpt lat="44.1101" lon="3.10353">
        <ele>891</ele>
        <time>2014-09-06T09:21:45.307Z</time>
      </trkpt>
      <trkpt lat="44.1101" lon="3.10342">
        <ele>892</ele>
        <time>2014-09-06T09:21:49.261Z</time>
      </trkpt>
      <trkpt lat="44.11011" lon="3.10339">
        <ele>891</ele>
        <time>2014-09-06T09:21:50.266Z</time>
      </trkpt>
      <trkpt lat="44.11012" lon="3.10328">
        <ele>896</ele>
        <time>2014-09-06T09:21:55.263Z</time>
      </trkpt>
      <trkpt lat="44.11012" lon="3.10327">
        <ele>894</ele>
        <time>2014-09-06T09:21:56.438Z</time>
      </trkpt>
      <trkpt lat="44.11016" lon="3.10318">
        <ele>892</ele>
        <time>2014-09-06T09:22:04.260Z</time>
      </trkpt>
      <trkpt lat="44.11017" lon="3.10316">
        <ele>891</ele>
        <time>2014-09-06T09:22:05.260Z</time>
      </trkpt>
      <trkpt lat="44.11018" lon="3.10305">
        <ele>895</ele>
        <time>2014-09-06T09:22:12.296Z</time>
      </trkpt>
      <trkpt lat="44.11018" lon="3.10303">
        <ele>894</ele>
        <time>2014-09-06T09:22:13.259Z</time>
      </trkpt>
      <trkpt lat="44.11018" lon="3.10292">
        <ele>890</ele>
        <time>2014-09-06T09:22:20.270Z</time>
      </trkpt>
      <trkpt lat="44.11018" lon="3.1029">
        <ele>889</ele>
        <time>2014-09-06T09:22:21.257Z</time>
      </trkpt>
      <trkpt lat="44.11025" lon="3.10292">
        <ele>893</ele>
        <time>2014-09-06T09:26:38.251Z</time>
      </trkpt>
      <trkpt lat="44.11027" lon="3.10292">
        <ele>893</ele>
        <time>2014-09-06T09:26:39.240Z</time>
      </trkpt>
      <trkpt lat="44.11034" lon="3.10291">
        <ele>892</ele>
        <time>2014-09-06T09:26:42.218Z</time>
      </trkpt>
      <trkpt lat="44.11036" lon="3.10289">
        <ele>891</ele>
        <time>2014-09-06T09:26:43.237Z</time>
      </trkpt>
      <trkpt lat="44.11042" lon="3.10282">
        <ele>894</ele>
        <time>2014-09-06T09:26:46.225Z</time>
      </trkpt>
      <trkpt lat="44.11044" lon="3.10279">
        <ele>895</ele>
        <time>2014-09-06T09:26:47.275Z</time>
      </trkpt>
      <trkpt lat="44.1105" lon="3.10271">
        <ele>894</ele>
        <time>2014-09-06T09:26:50.258Z</time>
      </trkpt>
      <trkpt lat="44.11053" lon="3.10269">
        <ele>893</ele>
        <time>2014-09-06T09:26:51.250Z</time>
      </trkpt>
      <trkpt lat="44.11058" lon="3.10266">
        <ele>892</ele>
        <time>2014-09-06T09:26:53.228Z</time>
      </trkpt>
      <trkpt lat="44.11061" lon="3.10266">
        <ele>891</ele>
        <time>2014-09-06T09:26:54.256Z</time>
      </trkpt>
      <trkpt lat="44.11069" lon="3.1027">
        <ele>894</ele>
        <time>2014-09-06T09:26:59.264Z</time>
      </trkpt>
      <trkpt lat="44.11069" lon="3.10272">
        <ele>892</ele>
        <time>2014-09-06T09:27:00.238Z</time>
      </trkpt>
      <trkpt lat="44.11073" lon="3.10284">
        <ele>886</ele>
        <time>2014-09-06T09:27:04.240Z</time>
      </trkpt>
      <trkpt lat="44.11075" lon="3.10288">
        <ele>888</ele>
        <time>2014-09-06T09:27:05.259Z</time>
      </trkpt>
      <trkpt lat="44.11078" lon="3.10293">
        <ele>889</ele>
        <time>2014-09-06T09:27:06.257Z</time>
      </trkpt>
      <trkpt lat="44.11081" lon="3.10297">
        <ele>887</ele>
        <time>2014-09-06T09:27:07.261Z</time>
      </trkpt>
      <trkpt lat="44.11087" lon="3.10307">
        <ele>879</ele>
        <time>2014-09-06T09:27:10.258Z</time>
      </trkpt>
      <trkpt lat="44.11088" lon="3.1031">
        <ele>879</ele>
        <time>2014-09-06T09:27:11.260Z</time>
      </trkpt>
      <trkpt lat="44.11087" lon="3.1032">
        <ele>878</ele>
        <time>2014-09-06T09:27:14.263Z</time>
      </trkpt>
      <trkpt lat="44.11088" lon="3.10323">
        <ele>878</ele>
        <time>2014-09-06T09:27:15.259Z</time>
      </trkpt>
      <trkpt lat="44.11089" lon="3.10332">
        <ele>880</ele>
        <time>2014-09-06T09:27:17.253Z</time>
      </trkpt>
      <trkpt lat="44.11089" lon="3.10336">
        <ele>881</ele>
        <time>2014-09-06T09:27:18.253Z</time>
      </trkpt>
      <trkpt lat="44.11089" lon="3.10345">
        <ele>882</ele>
        <time>2014-09-06T09:27:20.250Z</time>
      </trkpt>
      <trkpt lat="44.11088" lon="3.1035">
        <ele>882</ele>
        <time>2014-09-06T09:27:21.675Z</time>
      </trkpt>
      <trkpt lat="44.11092" lon="3.10359">
        <ele>883</ele>
        <time>2014-09-06T09:27:24.258Z</time>
      </trkpt>
      <trkpt lat="44.11093" lon="3.10361">
        <ele>883</ele>
        <time>2014-09-06T09:27:25.261Z</time>
      </trkpt>
      <trkpt lat="44.111" lon="3.10368">
        <ele>883</ele>
        <time>2014-09-06T09:27:29.260Z</time>
      </trkpt>
      <trkpt lat="44.11101" lon="3.10369">
        <ele>884</ele>
        <time>2014-09-06T09:27:30.271Z</time>
      </trkpt>
      <trkpt lat="44.11107" lon="3.10373">
        <ele>885</ele>
        <time>2014-09-06T09:27:34.272Z</time>
      </trkpt>
      <trkpt lat="44.11109" lon="3.10375">
        <ele>882</ele>
        <time>2014-09-06T09:27:35.262Z</time>
      </trkpt>
      <trkpt lat="44.11117" lon="3.10381">
        <ele>882</ele>
        <time>2014-09-06T09:27:41.257Z</time>
      </trkpt>
      <trkpt lat="44.11119" lon="3.10383">
        <ele>884</ele>
        <time>2014-09-06T09:27:42.273Z</time>
      </trkpt>
      <trkpt lat="44.11126" lon="3.10386">
        <ele>884</ele>
        <time>2014-09-06T09:27:44.261Z</time>
      </trkpt>
      <trkpt lat="44.11128" lon="3.10388">
        <ele>883</ele>
        <time>2014-09-06T09:27:45.262Z</time>
      </trkpt>
      <trkpt lat="44.11132" lon="3.10393">
        <ele>884</ele>
        <time>2014-09-06T09:27:48.267Z</time>
      </trkpt>
      <trkpt lat="44.11134" lon="3.10396">
        <ele>884</ele>
        <time>2014-09-06T09:27:49.269Z</time>
      </trkpt>
      <trkpt lat="44.11138" lon="3.10403">
        <ele>885</ele>
        <time>2014-09-06T09:27:51.293Z</time>
      </trkpt>
      <trkpt lat="44.11143" lon="3.10408">
        <ele>883</ele>
        <time>2014-09-06T09:27:52.239Z</time>
      </trkpt>
      <trkpt lat="44.11147" lon="3.10415">
        <ele>885</ele>
        <time>2014-09-06T09:27:53.268Z</time>
      </trkpt>
      <trkpt lat="44.11152" lon="3.10423">
        <ele>885</ele>
        <time>2014-09-06T09:27:54.264Z</time>
      </trkpt>
      <trkpt lat="44.11156" lon="3.10431">
        <ele>884</ele>
        <time>2014-09-06T09:27:55.478Z</time>
      </trkpt>
      <trkpt lat="44.11164" lon="3.1045">
        <ele>885</ele>
        <time>2014-09-06T09:27:56.242Z</time>
      </trkpt>
      <trkpt lat="44.11168" lon="3.10454">
        <ele>885</ele>
        <time>2014-09-06T09:27:57.271Z</time>
      </trkpt>
      <trkpt lat="44.11177" lon="3.10457">
        <ele>882</ele>
        <time>2014-09-06T09:27:58.264Z</time>
      </trkpt>
      <trkpt lat="44.11176" lon="3.10467">
        <ele>885</ele>
        <time>2014-09-06T09:28:00.261Z</time>
      </trkpt>
      <trkpt lat="44.11169" lon="3.10471">
        <ele>884</ele>
        <time>2014-09-06T09:28:01.238Z</time>
      </trkpt>
      <trkpt lat="44.11168" lon="3.1046">
        <ele>886</ele>
        <time>2014-09-06T09:28:06.265Z</time>
      </trkpt>
      <trkpt lat="44.11168" lon="3.10456">
        <ele>886</ele>
        <time>2014-09-06T09:28:07.269Z</time>
      </trkpt>
      <trkpt lat="44.11171" lon="3.10446">
        <ele>888</ele>
        <time>2014-09-06T09:28:13.271Z</time>
      </trkpt>
      <trkpt lat="44.11172" lon="3.10445">
        <ele>889</ele>
        <time>2014-09-06T09:28:14.269Z</time>
      </trkpt>
      <trkpt lat="44.11176" lon="3.10434">
        <ele>890</ele>
        <time>2014-09-06T09:28:19.276Z</time>
      </trkpt>
      <trkpt lat="44.11177" lon="3.10432">
        <ele>890</ele>
        <time>2014-09-06T09:28:20.256Z</time>
      </trkpt>
      <trkpt lat="44.11182" lon="3.10424">
        <ele>891</ele>
        <time>2014-09-06T09:28:25.266Z</time>
      </trkpt>
      <trkpt lat="44.11183" lon="3.10422">
        <ele>891</ele>
        <time>2014-09-06T09:28:26.261Z</time>
      </trkpt>
      <trkpt lat="44.11191" lon="3.1042">
        <ele>891</ele>
        <time>2014-09-06T09:28:31.512Z</time>
      </trkpt>
      <trkpt lat="44.11192" lon="3.1042">
        <ele>891</ele>
        <time>2014-09-06T09:28:32.254Z</time>
      </trkpt>
      <trkpt lat="44.112" lon="3.10417">
        <ele>888</ele>
        <time>2014-09-06T09:28:36.267Z</time>
      </trkpt>
      <trkpt lat="44.11202" lon="3.10415">
        <ele>890</ele>
        <time>2014-09-06T09:28:37.388Z</time>
      </trkpt>
      <trkpt lat="44.11207" lon="3.10405">
        <ele>888</ele>
        <time>2014-09-06T09:28:43.264Z</time>
      </trkpt>
      <trkpt lat="44.11208" lon="3.10405">
        <ele>889</ele>
        <time>2014-09-06T09:28:44.268Z</time>
      </trkpt>
      <trkpt lat="44.11214" lon="3.10396">
        <ele>894</ele>
        <time>2014-09-06T09:28:52.260Z</time>
      </trkpt>
      <trkpt lat="44.11215" lon="3.10395">
        <ele>895</ele>
        <time>2014-09-06T09:28:53.266Z</time>
      </trkpt>
      <trkpt lat="44.11217" lon="3.10383">
        <ele>892</ele>
        <time>2014-09-06T09:29:00.256Z</time>
      </trkpt>
      <trkpt lat="44.11218" lon="3.10381">
        <ele>892</ele>
        <time>2014-09-06T09:29:01.267Z</time>
      </trkpt>
      <trkpt lat="44.11225" lon="3.10375">
        <ele>891</ele>
        <time>2014-09-06T09:29:07.268Z</time>
      </trkpt>
      <trkpt lat="44.11226" lon="3.10374">
        <ele>890</ele>
        <time>2014-09-06T09:29:08.264Z</time>
      </trkpt>
      <trkpt lat="44.11232" lon="3.10366">
        <ele>886</ele>
        <time>2014-09-06T09:29:15.260Z</time>
      </trkpt>
      <trkpt lat="44.11233" lon="3.10364">
        <ele>884</ele>
        <time>2014-09-06T09:29:16.265Z</time>
      </trkpt>
      <trkpt lat="44.1124" lon="3.10357">
        <ele>890</ele>
        <time>2014-09-06T09:29:25.264Z</time>
      </trkpt>
      <trkpt lat="44.1124" lon="3.10356">
        <ele>889</ele>
        <time>2014-09-06T09:29:26.284Z</time>
      </trkpt>
      <trkpt lat="44.11246" lon="3.10346">
        <ele>886</ele>
        <time>2014-09-06T09:29:36.268Z</time>
      </trkpt>
      <trkpt lat="44.11245" lon="3.10345">
        <ele>885</ele>
        <time>2014-09-06T09:29:37.245Z</time>
      </trkpt>
      <trkpt lat="44.11243" lon="3.10335">
        <ele>880</ele>
        <time>2014-09-06T09:29:48.286Z</time>
      </trkpt>
      <trkpt lat="44.11242" lon="3.10332">
        <ele>881</ele>
        <time>2014-09-06T09:29:49.269Z</time>
      </trkpt>
      <trkpt lat="44.11247" lon="3.10321">
        <ele>868</ele>
        <time>2014-09-06T09:29:54.261Z</time>
      </trkpt>
      <trkpt lat="44.11248" lon="3.1032">
        <ele>867</ele>
        <time>2014-09-06T09:29:55.258Z</time>
      </trkpt>
      <trkpt lat="44.11255" lon="3.10314">
        <ele>865</ele>
        <time>2014-09-06T09:30:03.573Z</time>
      </trkpt>
      <trkpt lat="44.11257" lon="3.10313">
        <ele>863</ele>
        <time>2014-09-06T09:30:04.234Z</time>
      </trkpt>
      <trkpt lat="44.11257" lon="3.10301">
        <ele>857</ele>
        <time>2014-09-06T09:30:12.267Z</time>
      </trkpt>
      <trkpt lat="44.11257" lon="3.103">
        <ele>857</ele>
        <time>2014-09-06T09:30:13.265Z</time>
      </trkpt>
      <trkpt lat="44.11265" lon="3.10298">
        <ele>842</ele>
        <time>2014-09-06T09:30:18.256Z</time>
      </trkpt>
      <trkpt lat="44.11266" lon="3.10298">
        <ele>841</ele>
        <time>2014-09-06T09:30:19.256Z</time>
      </trkpt>
      <trkpt lat="44.11265" lon="3.10294">
        <ele>841</ele>
        <time>2014-09-06T09:30:26.267Z</time>
      </trkpt>
      <trkpt lat="44.11296" lon="3.10076">
        <ele>774</ele>
        <time>2014-09-06T09:33:17.263Z</time>
      </trkpt>
      <trkpt lat="44.11294" lon="3.10064">
        <ele>768</ele>
        <time>2014-09-06T09:33:21.261Z</time>
      </trkpt>
      <trkpt lat="44.11295" lon="3.1006">
        <ele>769</ele>
        <time>2014-09-06T09:33:22.263Z</time>
      </trkpt>
      <trkpt lat="44.11298" lon="3.1005">
        <ele>765</ele>
        <time>2014-09-06T09:33:25.267Z</time>
      </trkpt>
      <trkpt lat="44.11301" lon="3.10046">
        <ele>754</ele>
        <time>2014-09-06T09:33:26.253Z</time>
      </trkpt>
      <trkpt lat="44.11306" lon="3.10038">
        <ele>747</ele>
        <time>2014-09-06T09:33:28.268Z</time>
      </trkpt>
      <trkpt lat="44.11308" lon="3.10034">
        <ele>745</ele>
        <time>2014-09-06T09:33:29.266Z</time>
      </trkpt>
      <trkpt lat="44.1131" lon="3.10029">
        <ele>747</ele>
        <time>2014-09-06T09:33:30.264Z</time>
      </trkpt>
      <trkpt lat="44.11314" lon="3.10025">
        <ele>746</ele>
        <time>2014-09-06T09:33:31.267Z</time>
      </trkpt>
      <trkpt lat="44.11317" lon="3.1002">
        <ele>743</ele>
        <time>2014-09-06T09:33:32.269Z</time>
      </trkpt>
      <trkpt lat="44.11322" lon="3.10016">
        <ele>742</ele>
        <time>2014-09-06T09:33:33.282Z</time>
      </trkpt>
      <trkpt lat="44.11326" lon="3.10007">
        <ele>742</ele>
        <time>2014-09-06T09:33:35.236Z</time>
      </trkpt>
      <trkpt lat="44.11326" lon="3.10003">
        <ele>740</ele>
        <time>2014-09-06T09:33:36.287Z</time>
      </trkpt>
      <trkpt lat="44.11327" lon="3.09991">
        <ele>741</ele>
        <time>2014-09-06T09:33:39.268Z</time>
      </trkpt>
      <trkpt lat="44.11327" lon="3.09989">
        <ele>740</ele>
        <time>2014-09-06T09:33:40.267Z</time>
      </trkpt>
      <trkpt lat="44.1133" lon="3.09977">
        <ele>721</ele>
        <time>2014-09-06T09:33:50.266Z</time>
      </trkpt>
      <trkpt lat="44.1133" lon="3.09976">
        <ele>716</ele>
        <time>2014-09-06T09:33:51.241Z</time>
      </trkpt>
      <trkpt lat="44.11334" lon="3.09965">
        <ele>706</ele>
        <time>2014-09-06T09:34:06.267Z</time>
      </trkpt>
      <trkpt lat="44.11333" lon="3.09964">
        <ele>707</ele>
        <time>2014-09-06T09:34:07.262Z</time>
      </trkpt>
      <trkpt lat="44.11336" lon="3.09953">
        <ele>703</ele>
        <time>2014-09-06T09:34:13.256Z</time>
      </trkpt>
      <trkpt lat="44.11337" lon="3.09952">
        <ele>702</ele>
        <time>2014-09-06T09:34:14.267Z</time>
      </trkpt>
      <trkpt lat="44.1134" lon="3.09941">
        <ele>693</ele>
        <time>2014-09-06T09:34:24.264Z</time>
      </trkpt>
      <trkpt lat="44.11343" lon="3.09934">
        <ele>695</ele>
        <time>2014-09-06T09:34:31.267Z</time>
      </trkpt>
      <trkpt lat="44.11351" lon="3.09937">
        <ele>692</ele>
        <time>2014-09-06T09:34:40.264Z</time>
      </trkpt>
      <trkpt lat="44.11353" lon="3.09937">
        <ele>691</ele>
        <time>2014-09-06T09:34:41.268Z</time>
      </trkpt>
      <trkpt lat="44.11361" lon="3.09936">
        <ele>687</ele>
        <time>2014-09-06T09:34:47.245Z</time>
      </trkpt>
      <trkpt lat="44.11363" lon="3.09937">
        <ele>686</ele>
        <time>2014-09-06T09:34:48.259Z</time>
      </trkpt>
      <trkpt lat="44.11369" lon="3.09942">
        <ele>688</ele>
        <time>2014-09-06T09:34:53.265Z</time>
      </trkpt>
      <trkpt lat="44.1137" lon="3.09944">
        <ele>686</ele>
        <time>2014-09-06T09:34:54.278Z</time>
      </trkpt>
      <trkpt lat="44.11378" lon="3.09949">
        <ele>674</ele>
        <time>2014-09-06T09:34:56.255Z</time>
      </trkpt>
      <trkpt lat="44.11381" lon="3.09951">
        <ele>672</ele>
        <time>2014-09-06T09:34:57.261Z</time>
      </trkpt>
      <trkpt lat="44.11388" lon="3.09958">
        <ele>671</ele>
        <time>2014-09-06T09:34:59.265Z</time>
      </trkpt>
      <trkpt lat="44.11392" lon="3.09961">
        <ele>668</ele>
        <time>2014-09-06T09:35:00.293Z</time>
      </trkpt>
      <trkpt lat="44.11397" lon="3.09963">
        <ele>668</ele>
        <time>2014-09-06T09:35:01.262Z</time>
      </trkpt>
      <trkpt lat="44.11402" lon="3.09964">
        <ele>668</ele>
        <time>2014-09-06T09:35:02.258Z</time>
      </trkpt>
      <trkpt lat="44.11405" lon="3.09953">
        <ele>660</ele>
        <time>2014-09-06T09:35:24.274Z</time>
      </trkpt>
      <trkpt lat="44.11405" lon="3.09951">
        <ele>660</ele>
        <time>2014-09-06T09:35:25.440Z</time>
      </trkpt>
      <trkpt lat="44.11412" lon="3.09945">
        <ele>659</ele>
        <time>2014-09-06T09:35:36.263Z</time>
      </trkpt>
      <trkpt lat="44.11413" lon="3.09945">
        <ele>660</ele>
        <time>2014-09-06T09:35:37.286Z</time>
      </trkpt>
      <trkpt lat="44.11421" lon="3.0994">
        <ele>655</ele>
        <time>2014-09-06T09:35:44.266Z</time>
      </trkpt>
      <trkpt lat="44.11422" lon="3.0994">
        <ele>655</ele>
        <time>2014-09-06T09:35:45.363Z</time>
      </trkpt>
      <trkpt lat="44.11421" lon="3.09929">
        <ele>649</ele>
        <time>2014-09-06T09:35:55.256Z</time>
      </trkpt>
      <trkpt lat="44.11419" lon="3.09926">
        <ele>649</ele>
        <time>2014-09-06T09:35:56.260Z</time>
      </trkpt>
      <trkpt lat="44.11426" lon="3.0992">
        <ele>647</ele>
        <time>2014-09-06T09:36:05.238Z</time>
      </trkpt>
      <trkpt lat="44.11427" lon="3.09921">
        <ele>649</ele>
        <time>2014-09-06T09:36:06.268Z</time>
      </trkpt>
      <trkpt lat="44.11435" lon="3.09926">
        <ele>640</ele>
        <time>2014-09-06T09:36:19.270Z</time>
      </trkpt>
      <trkpt lat="44.11436" lon="3.09925">
        <ele>641</ele>
        <time>2014-09-06T09:36:20.264Z</time>
      </trkpt>
      <trkpt lat="44.11442" lon="3.0992">
        <ele>636</ele>
        <time>2014-09-06T09:36:50.239Z</time>
      </trkpt>
      <trkpt lat="44.11445" lon="3.09916">
        <ele>630</ele>
        <time>2014-09-06T09:36:51.257Z</time>
      </trkpt>
      <trkpt lat="44.11452" lon="3.0991">
        <ele>625</ele>
        <time>2014-09-06T09:36:53.267Z</time>
      </trkpt>
      <trkpt lat="44.11455" lon="3.09906">
        <ele>624</ele>
        <time>2014-09-06T09:36:54.264Z</time>
      </trkpt>
      <trkpt lat="44.11459" lon="3.09897">
        <ele>623</ele>
        <time>2014-09-06T09:36:56.270Z</time>
      </trkpt>
      <trkpt lat="44.11461" lon="3.09894">
        <ele>621</ele>
        <time>2014-09-06T09:36:57.265Z</time>
      </trkpt>
      <trkpt lat="44.11466" lon="3.09888">
        <ele>618</ele>
        <time>2014-09-06T09:36:59.242Z</time>
      </trkpt>
      <trkpt lat="44.11469" lon="3.09884">
        <ele>616</ele>
        <time>2014-09-06T09:37:00.269Z</time>
      </trkpt>
      <trkpt lat="44.11474" lon="3.09876">
        <ele>620</ele>
        <time>2014-09-06T09:37:03.268Z</time>
      </trkpt>
      <trkpt lat="44.11476" lon="3.09875">
        <ele>622</ele>
        <time>2014-09-06T09:37:04.265Z</time>
      </trkpt>
      <trkpt lat="44.11482" lon="3.09868">
        <ele>623</ele>
        <time>2014-09-06T09:37:08.265Z</time>
      </trkpt>
      <trkpt lat="44.11484" lon="3.09868">
        <ele>625</ele>
        <time>2014-09-06T09:37:09.272Z</time>
      </trkpt>
      <trkpt lat="44.11492" lon="3.09868">
        <ele>626</ele>
        <time>2014-09-06T09:37:19.262Z</time>
      </trkpt>
      <trkpt lat="44.11493" lon="3.09868">
        <ele>625</ele>
        <time>2014-09-06T09:37:20.255Z</time>
      </trkpt>
      <trkpt lat="44.11498" lon="3.09863">
        <ele>613</ele>
        <time>2014-09-06T09:37:35.261Z</time>
      </trkpt>
      <trkpt lat="44.11499" lon="3.09859">
        <ele>612</ele>
        <time>2014-09-06T09:37:36.268Z</time>
      </trkpt>
      <trkpt lat="44.11502" lon="3.09849">
        <ele>613</ele>
        <time>2014-09-06T09:37:38.334Z</time>
      </trkpt>
      <trkpt lat="44.11504" lon="3.09844">
        <ele>611</ele>
        <time>2014-09-06T09:37:39.245Z</time>
      </trkpt>
      <trkpt lat="44.11507" lon="3.09837">
        <ele>611</ele>
        <time>2014-09-06T09:37:40.267Z</time>
      </trkpt>
      <trkpt lat="44.11509" lon="3.09831">
        <ele>609</ele>
        <time>2014-09-06T09:37:41.262Z</time>
      </trkpt>
      <trkpt lat="44.11511" lon="3.09825">
        <ele>607</ele>
        <time>2014-09-06T09:37:42.298Z</time>
      </trkpt>
      <trkpt lat="44.11512" lon="3.09819">
        <ele>607</ele>
        <time>2014-09-06T09:37:43.260Z</time>
      </trkpt>
      <trkpt lat="44.11515" lon="3.09809">
        <ele>607</ele>
        <time>2014-09-06T09:37:45.270Z</time>
      </trkpt>
      <trkpt lat="44.11515" lon="3.09802">
        <ele>605</ele>
        <time>2014-09-06T09:37:46.817Z</time>
      </trkpt>
      <trkpt lat="44.11515" lon="3.09795">
        <ele>603</ele>
        <time>2014-09-06T09:37:47.241Z</time>
      </trkpt>
      <trkpt lat="44.11515" lon="3.0979">
        <ele>603</ele>
        <time>2014-09-06T09:37:48.267Z</time>
      </trkpt>
      <trkpt lat="44.11511" lon="3.09778">
        <ele>603</ele>
        <time>2014-09-06T09:37:55.268Z</time>
      </trkpt>
      <trkpt lat="44.11511" lon="3.09777">
        <ele>604</ele>
        <time>2014-09-06T09:37:56.266Z</time>
      </trkpt>
      <trkpt lat="44.11508" lon="3.09766">
        <ele>598</ele>
        <time>2014-09-06T09:38:04.254Z</time>
      </trkpt>
      <trkpt lat="44.11507" lon="3.09764">
        <ele>598</ele>
        <time>2014-09-06T09:38:05.275Z</time>
      </trkpt>
      <trkpt lat="44.11505" lon="3.09754">
        <ele>594</ele>
        <time>2014-09-06T09:38:13.267Z</time>
      </trkpt>
      <trkpt lat="44.11506" lon="3.09751">
        <ele>591</ele>
        <time>2014-09-06T09:38:14.294Z</time>
      </trkpt>
      <trkpt lat="44.11508" lon="3.09741">
        <ele>592</ele>
        <time>2014-09-06T09:38:17.267Z</time>
      </trkpt>
      <trkpt lat="44.11508" lon="3.09738">
        <ele>591</ele>
        <time>2014-09-06T09:38:18.344Z</time>
      </trkpt>
      <trkpt lat="44.11509" lon="3.0973">
        <ele>591</ele>
        <time>2014-09-06T09:38:20.265Z</time>
      </trkpt>
      <trkpt lat="44.11509" lon="3.09726">
        <ele>591</ele>
        <time>2014-09-06T09:38:21.270Z</time>
      </trkpt>
      <trkpt lat="44.1151" lon="3.09715">
        <ele>589</ele>
        <time>2014-09-06T09:38:24.267Z</time>
      </trkpt>
      <trkpt lat="44.11511" lon="3.09712">
        <ele>588</ele>
        <time>2014-09-06T09:38:25.265Z</time>
      </trkpt>
      <trkpt lat="44.11511" lon="3.09702">
        <ele>588</ele>
        <time>2014-09-06T09:38:28.266Z</time>
      </trkpt>
      <trkpt lat="44.11512" lon="3.09698">
        <ele>587</ele>
        <time>2014-09-06T09:38:29.269Z</time>
      </trkpt>
      <trkpt lat="44.11512" lon="3.09686">
        <ele>587</ele>
        <time>2014-09-06T09:38:33.275Z</time>
      </trkpt>
      <trkpt lat="44.11512" lon="3.09683">
        <ele>586</ele>
        <time>2014-09-06T09:38:34.298Z</time>
      </trkpt>
      <trkpt lat="44.11511" lon="3.09673">
        <ele>585</ele>
        <time>2014-09-06T09:38:37.273Z</time>
      </trkpt>
      <trkpt lat="44.1151" lon="3.09671">
        <ele>583</ele>
        <time>2014-09-06T09:38:38.262Z</time>
      </trkpt>
      <trkpt lat="44.11509" lon="3.09661">
        <ele>582</ele>
        <time>2014-09-06T09:38:41.269Z</time>
      </trkpt>
      <trkpt lat="44.11508" lon="3.09657">
        <ele>581</ele>
        <time>2014-09-06T09:38:42.264Z</time>
      </trkpt>
      <trkpt lat="44.11506" lon="3.09649">
        <ele>579</ele>
        <time>2014-09-06T09:38:44.268Z</time>
      </trkpt>
      <trkpt lat="44.11505" lon="3.09645">
        <ele>578</ele>
        <time>2014-09-06T09:38:45.260Z</time>
      </trkpt>
      <trkpt lat="44.11502" lon="3.09634">
        <ele>577</ele>
        <time>2014-09-06T09:38:48.256Z</time>
      </trkpt>
      <trkpt lat="44.11501" lon="3.09631">
        <ele>577</ele>
        <time>2014-09-06T09:38:49.264Z</time>
      </trkpt>
      <trkpt lat="44.11499" lon="3.09622">
        <ele>577</ele>
        <time>2014-09-06T09:38:51.234Z</time>
      </trkpt>
      <trkpt lat="44.11499" lon="3.09616">
        <ele>577</ele>
        <time>2014-09-06T09:38:52.260Z</time>
      </trkpt>
      <trkpt lat="44.11497" lon="3.09606">
        <ele>573</ele>
        <time>2014-09-06T09:38:55.267Z</time>
      </trkpt>
      <trkpt lat="44.11496" lon="3.09603">
        <ele>570</ele>
        <time>2014-09-06T09:38:56.260Z</time>
      </trkpt>
      <trkpt lat="44.11494" lon="3.09591">
        <ele>572</ele>
        <time>2014-09-06T09:39:00.264Z</time>
      </trkpt>
      <trkpt lat="44.11493" lon="3.09587">
        <ele>572</ele>
        <time>2014-09-06T09:39:01.269Z</time>
      </trkpt>
      <trkpt lat="44.11491" lon="3.0958">
        <ele>573</ele>
        <time>2014-09-06T09:39:02.272Z</time>
      </trkpt>
      <trkpt lat="44.1149" lon="3.09573">
        <ele>574</ele>
        <time>2014-09-06T09:39:03.266Z</time>
      </trkpt>
      <trkpt lat="44.11488" lon="3.09566">
        <ele>574</ele>
        <time>2014-09-06T09:39:04.268Z</time>
      </trkpt>
      <trkpt lat="44.11488" lon="3.0956">
        <ele>575</ele>
        <time>2014-09-06T09:39:05.264Z</time>
      </trkpt>
      <trkpt lat="44.11489" lon="3.09551">
        <ele>574</ele>
        <time>2014-09-06T09:39:07.267Z</time>
      </trkpt>
      <trkpt lat="44.11489" lon="3.09548">
        <ele>573</ele>
        <time>2014-09-06T09:39:08.259Z</time>
      </trkpt>
      <trkpt lat="44.11488" lon="3.09538">
        <ele>575</ele>
        <time>2014-09-06T09:39:10.431Z</time>
      </trkpt>
      <trkpt lat="44.11487" lon="3.09534">
        <ele>574</ele>
        <time>2014-09-06T09:39:11.263Z</time>
      </trkpt>
      <trkpt lat="44.11485" lon="3.09524">
        <ele>573</ele>
        <time>2014-09-06T09:39:14.276Z</time>
      </trkpt>
      <trkpt lat="44.11484" lon="3.09522">
        <ele>572</ele>
        <time>2014-09-06T09:39:15.264Z</time>
      </trkpt>
      <trkpt lat="44.11479" lon="3.09512">
        <ele>571</ele>
        <time>2014-09-06T09:39:20.265Z</time>
      </trkpt>
      <trkpt lat="44.11478" lon="3.0951">
        <ele>570</ele>
        <time>2014-09-06T09:39:21.323Z</time>
      </trkpt>
      <trkpt lat="44.11473" lon="3.095">
        <ele>569</ele>
        <time>2014-09-06T09:39:25.324Z</time>
      </trkpt>
      <trkpt lat="44.11473" lon="3.09498">
        <ele>566</ele>
        <time>2014-09-06T09:39:26.237Z</time>
      </trkpt>
      <trkpt lat="44.11469" lon="3.09488">
        <ele>560</ele>
        <time>2014-09-06T09:39:30.264Z</time>
      </trkpt>
      <trkpt lat="44.11469" lon="3.09485">
        <ele>560</ele>
        <time>2014-09-06T09:39:31.300Z</time>
      </trkpt>
      <trkpt lat="44.11468" lon="3.09474">
        <ele>559</ele>
        <time>2014-09-06T09:39:35.264Z</time>
      </trkpt>
      <trkpt lat="44.11468" lon="3.09472">
        <ele>559</ele>
        <time>2014-09-06T09:39:36.267Z</time>
      </trkpt>
      <trkpt lat="44.11467" lon="3.0946">
        <ele>560</ele>
        <time>2014-09-06T09:39:41.289Z</time>
      </trkpt>
      <trkpt lat="44.11468" lon="3.09458">
        <ele>559</ele>
        <time>2014-09-06T09:39:42.249Z</time>
      </trkpt>
      <trkpt lat="44.11471" lon="3.09447">
        <ele>558</ele>
        <time>2014-09-06T09:39:46.268Z</time>
      </trkpt>
      <trkpt lat="44.11472" lon="3.09444">
        <ele>557</ele>
        <time>2014-09-06T09:39:47.263Z</time>
      </trkpt>
      <trkpt lat="44.11474" lon="3.09434">
        <ele>557</ele>
        <time>2014-09-06T09:39:51.267Z</time>
      </trkpt>
      <trkpt lat="44.11473" lon="3.09431">
        <ele>557</ele>
        <time>2014-09-06T09:39:52.260Z</time>
      </trkpt>
      <trkpt lat="44.11468" lon="3.09424">
        <ele>557</ele>
        <time>2014-09-06T09:39:56.266Z</time>
      </trkpt>
      <trkpt lat="44.11466" lon="3.09422">
        <ele>558</ele>
        <time>2014-09-06T09:39:57.329Z</time>
      </trkpt>
      <trkpt lat="44.1146" lon="3.09414">
        <ele>557</ele>
        <time>2014-09-06T09:40:00.258Z</time>
      </trkpt>
      <trkpt lat="44.11458" lon="3.09412">
        <ele>557</ele>
        <time>2014-09-06T09:40:01.269Z</time>
      </trkpt>
      <trkpt lat="44.11452" lon="3.09407">
        <ele>558</ele>
        <time>2014-09-06T09:40:04.260Z</time>
      </trkpt>
      <trkpt lat="44.11449" lon="3.09404">
        <ele>557</ele>
        <time>2014-09-06T09:40:05.324Z</time>
      </trkpt>
      <trkpt lat="44.11443" lon="3.09397">
        <ele>556</ele>
        <time>2014-09-06T09:40:08.258Z</time>
      </trkpt>
      <trkpt lat="44.1144" lon="3.09395">
        <ele>556</ele>
        <time>2014-09-06T09:40:09.266Z</time>
      </trkpt>
      <trkpt lat="44.11433" lon="3.0939">
        <ele>555</ele>
        <time>2014-09-06T09:40:12.261Z</time>
      </trkpt>
      <trkpt lat="44.1143" lon="3.09389">
        <ele>555</ele>
        <time>2014-09-06T09:40:13.430Z</time>
      </trkpt>
      <trkpt lat="44.11425" lon="3.09387">
        <ele>552</ele>
        <time>2014-09-06T09:40:15.266Z</time>
      </trkpt>
      <trkpt lat="44.11422" lon="3.09385">
        <ele>554</ele>
        <time>2014-09-06T09:40:16.308Z</time>
      </trkpt>
      <trkpt lat="44.11416" lon="3.09378">
        <ele>555</ele>
        <time>2014-09-06T09:40:19.266Z</time>
      </trkpt>
      <trkpt lat="44.11414" lon="3.09376">
        <ele>556</ele>
        <time>2014-09-06T09:40:20.264Z</time>
      </trkpt>
      <trkpt lat="44.11411" lon="3.09374">
        <ele>555</ele>
        <time>2014-09-06T09:40:21.265Z</time>
      </trkpt>
      <trkpt lat="44.11404" lon="3.09358">
        <ele>556</ele>
        <time>2014-09-06T09:40:24.266Z</time>
      </trkpt>
      <trkpt lat="44.114" lon="3.09349">
        <ele>555</ele>
        <time>2014-09-06T09:40:27.469Z</time>
      </trkpt>
      <trkpt lat="44.11397" lon="3.09349">
        <ele>554</ele>
        <time>2014-09-06T09:40:28.265Z</time>
      </trkpt>
      <trkpt lat="44.11388" lon="3.0935">
        <ele>554</ele>
        <time>2014-09-06T09:40:30.384Z</time>
      </trkpt>
      <trkpt lat="44.11387" lon="3.0935">
        <ele>550</ele>
        <time>2014-09-06T09:40:31.236Z</time>
      </trkpt>
      <trkpt lat="44.11379" lon="3.09346">
        <ele>548</ele>
        <time>2014-09-06T09:40:33.265Z</time>
      </trkpt>
      <trkpt lat="44.11376" lon="3.09344">
        <ele>548</ele>
        <time>2014-09-06T09:40:34.255Z</time>
      </trkpt>
      <trkpt lat="44.11368" lon="3.09338">
        <ele>550</ele>
        <time>2014-09-06T09:40:36.262Z</time>
      </trkpt>
      <trkpt lat="44.11363" lon="3.09334">
        <ele>549</ele>
        <time>2014-09-06T09:40:37.265Z</time>
      </trkpt>
      <trkpt lat="44.11357" lon="3.09324">
        <ele>546</ele>
        <time>2014-09-06T09:40:39.260Z</time>
      </trkpt>
      <trkpt lat="44.11355" lon="3.09319">
        <ele>546</ele>
        <time>2014-09-06T09:40:40.264Z</time>
      </trkpt>
      <trkpt lat="44.11357" lon="3.09308">
        <ele>542</ele>
        <time>2014-09-06T09:40:44.266Z</time>
      </trkpt>
      <trkpt lat="44.11357" lon="3.09306">
        <ele>543</ele>
        <time>2014-09-06T09:40:45.260Z</time>
      </trkpt>
      <trkpt lat="44.11354" lon="3.09295">
        <ele>539</ele>
        <time>2014-09-06T09:40:49.260Z</time>
      </trkpt>
      <trkpt lat="44.11352" lon="3.09295">
        <ele>533</ele>
        <time>2014-09-06T09:40:50.266Z</time>
      </trkpt>
      <trkpt lat="44.11346" lon="3.09296">
        <ele>534</ele>
        <time>2014-09-06T09:40:53.295Z</time>
      </trkpt>
      <trkpt lat="44.11343" lon="3.09295">
        <ele>534</ele>
        <time>2014-09-06T09:40:54.257Z</time>
      </trkpt>
      <trkpt lat="44.11337" lon="3.09289">
        <ele>534</ele>
        <time>2014-09-06T09:40:56.262Z</time>
      </trkpt>
      <trkpt lat="44.11337" lon="3.09283">
        <ele>531</ele>
        <time>2014-09-06T09:40:57.284Z</time>
      </trkpt>
      <trkpt lat="44.11334" lon="3.09276">
        <ele>532</ele>
        <time>2014-09-06T09:40:59.265Z</time>
      </trkpt>
      <trkpt lat="44.11329" lon="3.09273">
        <ele>528</ele>
        <time>2014-09-06T09:41:00.265Z</time>
      </trkpt>
      <trkpt lat="44.11322" lon="3.09269">
        <ele>529</ele>
        <time>2014-09-06T09:41:02.250Z</time>
      </trkpt>
      <trkpt lat="44.11319" lon="3.09268">
        <ele>530</ele>
        <time>2014-09-06T09:41:03.260Z</time>
      </trkpt>
      <trkpt lat="44.11312" lon="3.0927">
        <ele>531</ele>
        <time>2014-09-06T09:41:06.258Z</time>
      </trkpt>
      <trkpt lat="44.1131" lon="3.0927">
        <ele>531</ele>
        <time>2014-09-06T09:41:07.262Z</time>
      </trkpt>
      <trkpt lat="44.11302" lon="3.0927">
        <ele>527</ele>
        <time>2014-09-06T09:41:11.260Z</time>
      </trkpt>
      <trkpt lat="44.11299" lon="3.09269">
        <ele>526</ele>
        <time>2014-09-06T09:41:12.264Z</time>
      </trkpt>
      <trkpt lat="44.1129" lon="3.09267">
        <ele>527</ele>
        <time>2014-09-06T09:41:17.255Z</time>
      </trkpt>
      <trkpt lat="44.11289" lon="3.09264">
        <ele>528</ele>
        <time>2014-09-06T09:41:18.256Z</time>
      </trkpt>
      <trkpt lat="44.11284" lon="3.09256">
        <ele>529</ele>
        <time>2014-09-06T09:41:20.264Z</time>
      </trkpt>
      <trkpt lat="44.11279" lon="3.09253">
        <ele>528</ele>
        <time>2014-09-06T09:41:21.258Z</time>
      </trkpt>
      <trkpt lat="44.11273" lon="3.09246">
        <ele>526</ele>
        <time>2014-09-06T09:41:23.261Z</time>
      </trkpt>
      <trkpt lat="44.1127" lon="3.09244">
        <ele>525</ele>
        <time>2014-09-06T09:41:24.264Z</time>
      </trkpt>
      <trkpt lat="44.11264" lon="3.09243">
        <ele>523</ele>
        <time>2014-09-06T09:41:26.265Z</time>
      </trkpt>
      <trkpt lat="44.11261" lon="3.09244">
        <ele>522</ele>
        <time>2014-09-06T09:41:27.256Z</time>
      </trkpt>
      <trkpt lat="44.11253" lon="3.09242">
        <ele>515</ele>
        <time>2014-09-06T09:41:30.261Z</time>
      </trkpt>
      <trkpt lat="44.1125" lon="3.0924">
        <ele>517</ele>
        <time>2014-09-06T09:41:31.301Z</time>
      </trkpt>
      <trkpt lat="44.11242" lon="3.09237">
        <ele>517</ele>
        <time>2014-09-06T09:41:35.253Z</time>
      </trkpt>
      <trkpt lat="44.1124" lon="3.09236">
        <ele>518</ele>
        <time>2014-09-06T09:41:36.257Z</time>
      </trkpt>
      <trkpt lat="44.11233" lon="3.09235">
        <ele>517</ele>
        <time>2014-09-06T09:41:38.249Z</time>
      </trkpt>
      <trkpt lat="44.1123" lon="3.09235">
        <ele>517</ele>
        <time>2014-09-06T09:41:39.241Z</time>
      </trkpt>
      <trkpt lat="44.11221" lon="3.09234">
        <ele>514</ele>
        <time>2014-09-06T09:41:42.235Z</time>
      </trkpt>
      <trkpt lat="44.11218" lon="3.09231">
        <ele>512</ele>
        <time>2014-09-06T09:41:43.257Z</time>
      </trkpt>
      <trkpt lat="44.11213" lon="3.09221">
        <ele>510</ele>
        <time>2014-09-06T09:41:46.397Z</time>
      </trkpt>
      <trkpt lat="44.11212" lon="3.09217">
        <ele>512</ele>
        <time>2014-09-06T09:41:47.249Z</time>
      </trkpt>
      <trkpt lat="44.11209" lon="3.09208">
        <ele>511</ele>
        <time>2014-09-06T09:41:49.260Z</time>
      </trkpt>
      <trkpt lat="44.11208" lon="3.09204">
        <ele>511</ele>
        <time>2014-09-06T09:41:50.255Z</time>
      </trkpt>
      <trkpt lat="44.11204" lon="3.09197">
        <ele>509</ele>
        <time>2014-09-06T09:41:52.266Z</time>
      </trkpt>
      <trkpt lat="44.11202" lon="3.09194">
        <ele>510</ele>
        <time>2014-09-06T09:41:53.277Z</time>
      </trkpt>
      <trkpt lat="44.11196" lon="3.09185">
        <ele>508</ele>
        <time>2014-09-06T09:41:58.263Z</time>
      </trkpt>
      <trkpt lat="44.11195" lon="3.09183">
        <ele>510</ele>
        <time>2014-09-06T09:41:59.257Z</time>
      </trkpt>
      <trkpt lat="44.11193" lon="3.09174">
        <ele>510</ele>
        <time>2014-09-06T09:42:02.279Z</time>
      </trkpt>
      <trkpt lat="44.11192" lon="3.09171">
        <ele>510</ele>
        <time>2014-09-06T09:42:03.288Z</time>
      </trkpt>
      <trkpt lat="44.11187" lon="3.09161">
        <ele>508</ele>
        <time>2014-09-06T09:42:06.236Z</time>
      </trkpt>
      <trkpt lat="44.11184" lon="3.09161">
        <ele>507</ele>
        <time>2014-09-06T09:42:07.264Z</time>
      </trkpt>
      <trkpt lat="44.11176" lon="3.09157">
        <ele>505</ele>
        <time>2014-09-06T09:42:10.267Z</time>
      </trkpt>
      <trkpt lat="44.11173" lon="3.09156">
        <ele>504</ele>
        <time>2014-09-06T09:42:11.258Z</time>
      </trkpt>
      <trkpt lat="44.11167" lon="3.09154">
        <ele>504</ele>
        <time>2014-09-06T09:42:13.270Z</time>
      </trkpt>
      <trkpt lat="44.11164" lon="3.09154">
        <ele>501</ele>
        <time>2014-09-06T09:42:14.260Z</time>
      </trkpt>
      <trkpt lat="44.11156" lon="3.09153">
        <ele>501</ele>
        <time>2014-09-06T09:42:16.315Z</time>
      </trkpt>
      <trkpt lat="44.11154" lon="3.09153">
        <ele>499</ele>
        <time>2014-09-06T09:42:17.243Z</time>
      </trkpt>
      <trkpt lat="44.11145" lon="3.09151">
        <ele>499</ele>
        <time>2014-09-06T09:42:20.238Z</time>
      </trkpt>
      <trkpt lat="44.11143" lon="3.09151">
        <ele>500</ele>
        <time>2014-09-06T09:42:21.262Z</time>
      </trkpt>
      <trkpt lat="44.11134" lon="3.09153">
        <ele>498</ele>
        <time>2014-09-06T09:42:24.248Z</time>
      </trkpt>
      <trkpt lat="44.11132" lon="3.09153">
        <ele>498</ele>
        <time>2014-09-06T09:42:25.260Z</time>
      </trkpt>
      <trkpt lat="44.11124" lon="3.09155">
        <ele>500</ele>
        <time>2014-09-06T09:42:28.265Z</time>
      </trkpt>
      <trkpt lat="44.1112" lon="3.09155">
        <ele>500</ele>
        <time>2014-09-06T09:42:29.266Z</time>
      </trkpt>
      <trkpt lat="44.11112" lon="3.09156">
        <ele>497</ele>
        <time>2014-09-06T09:42:32.240Z</time>
      </trkpt>
      <trkpt lat="44.1111" lon="3.09156">
        <ele>498</ele>
        <time>2014-09-06T09:42:33.261Z</time>
      </trkpt>
      <trkpt lat="44.11102" lon="3.09157">
        <ele>499</ele>
        <time>2014-09-06T09:42:36.261Z</time>
      </trkpt>
      <trkpt lat="44.11099" lon="3.09157">
        <ele>498</ele>
        <time>2014-09-06T09:42:37.273Z</time>
      </trkpt>
      <trkpt lat="44.11091" lon="3.09156">
        <ele>495</ele>
        <time>2014-09-06T09:42:40.260Z</time>
      </trkpt>
      <trkpt lat="44.11088" lon="3.09153">
        <ele>496</ele>
        <time>2014-09-06T09:42:41.265Z</time>
      </trkpt>
      <trkpt lat="44.11083" lon="3.09147">
        <ele>495</ele>
        <time>2014-09-06T09:42:43.264Z</time>
      </trkpt>
      <trkpt lat="44.1108" lon="3.09142">
        <ele>495</ele>
        <time>2014-09-06T09:42:44.267Z</time>
      </trkpt>
      <trkpt lat="44.11073" lon="3.09135">
        <ele>492</ele>
        <time>2014-09-06T09:42:45.260Z</time>
      </trkpt>
      <trkpt lat="44.11055" lon="3.09115">
        <ele>493</ele>
        <time>2014-09-06T09:42:46.317Z</time>
      </trkpt>
      <trkpt lat="44.11063" lon="3.09116">
        <ele>493</ele>
        <time>2014-09-06T09:42:48.251Z</time>
      </trkpt>
      <trkpt lat="44.11068" lon="3.09113">
        <ele>492</ele>
        <time>2014-09-06T09:42:49.255Z</time>
      </trkpt>
      <trkpt lat="44.11069" lon="3.09111">
        <ele>494</ele>
        <time>2014-09-06T09:42:50.266Z</time>
      </trkpt>
      <trkpt lat="44.11079" lon="3.091">
        <ele>487</ele>
        <time>2014-09-06T09:42:51.262Z</time>
      </trkpt>
      <trkpt lat="44.11075" lon="3.09087">
        <ele>488</ele>
        <time>2014-09-06T09:42:52.261Z</time>
      </trkpt>
      <trkpt lat="44.11071" lon="3.0909">
        <ele>486</ele>
        <time>2014-09-06T09:42:54.260Z</time>
      </trkpt>
      <trkpt lat="44.11062" lon="3.09088">
        <ele>485</ele>
        <time>2014-09-06T09:42:55.271Z</time>
      </trkpt>
      <trkpt lat="44.11048" lon="3.09088">
        <ele>483</ele>
        <time>2014-09-06T09:42:56.264Z</time>
      </trkpt>
      <trkpt lat="44.11039" lon="3.09088">
        <ele>483</ele>
        <time>2014-09-06T09:43:00.285Z</time>
      </trkpt>
      <trkpt lat="44.11038" lon="3.09088">
        <ele>480</ele>
        <time>2014-09-06T09:43:01.317Z</time>
      </trkpt>
      <trkpt lat="44.11031" lon="3.0909">
        <ele>480</ele>
        <time>2014-09-06T09:43:05.252Z</time>
      </trkpt>
      <trkpt lat="44.11028" lon="3.0909">
        <ele>482</ele>
        <time>2014-09-06T09:43:06.239Z</time>
      </trkpt>
      <trkpt lat="44.11021" lon="3.0909">
        <ele>484</ele>
        <time>2014-09-06T09:43:09.266Z</time>
      </trkpt>
      <trkpt lat="44.11018" lon="3.09091">
        <ele>483</ele>
        <time>2014-09-06T09:43:10.259Z</time>
      </trkpt>
      <trkpt lat="44.11011" lon="3.09092">
        <ele>485</ele>
        <time>2014-09-06T09:43:12.412Z</time>
      </trkpt>
      <trkpt lat="44.11008" lon="3.09093">
        <ele>485</ele>
        <time>2014-09-06T09:43:13.261Z</time>
      </trkpt>
      <trkpt lat="44.11" lon="3.09094">
        <ele>483</ele>
        <time>2014-09-06T09:43:16.330Z</time>
      </trkpt>
      <trkpt lat="44.10996" lon="3.09094">
        <ele>482</ele>
        <time>2014-09-06T09:43:17.264Z</time>
      </trkpt>
      <trkpt lat="44.10988" lon="3.09094">
        <ele>484</ele>
        <time>2014-09-06T09:43:20.265Z</time>
      </trkpt>
      <trkpt lat="44.10986" lon="3.09094">
        <ele>482</ele>
        <time>2014-09-06T09:43:21.259Z</time>
      </trkpt>
      <trkpt lat="44.10978" lon="3.09097">
        <ele>480</ele>
        <time>2014-09-06T09:43:24.237Z</time>
      </trkpt>
      <trkpt lat="44.10976" lon="3.09099">
        <ele>481</ele>
        <time>2014-09-06T09:43:25.265Z</time>
      </trkpt>
      <trkpt lat="44.10968" lon="3.09102">
        <ele>481</ele>
        <time>2014-09-06T09:43:28.259Z</time>
      </trkpt>
      <trkpt lat="44.10965" lon="3.09102">
        <ele>482</ele>
        <time>2014-09-06T09:43:29.261Z</time>
      </trkpt>
      <trkpt lat="44.10959" lon="3.09103">
        <ele>482</ele>
        <time>2014-09-06T09:43:31.264Z</time>
      </trkpt>
      <trkpt lat="44.10955" lon="3.09102">
        <ele>482</ele>
        <time>2014-09-06T09:43:32.238Z</time>
      </trkpt>
      <trkpt lat="44.10947" lon="3.09102">
        <ele>485</ele>
        <time>2014-09-06T09:43:35.257Z</time>
      </trkpt>
      <trkpt lat="44.10945" lon="3.09102">
        <ele>486</ele>
        <time>2014-09-06T09:43:36.238Z</time>
      </trkpt>
      <trkpt lat="44.10938" lon="3.091">
        <ele>483</ele>
        <time>2014-09-06T09:43:39.637Z</time>
      </trkpt>
      <trkpt lat="44.10936" lon="3.09099">
        <ele>484</ele>
        <time>2014-09-06T09:43:40.237Z</time>
      </trkpt>
      <trkpt lat="44.10927" lon="3.09099">
        <ele>485</ele>
        <time>2014-09-06T09:43:43.264Z</time>
      </trkpt>
      <trkpt lat="44.10924" lon="3.09098">
        <ele>486</ele>
        <time>2014-09-06T09:43:44.259Z</time>
      </trkpt>
      <trkpt lat="44.10918" lon="3.09097">
        <ele>489</ele>
        <time>2014-09-06T09:43:46.269Z</time>
      </trkpt>
      <trkpt lat="44.10912" lon="3.09096">
        <ele>489</ele>
        <time>2014-09-06T09:43:48.265Z</time>
      </trkpt>
      <trkpt lat="44.10906" lon="3.09095">
        <ele>489</ele>
        <time>2014-09-06T09:43:50.262Z</time>
      </trkpt>
      <trkpt lat="44.10903" lon="3.09095">
        <ele>489</ele>
        <time>2014-09-06T09:43:51.259Z</time>
      </trkpt>
      <trkpt lat="44.10896" lon="3.09095">
        <ele>489</ele>
        <time>2014-09-06T09:43:53.258Z</time>
      </trkpt>
      <trkpt lat="44.10893" lon="3.09095">
        <ele>488</ele>
        <time>2014-09-06T09:43:54.261Z</time>
      </trkpt>
      <trkpt lat="44.10886" lon="3.09095">
        <ele>488</ele>
        <time>2014-09-06T09:43:57.262Z</time>
      </trkpt>
      <trkpt lat="44.10884" lon="3.09094">
        <ele>490</ele>
        <time>2014-09-06T09:43:58.261Z</time>
      </trkpt>
      <trkpt lat="44.10875" lon="3.09094">
        <ele>492</ele>
        <time>2014-09-06T09:44:02.258Z</time>
      </trkpt>
      <trkpt lat="44.10873" lon="3.09095">
        <ele>493</ele>
        <time>2014-09-06T09:44:03.263Z</time>
      </trkpt>
      <trkpt lat="44.10866" lon="3.09094">
        <ele>491</ele>
        <time>2014-09-06T09:44:06.265Z</time>
      </trkpt>
      <trkpt lat="44.10863" lon="3.09094">
        <ele>491</ele>
        <time>2014-09-06T09:44:07.256Z</time>
      </trkpt>
      <trkpt lat="44.10856" lon="3.09092">
        <ele>489</ele>
        <time>2014-09-06T09:44:10.262Z</time>
      </trkpt>
      <trkpt lat="44.10854" lon="3.09092">
        <ele>489</ele>
        <time>2014-09-06T09:44:11.236Z</time>
      </trkpt>
      <trkpt lat="44.10848" lon="3.09091">
        <ele>487</ele>
        <time>2014-09-06T09:44:13.262Z</time>
      </trkpt>
      <trkpt lat="44.10844" lon="3.09092">
        <ele>487</ele>
        <time>2014-09-06T09:44:14.264Z</time>
      </trkpt>
      <trkpt lat="44.10836" lon="3.09089">
        <ele>485</ele>
        <time>2014-09-06T09:44:17.260Z</time>
      </trkpt>
      <trkpt lat="44.10834" lon="3.09084">
        <ele>486</ele>
        <time>2014-09-06T09:44:18.260Z</time>
      </trkpt>
      <trkpt lat="44.1083" lon="3.09074">
        <ele>475</ele>
        <time>2014-09-06T09:44:27.261Z</time>
      </trkpt>
      <trkpt lat="44.10827" lon="3.0907">
        <ele>473</ele>
        <time>2014-09-06T09:44:28.264Z</time>
      </trkpt>
      <trkpt lat="44.10822" lon="3.09063">
        <ele>473</ele>
        <time>2014-09-06T09:44:30.396Z</time>
      </trkpt>
      <trkpt lat="44.10819" lon="3.09061">
        <ele>473</ele>
        <time>2014-09-06T09:44:31.267Z</time>
      </trkpt>
      <trkpt lat="44.10812" lon="3.09055">
        <ele>470</ele>
        <time>2014-09-06T09:44:33.266Z</time>
      </trkpt>
      <trkpt lat="44.10809" lon="3.09054">
        <ele>468</ele>
        <time>2014-09-06T09:44:34.272Z</time>
      </trkpt>
      <trkpt lat="44.108" lon="3.09052">
        <ele>470</ele>
        <time>2014-09-06T09:44:38.261Z</time>
      </trkpt>
      <trkpt lat="44.10799" lon="3.09051">
        <ele>471</ele>
        <time>2014-09-06T09:44:39.247Z</time>
      </trkpt>
      <trkpt lat="44.10792" lon="3.09047">
        <ele>470</ele>
        <time>2014-09-06T09:44:43.264Z</time>
      </trkpt>
      <trkpt lat="44.1079" lon="3.09046">
        <ele>470</ele>
        <time>2014-09-06T09:44:44.259Z</time>
      </trkpt>
      <trkpt lat="44.10783" lon="3.09042">
        <ele>467</ele>
        <time>2014-09-06T09:44:47.266Z</time>
      </trkpt>
      <trkpt lat="44.10781" lon="3.0904">
        <ele>465</ele>
        <time>2014-09-06T09:44:48.268Z</time>
      </trkpt>
      <trkpt lat="44.10775" lon="3.09034">
        <ele>453</ele>
        <time>2014-09-06T09:44:51.261Z</time>
      </trkpt>
      <trkpt lat="44.10773" lon="3.09031">
        <ele>454</ele>
        <time>2014-09-06T09:44:52.280Z</time>
      </trkpt>
      <trkpt lat="44.10768" lon="3.09025">
        <ele>455</ele>
        <time>2014-09-06T09:44:54.262Z</time>
      </trkpt>
      <trkpt lat="44.10766" lon="3.09022">
        <ele>455</ele>
        <time>2014-09-06T09:44:55.261Z</time>
      </trkpt>
      <trkpt lat="44.1076" lon="3.09016">
        <ele>456</ele>
        <time>2014-09-06T09:44:57.450Z</time>
      </trkpt>
      <trkpt lat="44.10758" lon="3.09013">
        <ele>455</ele>
        <time>2014-09-06T09:44:58.257Z</time>
      </trkpt>
      <trkpt lat="44.1075" lon="3.09008">
        <ele>453</ele>
        <time>2014-09-06T09:45:02.239Z</time>
      </trkpt>
      <trkpt lat="44.10747" lon="3.09007">
        <ele>451</ele>
        <time>2014-09-06T09:45:03.264Z</time>
      </trkpt>
      <trkpt lat="44.1074" lon="3.09002">
        <ele>450</ele>
        <time>2014-09-06T09:45:06.267Z</time>
      </trkpt>
      <trkpt lat="44.10738" lon="3.08999">
        <ele>448</ele>
        <time>2014-09-06T09:45:07.262Z</time>
      </trkpt>
      <trkpt lat="44.10732" lon="3.08993">
        <ele>449</ele>
        <time>2014-09-06T09:45:09.258Z</time>
      </trkpt>
      <trkpt lat="44.10729" lon="3.08991">
        <ele>449</ele>
        <time>2014-09-06T09:45:10.260Z</time>
      </trkpt>
      <trkpt lat="44.10723" lon="3.08989">
        <ele>448</ele>
        <time>2014-09-06T09:45:12.267Z</time>
      </trkpt>
      <trkpt lat="44.1072" lon="3.08987">
        <ele>447</ele>
        <time>2014-09-06T09:45:13.305Z</time>
      </trkpt>
      <trkpt lat="44.10713" lon="3.08982">
        <ele>447</ele>
        <time>2014-09-06T09:45:16.280Z</time>
      </trkpt>
      <trkpt lat="44.1071" lon="3.08981">
        <ele>447</ele>
        <time>2014-09-06T09:45:17.398Z</time>
      </trkpt>
      <trkpt lat="44.10705" lon="3.08978">
        <ele>448</ele>
        <time>2014-09-06T09:45:19.240Z</time>
      </trkpt>
      <trkpt lat="44.10702" lon="3.08976">
        <ele>446</ele>
        <time>2014-09-06T09:45:20.264Z</time>
      </trkpt>
      <trkpt lat="44.10694" lon="3.08974">
        <ele>447</ele>
        <time>2014-09-06T09:45:22.261Z</time>
      </trkpt>
      <trkpt lat="44.1069" lon="3.08974">
        <ele>447</ele>
        <time>2014-09-06T09:45:23.262Z</time>
      </trkpt>
      <trkpt lat="44.10682" lon="3.0897">
        <ele>449</ele>
        <time>2014-09-06T09:45:29.259Z</time>
      </trkpt>
      <trkpt lat="44.10681" lon="3.08968">
        <ele>450</ele>
        <time>2014-09-06T09:45:30.299Z</time>
      </trkpt>
      <trkpt lat="44.10678" lon="3.08957">
        <ele>443</ele>
        <time>2014-09-06T09:45:36.264Z</time>
      </trkpt>
      <trkpt lat="44.10677" lon="3.08953">
        <ele>442</ele>
        <time>2014-09-06T09:45:37.264Z</time>
      </trkpt>
      <trkpt lat="44.10671" lon="3.08945">
        <ele>444</ele>
        <time>2014-09-06T09:45:41.234Z</time>
      </trkpt>
      <trkpt lat="44.10669" lon="3.08945">
        <ele>444</ele>
        <time>2014-09-06T09:45:42.298Z</time>
      </trkpt>
      <trkpt lat="44.1066" lon="3.08946">
        <ele>443</ele>
        <time>2014-09-06T09:45:45.235Z</time>
      </trkpt>
      <trkpt lat="44.10658" lon="3.08947">
        <ele>445</ele>
        <time>2014-09-06T09:45:46.286Z</time>
      </trkpt>
      <trkpt lat="44.10649" lon="3.08948">
        <ele>445</ele>
        <time>2014-09-06T09:45:50.265Z</time>
      </trkpt>
      <trkpt lat="44.10647" lon="3.08948">
        <ele>447</ele>
        <time>2014-09-06T09:45:51.262Z</time>
      </trkpt>
      <trkpt lat="44.10639" lon="3.08944">
        <ele>438</ele>
        <time>2014-09-06T09:45:55.267Z</time>
      </trkpt>
      <trkpt lat="44.10638" lon="3.08942">
        <ele>433</ele>
        <time>2014-09-06T09:45:56.265Z</time>
      </trkpt>
      <trkpt lat="44.10629" lon="3.08942">
        <ele>440</ele>
        <time>2014-09-06T09:46:03.234Z</time>
      </trkpt>
      <trkpt lat="44.10628" lon="3.08942">
        <ele>442</ele>
        <time>2014-09-06T09:46:04.421Z</time>
      </trkpt>
      <trkpt lat="44.10619" lon="3.08941">
        <ele>440</ele>
        <time>2014-09-06T09:46:11.260Z</time>
      </trkpt>
      <trkpt lat="44.10617" lon="3.08942">
        <ele>442</ele>
        <time>2014-09-06T09:46:12.267Z</time>
      </trkpt>
      <trkpt lat="44.10609" lon="3.08946">
        <ele>443</ele>
        <time>2014-09-06T09:46:16.265Z</time>
      </trkpt>
      <trkpt lat="44.10608" lon="3.08946">
        <ele>440</ele>
        <time>2014-09-06T09:46:17.261Z</time>
      </trkpt>
      <trkpt lat="44.106" lon="3.08948">
        <ele>429</ele>
        <time>2014-09-06T09:46:28.260Z</time>
      </trkpt>
      <trkpt lat="44.10598" lon="3.08948">
        <ele>427</ele>
        <time>2014-09-06T09:46:29.260Z</time>
      </trkpt>
      <trkpt lat="44.1059" lon="3.08948">
        <ele>428</ele>
        <time>2014-09-06T09:46:34.264Z</time>
      </trkpt>
      <trkpt lat="44.10587" lon="3.08948">
        <ele>428</ele>
        <time>2014-09-06T09:46:35.286Z</time>
      </trkpt>
      <trkpt lat="44.1058" lon="3.0895">
        <ele>422</ele>
        <time>2014-09-06T09:46:38.261Z</time>
      </trkpt>
      <trkpt lat="44.10577" lon="3.08951">
        <ele>418</ele>
        <time>2014-09-06T09:46:39.238Z</time>
      </trkpt>
      <trkpt lat="44.10569" lon="3.08954">
        <ele>414</ele>
        <time>2014-09-06T09:46:42.270Z</time>
      </trkpt>
      <trkpt lat="44.10566" lon="3.08955">
        <ele>415</ele>
        <time>2014-09-06T09:46:43.263Z</time>
      </trkpt>
      <trkpt lat="44.10559" lon="3.08954">
        <ele>416</ele>
        <time>2014-09-06T09:46:46.365Z</time>
      </trkpt>
      <trkpt lat="44.10557" lon="3.08953">
        <ele>415</ele>
        <time>2014-09-06T09:46:47.236Z</time>
      </trkpt>
      <trkpt lat="44.10551" lon="3.08943">
        <ele>419</ele>
        <time>2014-09-06T09:46:52.265Z</time>
      </trkpt>
      <trkpt lat="44.10549" lon="3.08943">
        <ele>419</ele>
        <time>2014-09-06T09:46:53.259Z</time>
      </trkpt>
      <trkpt lat="44.10542" lon="3.08949">
        <ele>420</ele>
        <time>2014-09-06T09:46:56.252Z</time>
      </trkpt>
      <trkpt lat="44.10541" lon="3.08951">
        <ele>421</ele>
        <time>2014-09-06T09:46:57.259Z</time>
      </trkpt>
      <trkpt lat="44.10544" lon="3.0894">
        <ele>421</ele>
        <time>2014-09-06T09:47:10.258Z</time>
      </trkpt>
      <trkpt lat="44.10546" lon="3.0894">
        <ele>420</ele>
        <time>2014-09-06T09:47:11.259Z</time>
      </trkpt>
      <trkpt lat="44.10548" lon="3.08939">
        <ele>411</ele>
        <time>2014-09-06T09:47:42.249Z</time>
      </trkpt>
      <trkpt lat="44.10538" lon="3.08923">
        <ele>410</ele>
        <time>2014-09-06T09:47:50.262Z</time>
      </trkpt>
      <trkpt lat="44.10534" lon="3.08917">
        <ele>410</ele>
        <time>2014-09-06T09:47:51.253Z</time>
      </trkpt>
      <trkpt lat="44.10529" lon="3.08911">
        <ele>410</ele>
        <time>2014-09-06T09:47:52.267Z</time>
      </trkpt>
      <trkpt lat="44.10506" lon="3.08893">
        <ele>410</ele>
        <time>2014-09-06T09:47:53.265Z</time>
      </trkpt>
      <trkpt lat="44.10503" lon="3.08882">
        <ele>402</ele>
        <time>2014-09-06T09:47:54.264Z</time>
      </trkpt>
      <trkpt lat="44.1051" lon="3.08874">
        <ele>401</ele>
        <time>2014-09-06T09:47:55.257Z</time>
      </trkpt>
      <trkpt lat="44.10506" lon="3.08866">
        <ele>405</ele>
        <time>2014-09-06T09:48:11.262Z</time>
      </trkpt>
      <trkpt lat="44.10504" lon="3.08862">
        <ele>406</ele>
        <time>2014-09-06T09:48:12.261Z</time>
      </trkpt>
      <trkpt lat="44.10499" lon="3.08858">
        <ele>408</ele>
        <time>2014-09-06T09:48:13.265Z</time>
      </trkpt>
      <trkpt lat="44.10495" lon="3.08857">
        <ele>408</ele>
        <time>2014-09-06T09:48:14.264Z</time>
      </trkpt>
      <trkpt lat="44.10487" lon="3.08854">
        <ele>403</ele>
        <time>2014-09-06T09:48:17.262Z</time>
      </trkpt>
      <trkpt lat="44.10484" lon="3.08855">
        <ele>403</ele>
        <time>2014-09-06T09:48:18.264Z</time>
      </trkpt>
      <trkpt lat="44.10475" lon="3.08856">
        <ele>404</ele>
        <time>2014-09-06T09:48:21.260Z</time>
      </trkpt>
      <trkpt lat="44.10472" lon="3.08857">
        <ele>404</ele>
        <time>2014-09-06T09:48:22.264Z</time>
      </trkpt>
      <trkpt lat="44.10466" lon="3.08855">
        <ele>405</ele>
        <time>2014-09-06T09:48:24.262Z</time>
      </trkpt>
      <trkpt lat="44.10463" lon="3.08855">
        <ele>405</ele>
        <time>2014-09-06T09:48:25.261Z</time>
      </trkpt>
      <trkpt lat="44.10454" lon="3.08854">
        <ele>403</ele>
        <time>2014-09-06T09:48:28.261Z</time>
      </trkpt>
      <trkpt lat="44.10451" lon="3.08854">
        <ele>404</ele>
        <time>2014-09-06T09:48:29.268Z</time>
      </trkpt>
      <trkpt lat="44.10444" lon="3.08854">
        <ele>405</ele>
        <time>2014-09-06T09:48:31.260Z</time>
      </trkpt>
      <trkpt lat="44.10441" lon="3.08854">
        <ele>406</ele>
        <time>2014-09-06T09:48:32.235Z</time>
      </trkpt>
      <trkpt lat="44.10433" lon="3.08854">
        <ele>404</ele>
        <time>2014-09-06T09:48:34.271Z</time>
      </trkpt>
      <trkpt lat="44.10429" lon="3.08853">
        <ele>405</ele>
        <time>2014-09-06T09:48:35.258Z</time>
      </trkpt>
      <trkpt lat="44.10422" lon="3.08852">
        <ele>407</ele>
        <time>2014-09-06T09:48:37.260Z</time>
      </trkpt>
      <trkpt lat="44.10419" lon="3.08852">
        <ele>407</ele>
        <time>2014-09-06T09:48:38.264Z</time>
      </trkpt>
      <trkpt lat="44.10412" lon="3.08851">
        <ele>408</ele>
        <time>2014-09-06T09:48:40.262Z</time>
      </trkpt>
      <trkpt lat="44.10409" lon="3.08851">
        <ele>409</ele>
        <time>2014-09-06T09:48:41.257Z</time>
      </trkpt>
      <trkpt lat="44.104" lon="3.08852">
        <ele>412</ele>
        <time>2014-09-06T09:48:44.254Z</time>
      </trkpt>
      <trkpt lat="44.10397" lon="3.08853">
        <ele>411</ele>
        <time>2014-09-06T09:48:45.261Z</time>
      </trkpt>
      <trkpt lat="44.10388" lon="3.08854">
        <ele>412</ele>
        <time>2014-09-06T09:48:48.264Z</time>
      </trkpt>
      <trkpt lat="44.10386" lon="3.08853">
        <ele>411</ele>
        <time>2014-09-06T09:48:49.261Z</time>
      </trkpt>
      <trkpt lat="44.10378" lon="3.08854">
        <ele>410</ele>
        <time>2014-09-06T09:48:52.238Z</time>
      </trkpt>
      <trkpt lat="44.10376" lon="3.08855">
        <ele>410</ele>
        <time>2014-09-06T09:48:53.261Z</time>
      </trkpt>
      <trkpt lat="44.10369" lon="3.08858">
        <ele>411</ele>
        <time>2014-09-06T09:48:57.260Z</time>
      </trkpt>
      <trkpt lat="44.10366" lon="3.08857">
        <ele>409</ele>
        <time>2014-09-06T09:48:58.259Z</time>
      </trkpt>
      <trkpt lat="44.10358" lon="3.08858">
        <ele>410</ele>
        <time>2014-09-06T09:49:04.263Z</time>
      </trkpt>
      <trkpt lat="44.10357" lon="3.08856">
        <ele>409</ele>
        <time>2014-09-06T09:49:05.293Z</time>
      </trkpt>
      <trkpt lat="44.10351" lon="3.08847">
        <ele>407</ele>
        <time>2014-09-06T09:49:10.241Z</time>
      </trkpt>
      <trkpt lat="44.1035" lon="3.08845">
        <ele>406</ele>
        <time>2014-09-06T09:49:11.265Z</time>
      </trkpt>
      <trkpt lat="44.10342" lon="3.0884">
        <ele>408</ele>
        <time>2014-09-06T09:49:16.257Z</time>
      </trkpt>
      <trkpt lat="44.10341" lon="3.0884">
        <ele>408</ele>
        <time>2014-09-06T09:49:17.431Z</time>
      </trkpt>
      <trkpt lat="44.10335" lon="3.08839">
        <ele>412</ele>
        <time>2014-09-06T09:49:24.445Z</time>
      </trkpt>
    </trkseg>
  </trk>
</gpx>